<?xml version="1.0" encoding="UTF-8" standalone="no" ?>
<gpx xmlns="http://www.topografix.com/GPX/1/1" xmlns:xsi="http://www.w3.org/2001/XMLSchema-instance" xsi:schemaLocation="http://www.topografix.com/GPX/1/1 http://www.topografix.com/GPX/1/1/gpx.xsd" version="1.1" creator="VisuGPX - https://www.visugpx.com">
  <metadata>
    <name>Arèches Cuvy 25 Janvier</name>
    <desc><![CDATA[Télésièges en Montée et tout schuss en descente !
belle journée.
Garmin
Grenam13]]></desc>
  </metadata>
  <trk>
    <name><![CDATA[ACTIVE LOG102159]]></name>
    <trkseg>
      <trkpt lat="45.69214" lon="6.563">
        <ele>1699.609</ele>
        <time>2012-01-25T09:21:59Z</time>
      </trkpt>
      <trkpt lat="45.69214" lon="6.563">
        <ele>1699.45</ele>
        <time>2012-01-25T09:22:09Z</time>
      </trkpt>
      <trkpt lat="45.69214" lon="6.563">
        <ele>1699.421</ele>
        <time>2012-01-25T09:22:19Z</time>
      </trkpt>
      <trkpt lat="45.69214" lon="6.563">
        <ele>1699.321</ele>
        <time>2012-01-25T09:22:29Z</time>
      </trkpt>
    </trkseg>
  </trk>
  <trk>
    <name><![CDATA[ACTIVE LOG102230]]></name>
    <trkseg>
      <trkpt lat="45.66832" lon="6.56489">
        <ele>1699.321</ele>
        <time>2012-01-25T09:22:30Z</time>
      </trkpt>
      <trkpt lat="45.66834" lon="6.56489">
        <ele>1699.045</ele>
        <time>2012-01-25T09:22:39Z</time>
      </trkpt>
      <trkpt lat="45.66834" lon="6.56489">
        <ele>1698.987</ele>
        <time>2012-01-25T09:22:40Z</time>
      </trkpt>
    </trkseg>
  </trk>
  <trk>
    <name><![CDATA[ACTIVE LOG102252]]></name>
    <trkseg>
      <trkpt lat="45.66834" lon="6.56489">
        <ele>1699.067</ele>
        <time>2012-01-25T09:22:50Z</time>
      </trkpt>
      <trkpt lat="45.66832" lon="6.56482">
        <ele>1698.587</ele>
        <time>2012-01-25T09:23:00Z</time>
      </trkpt>
      <trkpt lat="45.66832" lon="6.56482">
        <ele>1698.146</ele>
        <time>2012-01-25T09:23:10Z</time>
      </trkpt>
      <trkpt lat="45.66829" lon="6.5647">
        <ele>1697.587</ele>
        <time>2012-01-25T09:23:20Z</time>
      </trkpt>
      <trkpt lat="45.66827" lon="6.56461">
        <ele>1696.526</ele>
        <time>2012-01-25T09:23:30Z</time>
      </trkpt>
      <trkpt lat="45.6682" lon="6.56449">
        <ele>1695.481</ele>
        <time>2012-01-25T09:23:40Z</time>
      </trkpt>
      <trkpt lat="45.66815" lon="6.56434">
        <ele>1694.633</ele>
        <time>2012-01-25T09:23:50Z</time>
      </trkpt>
      <trkpt lat="45.66809" lon="6.56425">
        <ele>1694.584</ele>
        <time>2012-01-25T09:24:00Z</time>
      </trkpt>
      <trkpt lat="45.66802" lon="6.56414">
        <ele>1693.738</ele>
        <time>2012-01-25T09:24:10Z</time>
      </trkpt>
      <trkpt lat="45.66795" lon="6.56402">
        <ele>1693.187</ele>
        <time>2012-01-25T09:24:20Z</time>
      </trkpt>
      <trkpt lat="45.66788" lon="6.56393">
        <ele>1692.109</ele>
        <time>2012-01-25T09:24:30Z</time>
      </trkpt>
      <trkpt lat="45.66782" lon="6.56384">
        <ele>1691.531</ele>
        <time>2012-01-25T09:24:40Z</time>
      </trkpt>
      <trkpt lat="45.66776" lon="6.56376">
        <ele>1690.785</ele>
        <time>2012-01-25T09:24:50Z</time>
      </trkpt>
      <trkpt lat="45.66771" lon="6.56364">
        <ele>1690.168</ele>
        <time>2012-01-25T09:25:00Z</time>
      </trkpt>
      <trkpt lat="45.66767" lon="6.56352">
        <ele>1689.602</ele>
        <time>2012-01-25T09:25:10Z</time>
      </trkpt>
      <trkpt lat="45.66763" lon="6.56344">
        <ele>1688.794</ele>
        <time>2012-01-25T09:25:20Z</time>
      </trkpt>
      <trkpt lat="45.66758" lon="6.56328">
        <ele>1687.837</ele>
        <time>2012-01-25T09:25:30Z</time>
      </trkpt>
      <trkpt lat="45.66754" lon="6.56314">
        <ele>1687.495</ele>
        <time>2012-01-25T09:25:40Z</time>
      </trkpt>
      <trkpt lat="45.6675" lon="6.56305">
        <ele>1687.015</ele>
        <time>2012-01-25T09:25:50Z</time>
      </trkpt>
      <trkpt lat="45.66753" lon="6.56303">
        <ele>1686.548</ele>
        <time>2012-01-25T09:26:00Z</time>
      </trkpt>
      <trkpt lat="45.66755" lon="6.56302">
        <ele>1686.675</ele>
        <time>2012-01-25T09:26:10Z</time>
      </trkpt>
      <trkpt lat="45.66756" lon="6.56301">
        <ele>1686.391</ele>
        <time>2012-01-25T09:26:20Z</time>
      </trkpt>
      <trkpt lat="45.66753" lon="6.56288">
        <ele>1686.363</ele>
        <time>2012-01-25T09:26:30Z</time>
      </trkpt>
      <trkpt lat="45.66748" lon="6.56276">
        <ele>1686.001</ele>
        <time>2012-01-25T09:26:40Z</time>
      </trkpt>
      <trkpt lat="45.66748" lon="6.56268">
        <ele>1685.504</ele>
        <time>2012-01-25T09:26:50Z</time>
      </trkpt>
      <trkpt lat="45.66747" lon="6.56259">
        <ele>1684.654</ele>
        <time>2012-01-25T09:27:00Z</time>
      </trkpt>
      <trkpt lat="45.66748" lon="6.56246">
        <ele>1684.52</ele>
        <time>2012-01-25T09:27:10Z</time>
      </trkpt>
      <trkpt lat="45.66745" lon="6.56232">
        <ele>1684.206</ele>
        <time>2012-01-25T09:27:20Z</time>
      </trkpt>
      <trkpt lat="45.66744" lon="6.56219">
        <ele>1683.412</ele>
        <time>2012-01-25T09:27:30Z</time>
      </trkpt>
      <trkpt lat="45.6674" lon="6.56202">
        <ele>1682.848</ele>
        <time>2012-01-25T09:27:40Z</time>
      </trkpt>
      <trkpt lat="45.66736" lon="6.56186">
        <ele>1682.23</ele>
        <time>2012-01-25T09:27:50Z</time>
      </trkpt>
      <trkpt lat="45.66731" lon="6.56174">
        <ele>1681.496</ele>
        <time>2012-01-25T09:28:00Z</time>
      </trkpt>
      <trkpt lat="45.66721" lon="6.56162">
        <ele>1681.086</ele>
        <time>2012-01-25T09:28:10Z</time>
      </trkpt>
      <trkpt lat="45.66716" lon="6.56147">
        <ele>1679.859</ele>
        <time>2012-01-25T09:28:20Z</time>
      </trkpt>
      <trkpt lat="45.6671" lon="6.56133">
        <ele>1679.453</ele>
        <time>2012-01-25T09:28:30Z</time>
      </trkpt>
      <trkpt lat="45.667" lon="6.56118">
        <ele>1678.804</ele>
        <time>2012-01-25T09:28:40Z</time>
      </trkpt>
      <trkpt lat="45.66692" lon="6.56105">
        <ele>1677.347</ele>
        <time>2012-01-25T09:28:50Z</time>
      </trkpt>
      <trkpt lat="45.66684" lon="6.56096">
        <ele>1677.187</ele>
        <time>2012-01-25T09:29:00Z</time>
      </trkpt>
      <trkpt lat="45.66682" lon="6.56082">
        <ele>1676.502</ele>
        <time>2012-01-25T09:29:10Z</time>
      </trkpt>
      <trkpt lat="45.66681" lon="6.56068">
        <ele>1676.075</ele>
        <time>2012-01-25T09:29:20Z</time>
      </trkpt>
      <trkpt lat="45.66682" lon="6.5605">
        <ele>1674.937</ele>
        <time>2012-01-25T09:29:30Z</time>
      </trkpt>
      <trkpt lat="45.6669" lon="6.56035">
        <ele>1674.611</ele>
        <time>2012-01-25T09:29:40Z</time>
      </trkpt>
      <trkpt lat="45.66704" lon="6.56025">
        <ele>1673.981</ele>
        <time>2012-01-25T09:29:50Z</time>
      </trkpt>
      <trkpt lat="45.6671" lon="6.56012">
        <ele>1673.734</ele>
        <time>2012-01-25T09:30:00Z</time>
      </trkpt>
      <trkpt lat="45.66721" lon="6.56003">
        <ele>1673.405</ele>
        <time>2012-01-25T09:30:10Z</time>
      </trkpt>
      <trkpt lat="45.66727" lon="6.55993">
        <ele>1672.936</ele>
        <time>2012-01-25T09:30:20Z</time>
      </trkpt>
      <trkpt lat="45.66729" lon="6.5598">
        <ele>1672.546</ele>
        <time>2012-01-25T09:30:30Z</time>
      </trkpt>
      <trkpt lat="45.66732" lon="6.55965">
        <ele>1672.194</ele>
        <time>2012-01-25T09:30:40Z</time>
      </trkpt>
      <trkpt lat="45.66734" lon="6.55946">
        <ele>1672.094</ele>
        <time>2012-01-25T09:30:50Z</time>
      </trkpt>
      <trkpt lat="45.66742" lon="6.55935">
        <ele>1671.663</ele>
        <time>2012-01-25T09:31:00Z</time>
      </trkpt>
      <trkpt lat="45.6675" lon="6.55923">
        <ele>1671.219</ele>
        <time>2012-01-25T09:31:10Z</time>
      </trkpt>
      <trkpt lat="45.66762" lon="6.55914">
        <ele>1670.945</ele>
        <time>2012-01-25T09:31:20Z</time>
      </trkpt>
      <trkpt lat="45.66771" lon="6.55903">
        <ele>1670.308</ele>
        <time>2012-01-25T09:31:30Z</time>
      </trkpt>
      <trkpt lat="45.6678" lon="6.55893">
        <ele>1669.78</ele>
        <time>2012-01-25T09:31:40Z</time>
      </trkpt>
      <trkpt lat="45.66783" lon="6.55888">
        <ele>1669.51</ele>
        <time>2012-01-25T09:31:50Z</time>
      </trkpt>
      <trkpt lat="45.66792" lon="6.55881">
        <ele>1669.039</ele>
        <time>2012-01-25T09:32:00Z</time>
      </trkpt>
      <trkpt lat="45.668" lon="6.5587">
        <ele>1668.638</ele>
        <time>2012-01-25T09:32:10Z</time>
      </trkpt>
      <trkpt lat="45.66802" lon="6.55857">
        <ele>1668.05</ele>
        <time>2012-01-25T09:32:20Z</time>
      </trkpt>
      <trkpt lat="45.66796" lon="6.55846">
        <ele>1667.94</ele>
        <time>2012-01-25T09:32:30Z</time>
      </trkpt>
      <trkpt lat="45.6679" lon="6.55842">
        <ele>1668.812</ele>
        <time>2012-01-25T09:32:40Z</time>
      </trkpt>
      <trkpt lat="45.66796" lon="6.55838">
        <ele>1667.923</ele>
        <time>2012-01-25T09:32:50Z</time>
      </trkpt>
      <trkpt lat="45.66799" lon="6.55838">
        <ele>1667.975</ele>
        <time>2012-01-25T09:33:00Z</time>
      </trkpt>
      <trkpt lat="45.66802" lon="6.55838">
        <ele>1667.563</ele>
        <time>2012-01-25T09:33:10Z</time>
      </trkpt>
      <trkpt lat="45.66809" lon="6.55848">
        <ele>1667.524</ele>
        <time>2012-01-25T09:33:20Z</time>
      </trkpt>
      <trkpt lat="45.6681" lon="6.55858">
        <ele>1666.038</ele>
        <time>2012-01-25T09:33:30Z</time>
      </trkpt>
      <trkpt lat="45.66806" lon="6.55869">
        <ele>1664.774</ele>
        <time>2012-01-25T09:33:40Z</time>
      </trkpt>
      <trkpt lat="45.66804" lon="6.55881">
        <ele>1664.126</ele>
        <time>2012-01-25T09:33:50Z</time>
      </trkpt>
      <trkpt lat="45.6681" lon="6.55895">
        <ele>1663.791</ele>
        <time>2012-01-25T09:34:00Z</time>
      </trkpt>
      <trkpt lat="45.66813" lon="6.55911">
        <ele>1663.04</ele>
        <time>2012-01-25T09:34:10Z</time>
      </trkpt>
      <trkpt lat="45.66813" lon="6.55921">
        <ele>1661.844</ele>
        <time>2012-01-25T09:34:20Z</time>
      </trkpt>
      <trkpt lat="45.66813" lon="6.55936">
        <ele>1661.148</ele>
        <time>2012-01-25T09:34:30Z</time>
      </trkpt>
      <trkpt lat="45.66811" lon="6.5595">
        <ele>1660.039</ele>
        <time>2012-01-25T09:34:40Z</time>
      </trkpt>
      <trkpt lat="45.66811" lon="6.55961">
        <ele>1659.241</ele>
        <time>2012-01-25T09:34:50Z</time>
      </trkpt>
      <trkpt lat="45.66809" lon="6.5597">
        <ele>1658.124</ele>
        <time>2012-01-25T09:35:00Z</time>
      </trkpt>
      <trkpt lat="45.66809" lon="6.55985">
        <ele>1657.915</ele>
        <time>2012-01-25T09:35:10Z</time>
      </trkpt>
      <trkpt lat="45.66807" lon="6.55993">
        <ele>1656.935</ele>
        <time>2012-01-25T09:35:20Z</time>
      </trkpt>
      <trkpt lat="45.66807" lon="6.56001">
        <ele>1656.322</ele>
        <time>2012-01-25T09:35:30Z</time>
      </trkpt>
      <trkpt lat="45.6681" lon="6.55996">
        <ele>1655.923</ele>
        <time>2012-01-25T09:35:40Z</time>
      </trkpt>
      <trkpt lat="45.6681" lon="6.55996">
        <ele>1656.002</ele>
        <time>2012-01-25T09:35:50Z</time>
      </trkpt>
      <trkpt lat="45.66812" lon="6.55999">
        <ele>1655.997</ele>
        <time>2012-01-25T09:36:00Z</time>
      </trkpt>
      <trkpt lat="45.66813" lon="6.56001">
        <ele>1655.592</ele>
        <time>2012-01-25T09:36:10Z</time>
      </trkpt>
      <trkpt lat="45.66812" lon="6.56008">
        <ele>1655.083</ele>
        <time>2012-01-25T09:36:20Z</time>
      </trkpt>
      <trkpt lat="45.66811" lon="6.56019">
        <ele>1654.921</ele>
        <time>2012-01-25T09:36:30Z</time>
      </trkpt>
      <trkpt lat="45.66814" lon="6.5603">
        <ele>1654.039</ele>
        <time>2012-01-25T09:36:40Z</time>
      </trkpt>
      <trkpt lat="45.6682" lon="6.56035">
        <ele>1653.241</ele>
        <time>2012-01-25T09:36:50Z</time>
      </trkpt>
      <trkpt lat="45.66823" lon="6.56032">
        <ele>1652.917</ele>
        <time>2012-01-25T09:37:00Z</time>
      </trkpt>
      <trkpt lat="45.6682" lon="6.56021">
        <ele>1651.626</ele>
        <time>2012-01-25T09:37:10Z</time>
      </trkpt>
      <trkpt lat="45.66817" lon="6.56008">
        <ele>1651.873</ele>
        <time>2012-01-25T09:37:20Z</time>
      </trkpt>
      <trkpt lat="45.66823" lon="6.56001">
        <ele>1651.868</ele>
        <time>2012-01-25T09:37:30Z</time>
      </trkpt>
      <trkpt lat="45.66827" lon="6.55991">
        <ele>1651.57</ele>
        <time>2012-01-25T09:37:40Z</time>
      </trkpt>
      <trkpt lat="45.66831" lon="6.55979">
        <ele>1650.859</ele>
        <time>2012-01-25T09:37:50Z</time>
      </trkpt>
      <trkpt lat="45.66834" lon="6.55969">
        <ele>1650.172</ele>
        <time>2012-01-25T09:38:00Z</time>
      </trkpt>
      <trkpt lat="45.66842" lon="6.55964">
        <ele>1649.028</ele>
        <time>2012-01-25T09:38:10Z</time>
      </trkpt>
      <trkpt lat="45.66842" lon="6.5597">
        <ele>1647.746</ele>
        <time>2012-01-25T09:38:20Z</time>
      </trkpt>
      <trkpt lat="45.66841" lon="6.55981">
        <ele>1647.572</ele>
        <time>2012-01-25T09:38:30Z</time>
      </trkpt>
      <trkpt lat="45.66839" lon="6.55997">
        <ele>1647.801</ele>
        <time>2012-01-25T09:38:40Z</time>
      </trkpt>
      <trkpt lat="45.66834" lon="6.56009">
        <ele>1647.551</ele>
        <time>2012-01-25T09:38:50Z</time>
      </trkpt>
      <trkpt lat="45.66835" lon="6.56022">
        <ele>1647.097</ele>
        <time>2012-01-25T09:39:00Z</time>
      </trkpt>
      <trkpt lat="45.66838" lon="6.56037">
        <ele>1646.601</ele>
        <time>2012-01-25T09:39:10Z</time>
      </trkpt>
      <trkpt lat="45.66841" lon="6.5605">
        <ele>1646.051</ele>
        <time>2012-01-25T09:39:20Z</time>
      </trkpt>
      <trkpt lat="45.66846" lon="6.56066">
        <ele>1644.801</ele>
        <time>2012-01-25T09:39:30Z</time>
      </trkpt>
      <trkpt lat="45.66851" lon="6.56081">
        <ele>1644.037</ele>
        <time>2012-01-25T09:39:40Z</time>
      </trkpt>
      <trkpt lat="45.66858" lon="6.5609">
        <ele>1644.437</ele>
        <time>2012-01-25T09:39:50Z</time>
      </trkpt>
      <trkpt lat="45.66865" lon="6.56097">
        <ele>1644.03</ele>
        <time>2012-01-25T09:40:00Z</time>
      </trkpt>
      <trkpt lat="45.66867" lon="6.56103">
        <ele>1646.749</ele>
        <time>2012-01-25T09:40:10Z</time>
      </trkpt>
      <trkpt lat="45.66876" lon="6.56106">
        <ele>1643.743</ele>
        <time>2012-01-25T09:40:20Z</time>
      </trkpt>
      <trkpt lat="45.66878" lon="6.56119">
        <ele>1643.24</ele>
        <time>2012-01-25T09:40:30Z</time>
      </trkpt>
      <trkpt lat="45.66884" lon="6.56126">
        <ele>1642.768</ele>
        <time>2012-01-25T09:40:40Z</time>
      </trkpt>
      <trkpt lat="45.66889" lon="6.56134">
        <ele>1642.632</ele>
        <time>2012-01-25T09:40:50Z</time>
      </trkpt>
      <trkpt lat="45.66896" lon="6.56143">
        <ele>1642.679</ele>
        <time>2012-01-25T09:41:00Z</time>
      </trkpt>
      <trkpt lat="45.66899" lon="6.56149">
        <ele>1641.987</ele>
        <time>2012-01-25T09:41:10Z</time>
      </trkpt>
      <trkpt lat="45.66907" lon="6.56159">
        <ele>1641.826</ele>
        <time>2012-01-25T09:41:20Z</time>
      </trkpt>
      <trkpt lat="45.66915" lon="6.56165">
        <ele>1640.909</ele>
        <time>2012-01-25T09:41:30Z</time>
      </trkpt>
      <trkpt lat="45.66919" lon="6.56174">
        <ele>1639.49</ele>
        <time>2012-01-25T09:41:40Z</time>
      </trkpt>
      <trkpt lat="45.6692" lon="6.56177">
        <ele>1639.883</ele>
        <time>2012-01-25T09:41:50Z</time>
      </trkpt>
      <trkpt lat="45.66921" lon="6.56176">
        <ele>1639.527</ele>
        <time>2012-01-25T09:42:00Z</time>
      </trkpt>
      <trkpt lat="45.66921" lon="6.56177">
        <ele>1639.627</ele>
        <time>2012-01-25T09:42:10Z</time>
      </trkpt>
      <trkpt lat="45.66921" lon="6.56179">
        <ele>1640.186</ele>
        <time>2012-01-25T09:42:20Z</time>
      </trkpt>
      <trkpt lat="45.6692" lon="6.56178">
        <ele>1639.841</ele>
        <time>2012-01-25T09:42:30Z</time>
      </trkpt>
      <trkpt lat="45.66919" lon="6.56177">
        <ele>1640.037</ele>
        <time>2012-01-25T09:42:40Z</time>
      </trkpt>
      <trkpt lat="45.66919" lon="6.56177">
        <ele>1640.06</ele>
        <time>2012-01-25T09:42:50Z</time>
      </trkpt>
      <trkpt lat="45.66917" lon="6.56176">
        <ele>1639.561</ele>
        <time>2012-01-25T09:43:00Z</time>
      </trkpt>
      <trkpt lat="45.66917" lon="6.56175">
        <ele>1639.906</ele>
        <time>2012-01-25T09:43:10Z</time>
      </trkpt>
      <trkpt lat="45.66915" lon="6.56175">
        <ele>1639.525</ele>
        <time>2012-01-25T09:43:20Z</time>
      </trkpt>
      <trkpt lat="45.66915" lon="6.56175">
        <ele>1639.771</ele>
        <time>2012-01-25T09:43:30Z</time>
      </trkpt>
      <trkpt lat="45.66915" lon="6.56175">
        <ele>1639.538</ele>
        <time>2012-01-25T09:43:40Z</time>
      </trkpt>
      <trkpt lat="45.66915" lon="6.56175">
        <ele>1639.499</ele>
        <time>2012-01-25T09:43:50Z</time>
      </trkpt>
      <trkpt lat="45.66915" lon="6.56173">
        <ele>1639.845</ele>
        <time>2012-01-25T09:44:00Z</time>
      </trkpt>
      <trkpt lat="45.66913" lon="6.56163">
        <ele>1639.443</ele>
        <time>2012-01-25T09:44:10Z</time>
      </trkpt>
      <trkpt lat="45.66914" lon="6.56156">
        <ele>1639.603</ele>
        <time>2012-01-25T09:44:20Z</time>
      </trkpt>
      <trkpt lat="45.66911" lon="6.56151">
        <ele>1638.689</ele>
        <time>2012-01-25T09:44:30Z</time>
      </trkpt>
      <trkpt lat="45.66907" lon="6.56141">
        <ele>1638.596</ele>
        <time>2012-01-25T09:44:40Z</time>
      </trkpt>
      <trkpt lat="45.669" lon="6.56126">
        <ele>1637.857</ele>
        <time>2012-01-25T09:44:50Z</time>
      </trkpt>
      <trkpt lat="45.66894" lon="6.56114">
        <ele>1636.93</ele>
        <time>2012-01-25T09:45:00Z</time>
      </trkpt>
      <trkpt lat="45.6689" lon="6.56099">
        <ele>1636.198</ele>
        <time>2012-01-25T09:45:10Z</time>
      </trkpt>
      <trkpt lat="45.66889" lon="6.56081">
        <ele>1635.67</ele>
        <time>2012-01-25T09:45:20Z</time>
      </trkpt>
      <trkpt lat="45.66886" lon="6.56063">
        <ele>1635.156</ele>
        <time>2012-01-25T09:45:30Z</time>
      </trkpt>
      <trkpt lat="45.66884" lon="6.5605">
        <ele>1634.447</ele>
        <time>2012-01-25T09:45:40Z</time>
      </trkpt>
      <trkpt lat="45.66881" lon="6.56032">
        <ele>1634.824</ele>
        <time>2012-01-25T09:45:50Z</time>
      </trkpt>
      <trkpt lat="45.66883" lon="6.56016">
        <ele>1635.146</ele>
        <time>2012-01-25T09:46:00Z</time>
      </trkpt>
      <trkpt lat="45.66883" lon="6.56004">
        <ele>1636.742</ele>
        <time>2012-01-25T09:46:10Z</time>
      </trkpt>
      <trkpt lat="45.66885" lon="6.5599">
        <ele>1637.281</ele>
        <time>2012-01-25T09:46:20Z</time>
      </trkpt>
      <trkpt lat="45.66884" lon="6.55976">
        <ele>1638.298</ele>
        <time>2012-01-25T09:46:30Z</time>
      </trkpt>
      <trkpt lat="45.66884" lon="6.55961">
        <ele>1638.729</ele>
        <time>2012-01-25T09:46:40Z</time>
      </trkpt>
      <trkpt lat="45.66885" lon="6.55946">
        <ele>1639.732</ele>
        <time>2012-01-25T09:46:50Z</time>
      </trkpt>
      <trkpt lat="45.66883" lon="6.55929">
        <ele>1640.719</ele>
        <time>2012-01-25T09:47:00Z</time>
      </trkpt>
      <trkpt lat="45.66885" lon="6.5591">
        <ele>1641.951</ele>
        <time>2012-01-25T09:47:10Z</time>
      </trkpt>
      <trkpt lat="45.66884" lon="6.55898">
        <ele>1643.356</ele>
        <time>2012-01-25T09:47:20Z</time>
      </trkpt>
      <trkpt lat="45.66879" lon="6.559">
        <ele>1644.647</ele>
        <time>2012-01-25T09:47:30Z</time>
      </trkpt>
      <trkpt lat="45.66876" lon="6.55917">
        <ele>1645.528</ele>
        <time>2012-01-25T09:47:40Z</time>
      </trkpt>
      <trkpt lat="45.66872" lon="6.55926">
        <ele>1645.886</ele>
        <time>2012-01-25T09:47:50Z</time>
      </trkpt>
      <trkpt lat="45.66872" lon="6.55927">
        <ele>1645.863</ele>
        <time>2012-01-25T09:48:00Z</time>
      </trkpt>
      <trkpt lat="45.66872" lon="6.55926">
        <ele>1645.969</ele>
        <time>2012-01-25T09:48:10Z</time>
      </trkpt>
      <trkpt lat="45.66872" lon="6.55931">
        <ele>1646.033</ele>
        <time>2012-01-25T09:48:20Z</time>
      </trkpt>
      <trkpt lat="45.66873" lon="6.55932">
        <ele>1646.002</ele>
        <time>2012-01-25T09:48:30Z</time>
      </trkpt>
      <trkpt lat="45.66873" lon="6.55931">
        <ele>1646.084</ele>
        <time>2012-01-25T09:48:40Z</time>
      </trkpt>
      <trkpt lat="45.66873" lon="6.55931">
        <ele>1646.157</ele>
        <time>2012-01-25T09:48:50Z</time>
      </trkpt>
      <trkpt lat="45.66872" lon="6.55929">
        <ele>1645.868</ele>
        <time>2012-01-25T09:49:00Z</time>
      </trkpt>
      <trkpt lat="45.66873" lon="6.55931">
        <ele>1646.101</ele>
        <time>2012-01-25T09:49:10Z</time>
      </trkpt>
      <trkpt lat="45.66872" lon="6.55933">
        <ele>1646.17</ele>
        <time>2012-01-25T09:49:20Z</time>
      </trkpt>
      <trkpt lat="45.66872" lon="6.55936">
        <ele>1644.644</ele>
        <time>2012-01-25T09:49:30Z</time>
      </trkpt>
      <trkpt lat="45.66868" lon="6.55937">
        <ele>1646.657</ele>
        <time>2012-01-25T09:49:40Z</time>
      </trkpt>
      <trkpt lat="45.66858" lon="6.55937">
        <ele>1648.406</ele>
        <time>2012-01-25T09:49:50Z</time>
      </trkpt>
      <trkpt lat="45.6685" lon="6.55939">
        <ele>1649.482</ele>
        <time>2012-01-25T09:50:00Z</time>
      </trkpt>
      <trkpt lat="45.66843" lon="6.55942">
        <ele>1651.248</ele>
        <time>2012-01-25T09:50:10Z</time>
      </trkpt>
      <trkpt lat="45.66836" lon="6.55952">
        <ele>1652.637</ele>
        <time>2012-01-25T09:50:20Z</time>
      </trkpt>
      <trkpt lat="45.6683" lon="6.55961">
        <ele>1653.755</ele>
        <time>2012-01-25T09:50:30Z</time>
      </trkpt>
      <trkpt lat="45.66822" lon="6.55969">
        <ele>1654.786</ele>
        <time>2012-01-25T09:50:40Z</time>
      </trkpt>
      <trkpt lat="45.66818" lon="6.55981">
        <ele>1656.018</ele>
        <time>2012-01-25T09:50:50Z</time>
      </trkpt>
      <trkpt lat="45.6681" lon="6.55994">
        <ele>1657.448</ele>
        <time>2012-01-25T09:51:00Z</time>
      </trkpt>
      <trkpt lat="45.66806" lon="6.56009">
        <ele>1657.693</ele>
        <time>2012-01-25T09:51:10Z</time>
      </trkpt>
      <trkpt lat="45.66802" lon="6.56016">
        <ele>1658.313</ele>
        <time>2012-01-25T09:51:20Z</time>
      </trkpt>
      <trkpt lat="45.66802" lon="6.56015">
        <ele>1658.589</ele>
        <time>2012-01-25T09:51:30Z</time>
      </trkpt>
      <trkpt lat="45.66806" lon="6.56015">
        <ele>1657.929</ele>
        <time>2012-01-25T09:51:40Z</time>
      </trkpt>
      <trkpt lat="45.66818" lon="6.56013">
        <ele>1658.3</ele>
        <time>2012-01-25T09:51:50Z</time>
      </trkpt>
      <trkpt lat="45.66818" lon="6.56012">
        <ele>1658.414</ele>
        <time>2012-01-25T09:52:00Z</time>
      </trkpt>
      <trkpt lat="45.66819" lon="6.56014">
        <ele>1658.572</ele>
        <time>2012-01-25T09:52:10Z</time>
      </trkpt>
      <trkpt lat="45.66818" lon="6.56015">
        <ele>1658.822</ele>
        <time>2012-01-25T09:52:20Z</time>
      </trkpt>
      <trkpt lat="45.66813" lon="6.56018">
        <ele>1658.215</ele>
        <time>2012-01-25T09:52:30Z</time>
      </trkpt>
      <trkpt lat="45.66809" lon="6.5603">
        <ele>1658.289</ele>
        <time>2012-01-25T09:52:40Z</time>
      </trkpt>
      <trkpt lat="45.66807" lon="6.5604">
        <ele>1657.412</ele>
        <time>2012-01-25T09:52:50Z</time>
      </trkpt>
      <trkpt lat="45.66806" lon="6.56052">
        <ele>1657.458</ele>
        <time>2012-01-25T09:53:00Z</time>
      </trkpt>
      <trkpt lat="45.66798" lon="6.56062">
        <ele>1657.01</ele>
        <time>2012-01-25T09:53:10Z</time>
      </trkpt>
      <trkpt lat="45.66793" lon="6.56073">
        <ele>1656.431</ele>
        <time>2012-01-25T09:53:20Z</time>
      </trkpt>
      <trkpt lat="45.66792" lon="6.56086">
        <ele>1657.178</ele>
        <time>2012-01-25T09:53:30Z</time>
      </trkpt>
      <trkpt lat="45.66793" lon="6.56101">
        <ele>1657.605</ele>
        <time>2012-01-25T09:53:40Z</time>
      </trkpt>
      <trkpt lat="45.66797" lon="6.56115">
        <ele>1658.023</ele>
        <time>2012-01-25T09:53:50Z</time>
      </trkpt>
      <trkpt lat="45.66804" lon="6.56123">
        <ele>1659.541</ele>
        <time>2012-01-25T09:54:00Z</time>
      </trkpt>
      <trkpt lat="45.66809" lon="6.56133">
        <ele>1660.524</ele>
        <time>2012-01-25T09:54:10Z</time>
      </trkpt>
      <trkpt lat="45.66816" lon="6.56139">
        <ele>1661.546</ele>
        <time>2012-01-25T09:54:20Z</time>
      </trkpt>
      <trkpt lat="45.66819" lon="6.56148">
        <ele>1662.937</ele>
        <time>2012-01-25T09:54:30Z</time>
      </trkpt>
      <trkpt lat="45.6682" lon="6.56162">
        <ele>1663.625</ele>
        <time>2012-01-25T09:54:40Z</time>
      </trkpt>
      <trkpt lat="45.6682" lon="6.56173">
        <ele>1664.979</ele>
        <time>2012-01-25T09:54:50Z</time>
      </trkpt>
      <trkpt lat="45.66825" lon="6.56182">
        <ele>1664.5</ele>
        <time>2012-01-25T09:55:00Z</time>
      </trkpt>
      <trkpt lat="45.66835" lon="6.56189">
        <ele>1665.676</ele>
        <time>2012-01-25T09:55:10Z</time>
      </trkpt>
      <trkpt lat="45.66842" lon="6.562">
        <ele>1665.67</ele>
        <time>2012-01-25T09:55:20Z</time>
      </trkpt>
      <trkpt lat="45.66846" lon="6.56213">
        <ele>1666.663</ele>
        <time>2012-01-25T09:55:30Z</time>
      </trkpt>
      <trkpt lat="45.66849" lon="6.56228">
        <ele>1667.306</ele>
        <time>2012-01-25T09:55:40Z</time>
      </trkpt>
      <trkpt lat="45.6685" lon="6.56244">
        <ele>1667.855</ele>
        <time>2012-01-25T09:55:50Z</time>
      </trkpt>
      <trkpt lat="45.66852" lon="6.56255">
        <ele>1668.944</ele>
        <time>2012-01-25T09:56:00Z</time>
      </trkpt>
      <trkpt lat="45.66853" lon="6.56269">
        <ele>1669.578</ele>
        <time>2012-01-25T09:56:10Z</time>
      </trkpt>
      <trkpt lat="45.66855" lon="6.56282">
        <ele>1670.516</ele>
        <time>2012-01-25T09:56:20Z</time>
      </trkpt>
      <trkpt lat="45.66856" lon="6.56295">
        <ele>1671.622</ele>
        <time>2012-01-25T09:56:30Z</time>
      </trkpt>
      <trkpt lat="45.66855" lon="6.56306">
        <ele>1672.502</ele>
        <time>2012-01-25T09:56:40Z</time>
      </trkpt>
      <trkpt lat="45.66852" lon="6.56321">
        <ele>1673.181</ele>
        <time>2012-01-25T09:56:50Z</time>
      </trkpt>
      <trkpt lat="45.66849" lon="6.56338">
        <ele>1674.075</ele>
        <time>2012-01-25T09:57:00Z</time>
      </trkpt>
      <trkpt lat="45.66848" lon="6.56352">
        <ele>1675.241</ele>
        <time>2012-01-25T09:57:10Z</time>
      </trkpt>
      <trkpt lat="45.66849" lon="6.56366">
        <ele>1675.3</ele>
        <time>2012-01-25T09:57:20Z</time>
      </trkpt>
      <trkpt lat="45.66854" lon="6.56376">
        <ele>1676.229</ele>
        <time>2012-01-25T09:57:30Z</time>
      </trkpt>
      <trkpt lat="45.66864" lon="6.56381">
        <ele>1677.198</ele>
        <time>2012-01-25T09:57:40Z</time>
      </trkpt>
      <trkpt lat="45.6687" lon="6.56387">
        <ele>1678.341</ele>
        <time>2012-01-25T09:57:50Z</time>
      </trkpt>
      <trkpt lat="45.66873" lon="6.564">
        <ele>1679.5</ele>
        <time>2012-01-25T09:58:00Z</time>
      </trkpt>
      <trkpt lat="45.6688" lon="6.56411">
        <ele>1680.818</ele>
        <time>2012-01-25T09:58:10Z</time>
      </trkpt>
      <trkpt lat="45.66888" lon="6.56423">
        <ele>1682.117</ele>
        <time>2012-01-25T09:58:20Z</time>
      </trkpt>
      <trkpt lat="45.66899" lon="6.56433">
        <ele>1682.84</ele>
        <time>2012-01-25T09:58:30Z</time>
      </trkpt>
      <trkpt lat="45.66904" lon="6.56443">
        <ele>1684.274</ele>
        <time>2012-01-25T09:58:40Z</time>
      </trkpt>
      <trkpt lat="45.66903" lon="6.56443">
        <ele>1684.105</ele>
        <time>2012-01-25T09:58:50Z</time>
      </trkpt>
      <trkpt lat="45.66903" lon="6.56443">
        <ele>1683.834</ele>
        <time>2012-01-25T09:59:00Z</time>
      </trkpt>
      <trkpt lat="45.66904" lon="6.56443">
        <ele>1684.384</ele>
        <time>2012-01-25T09:59:10Z</time>
      </trkpt>
      <trkpt lat="45.66907" lon="6.56445">
        <ele>1684.508</ele>
        <time>2012-01-25T09:59:20Z</time>
      </trkpt>
      <trkpt lat="45.66907" lon="6.56446">
        <ele>1684.306</ele>
        <time>2012-01-25T09:59:30Z</time>
      </trkpt>
      <trkpt lat="45.66908" lon="6.56448">
        <ele>1684.314</ele>
        <time>2012-01-25T09:59:40Z</time>
      </trkpt>
      <trkpt lat="45.66908" lon="6.56448">
        <ele>1683.746</ele>
        <time>2012-01-25T09:59:50Z</time>
      </trkpt>
      <trkpt lat="45.66908" lon="6.56448">
        <ele>1684.317</ele>
        <time>2012-01-25T10:00:00Z</time>
      </trkpt>
      <trkpt lat="45.66909" lon="6.56448">
        <ele>1684.219</ele>
        <time>2012-01-25T10:00:10Z</time>
      </trkpt>
      <trkpt lat="45.66909" lon="6.56448">
        <ele>1684.009</ele>
        <time>2012-01-25T10:00:20Z</time>
      </trkpt>
      <trkpt lat="45.66909" lon="6.56448">
        <ele>1684.073</ele>
        <time>2012-01-25T10:00:30Z</time>
      </trkpt>
      <trkpt lat="45.66907" lon="6.56447">
        <ele>1684.011</ele>
        <time>2012-01-25T10:00:40Z</time>
      </trkpt>
      <trkpt lat="45.66906" lon="6.56447">
        <ele>1683.961</ele>
        <time>2012-01-25T10:00:50Z</time>
      </trkpt>
      <trkpt lat="45.66905" lon="6.56447">
        <ele>1684.238</ele>
        <time>2012-01-25T10:01:00Z</time>
      </trkpt>
      <trkpt lat="45.66906" lon="6.56448">
        <ele>1684</ele>
        <time>2012-01-25T10:01:10Z</time>
      </trkpt>
      <trkpt lat="45.66912" lon="6.56457">
        <ele>1685.157</ele>
        <time>2012-01-25T10:01:20Z</time>
      </trkpt>
      <trkpt lat="45.66924" lon="6.56464">
        <ele>1685.922</ele>
        <time>2012-01-25T10:01:30Z</time>
      </trkpt>
      <trkpt lat="45.6693" lon="6.56474">
        <ele>1685.758</ele>
        <time>2012-01-25T10:01:40Z</time>
      </trkpt>
      <trkpt lat="45.66937" lon="6.5648">
        <ele>1686.454</ele>
        <time>2012-01-25T10:01:50Z</time>
      </trkpt>
      <trkpt lat="45.66946" lon="6.56487">
        <ele>1687.423</ele>
        <time>2012-01-25T10:02:00Z</time>
      </trkpt>
      <trkpt lat="45.66956" lon="6.56494">
        <ele>1688.15</ele>
        <time>2012-01-25T10:02:10Z</time>
      </trkpt>
      <trkpt lat="45.66963" lon="6.56501">
        <ele>1688.149</ele>
        <time>2012-01-25T10:02:20Z</time>
      </trkpt>
      <trkpt lat="45.66969" lon="6.56506">
        <ele>1688.434</ele>
        <time>2012-01-25T10:02:30Z</time>
      </trkpt>
      <trkpt lat="45.66972" lon="6.56511">
        <ele>1688.391</ele>
        <time>2012-01-25T10:02:40Z</time>
      </trkpt>
      <trkpt lat="45.66981" lon="6.56518">
        <ele>1689.14</ele>
        <time>2012-01-25T10:02:50Z</time>
      </trkpt>
      <trkpt lat="45.66989" lon="6.56528">
        <ele>1689.294</ele>
        <time>2012-01-25T10:03:00Z</time>
      </trkpt>
      <trkpt lat="45.66996" lon="6.56535">
        <ele>1688.707</ele>
        <time>2012-01-25T10:03:10Z</time>
      </trkpt>
      <trkpt lat="45.67006" lon="6.56535">
        <ele>1688.858</ele>
        <time>2012-01-25T10:03:20Z</time>
      </trkpt>
      <trkpt lat="45.67014" lon="6.56542">
        <ele>1688.361</ele>
        <time>2012-01-25T10:03:30Z</time>
      </trkpt>
      <trkpt lat="45.6702" lon="6.56549">
        <ele>1688.399</ele>
        <time>2012-01-25T10:03:40Z</time>
      </trkpt>
      <trkpt lat="45.6702" lon="6.5655">
        <ele>1687.85</ele>
        <time>2012-01-25T10:03:50Z</time>
      </trkpt>
      <trkpt lat="45.6702" lon="6.5655">
        <ele>1687.97</ele>
        <time>2012-01-25T10:04:00Z</time>
      </trkpt>
      <trkpt lat="45.6702" lon="6.5655">
        <ele>1688.245</ele>
        <time>2012-01-25T10:04:10Z</time>
      </trkpt>
      <trkpt lat="45.6702" lon="6.5655">
        <ele>1688.163</ele>
        <time>2012-01-25T10:04:20Z</time>
      </trkpt>
      <trkpt lat="45.6702" lon="6.5655">
        <ele>1688.171</ele>
        <time>2012-01-25T10:04:30Z</time>
      </trkpt>
      <trkpt lat="45.6702" lon="6.5655">
        <ele>1688.167</ele>
        <time>2012-01-25T10:04:40Z</time>
      </trkpt>
      <trkpt lat="45.6702" lon="6.5655">
        <ele>1687.995</ele>
        <time>2012-01-25T10:04:50Z</time>
      </trkpt>
      <trkpt lat="45.6702" lon="6.5655">
        <ele>1688.391</ele>
        <time>2012-01-25T10:05:00Z</time>
      </trkpt>
      <trkpt lat="45.6702" lon="6.5655">
        <ele>1688.307</ele>
        <time>2012-01-25T10:05:10Z</time>
      </trkpt>
      <trkpt lat="45.67019" lon="6.5655">
        <ele>1687.859</ele>
        <time>2012-01-25T10:05:20Z</time>
      </trkpt>
      <trkpt lat="45.67019" lon="6.5655">
        <ele>1688.56</ele>
        <time>2012-01-25T10:05:30Z</time>
      </trkpt>
      <trkpt lat="45.67019" lon="6.5655">
        <ele>1688.159</ele>
        <time>2012-01-25T10:05:40Z</time>
      </trkpt>
      <trkpt lat="45.67019" lon="6.5655">
        <ele>1688.115</ele>
        <time>2012-01-25T10:05:50Z</time>
      </trkpt>
      <trkpt lat="45.67019" lon="6.5655">
        <ele>1688.087</ele>
        <time>2012-01-25T10:06:00Z</time>
      </trkpt>
      <trkpt lat="45.67019" lon="6.5655">
        <ele>1688.372</ele>
        <time>2012-01-25T10:06:10Z</time>
      </trkpt>
      <trkpt lat="45.67019" lon="6.5655">
        <ele>1688.195</ele>
        <time>2012-01-25T10:06:20Z</time>
      </trkpt>
      <trkpt lat="45.6702" lon="6.5655">
        <ele>1688.052</ele>
        <time>2012-01-25T10:06:30Z</time>
      </trkpt>
      <trkpt lat="45.6702" lon="6.5655">
        <ele>1688.419</ele>
        <time>2012-01-25T10:06:40Z</time>
      </trkpt>
      <trkpt lat="45.6702" lon="6.5655">
        <ele>1688.385</ele>
        <time>2012-01-25T10:06:50Z</time>
      </trkpt>
      <trkpt lat="45.6702" lon="6.5655">
        <ele>1688.517</ele>
        <time>2012-01-25T10:07:00Z</time>
      </trkpt>
      <trkpt lat="45.6702" lon="6.5655">
        <ele>1688.746</ele>
        <time>2012-01-25T10:07:10Z</time>
      </trkpt>
      <trkpt lat="45.6702" lon="6.5655">
        <ele>1688.562</ele>
        <time>2012-01-25T10:07:20Z</time>
      </trkpt>
      <trkpt lat="45.6702" lon="6.5655">
        <ele>1688.674</ele>
        <time>2012-01-25T10:07:30Z</time>
      </trkpt>
      <trkpt lat="45.6702" lon="6.5655">
        <ele>1688.778</ele>
        <time>2012-01-25T10:07:40Z</time>
      </trkpt>
      <trkpt lat="45.6702" lon="6.5655">
        <ele>1688.4</ele>
        <time>2012-01-25T10:07:50Z</time>
      </trkpt>
      <trkpt lat="45.67021" lon="6.5655">
        <ele>1688.474</ele>
        <time>2012-01-25T10:08:00Z</time>
      </trkpt>
      <trkpt lat="45.67021" lon="6.5655">
        <ele>1688.307</ele>
        <time>2012-01-25T10:08:10Z</time>
      </trkpt>
      <trkpt lat="45.67021" lon="6.5655">
        <ele>1688.624</ele>
        <time>2012-01-25T10:08:20Z</time>
      </trkpt>
      <trkpt lat="45.67021" lon="6.5655">
        <ele>1688.484</ele>
        <time>2012-01-25T10:08:30Z</time>
      </trkpt>
      <trkpt lat="45.67021" lon="6.5655">
        <ele>1688.265</ele>
        <time>2012-01-25T10:08:40Z</time>
      </trkpt>
      <trkpt lat="45.67021" lon="6.5655">
        <ele>1688.614</ele>
        <time>2012-01-25T10:08:50Z</time>
      </trkpt>
      <trkpt lat="45.67021" lon="6.5655">
        <ele>1688.526</ele>
        <time>2012-01-25T10:09:00Z</time>
      </trkpt>
      <trkpt lat="45.67018" lon="6.5655">
        <ele>1689.503</ele>
        <time>2012-01-25T10:09:10Z</time>
      </trkpt>
      <trkpt lat="45.67006" lon="6.56548">
        <ele>1691.5</ele>
        <time>2012-01-25T10:09:20Z</time>
      </trkpt>
      <trkpt lat="45.66996" lon="6.56546">
        <ele>1692.698</ele>
        <time>2012-01-25T10:09:30Z</time>
      </trkpt>
      <trkpt lat="45.66987" lon="6.56546">
        <ele>1693.229</ele>
        <time>2012-01-25T10:09:40Z</time>
      </trkpt>
      <trkpt lat="45.66976" lon="6.56544">
        <ele>1695.42</ele>
        <time>2012-01-25T10:09:50Z</time>
      </trkpt>
      <trkpt lat="45.66967" lon="6.56541">
        <ele>1696.165</ele>
        <time>2012-01-25T10:10:00Z</time>
      </trkpt>
      <trkpt lat="45.66958" lon="6.56539">
        <ele>1696.795</ele>
        <time>2012-01-25T10:10:10Z</time>
      </trkpt>
      <trkpt lat="45.6695" lon="6.56535">
        <ele>1697.133</ele>
        <time>2012-01-25T10:10:20Z</time>
      </trkpt>
      <trkpt lat="45.66945" lon="6.56527">
        <ele>1697.082</ele>
        <time>2012-01-25T10:10:30Z</time>
      </trkpt>
      <trkpt lat="45.66937" lon="6.5652">
        <ele>1697.121</ele>
        <time>2012-01-25T10:10:40Z</time>
      </trkpt>
      <trkpt lat="45.66931" lon="6.56516">
        <ele>1696.774</ele>
        <time>2012-01-25T10:10:50Z</time>
      </trkpt>
      <trkpt lat="45.66925" lon="6.56511">
        <ele>1696.145</ele>
        <time>2012-01-25T10:11:00Z</time>
      </trkpt>
      <trkpt lat="45.66915" lon="6.56504">
        <ele>1695.482</ele>
        <time>2012-01-25T10:11:10Z</time>
      </trkpt>
      <trkpt lat="45.66905" lon="6.56499">
        <ele>1695.037</ele>
        <time>2012-01-25T10:11:20Z</time>
      </trkpt>
      <trkpt lat="45.66897" lon="6.56493">
        <ele>1695.736</ele>
        <time>2012-01-25T10:11:30Z</time>
      </trkpt>
      <trkpt lat="45.66887" lon="6.56486">
        <ele>1696.023</ele>
        <time>2012-01-25T10:11:40Z</time>
      </trkpt>
      <trkpt lat="45.66878" lon="6.56478">
        <ele>1696.866</ele>
        <time>2012-01-25T10:11:50Z</time>
      </trkpt>
      <trkpt lat="45.6687" lon="6.56473">
        <ele>1698.141</ele>
        <time>2012-01-25T10:12:00Z</time>
      </trkpt>
      <trkpt lat="45.66861" lon="6.5647">
        <ele>1698.681</ele>
        <time>2012-01-25T10:12:10Z</time>
      </trkpt>
      <trkpt lat="45.66852" lon="6.56464">
        <ele>1699.961</ele>
        <time>2012-01-25T10:12:20Z</time>
      </trkpt>
      <trkpt lat="45.66841" lon="6.56461">
        <ele>1700.855</ele>
        <time>2012-01-25T10:12:30Z</time>
      </trkpt>
      <trkpt lat="45.66836" lon="6.5647">
        <ele>1701.606</ele>
        <time>2012-01-25T10:12:40Z</time>
      </trkpt>
      <trkpt lat="45.6684" lon="6.5648">
        <ele>1703.224</ele>
        <time>2012-01-25T10:12:50Z</time>
      </trkpt>
      <trkpt lat="45.66848" lon="6.56488">
        <ele>1703.693</ele>
        <time>2012-01-25T10:13:00Z</time>
      </trkpt>
      <trkpt lat="45.66856" lon="6.56495">
        <ele>1703.007</ele>
        <time>2012-01-25T10:13:10Z</time>
      </trkpt>
      <trkpt lat="45.66865" lon="6.56503">
        <ele>1702.215</ele>
        <time>2012-01-25T10:13:20Z</time>
      </trkpt>
      <trkpt lat="45.66874" lon="6.56514">
        <ele>1702.242</ele>
        <time>2012-01-25T10:13:30Z</time>
      </trkpt>
      <trkpt lat="45.66884" lon="6.56521">
        <ele>1703.071</ele>
        <time>2012-01-25T10:13:40Z</time>
      </trkpt>
      <trkpt lat="45.66894" lon="6.56528">
        <ele>1704.168</ele>
        <time>2012-01-25T10:13:50Z</time>
      </trkpt>
      <trkpt lat="45.66905" lon="6.56535">
        <ele>1704.143</ele>
        <time>2012-01-25T10:14:00Z</time>
      </trkpt>
      <trkpt lat="45.6691" lon="6.56545">
        <ele>1704.463</ele>
        <time>2012-01-25T10:14:10Z</time>
      </trkpt>
      <trkpt lat="45.66919" lon="6.56553">
        <ele>1705.861</ele>
        <time>2012-01-25T10:14:20Z</time>
      </trkpt>
      <trkpt lat="45.66921" lon="6.56556">
        <ele>1705.486</ele>
        <time>2012-01-25T10:14:30Z</time>
      </trkpt>
      <trkpt lat="45.66921" lon="6.56556">
        <ele>1704.911</ele>
        <time>2012-01-25T10:14:40Z</time>
      </trkpt>
      <trkpt lat="45.66921" lon="6.56556">
        <ele>1705.171</ele>
        <time>2012-01-25T10:14:50Z</time>
      </trkpt>
      <trkpt lat="45.66921" lon="6.56556">
        <ele>1706.066</ele>
        <time>2012-01-25T10:15:00Z</time>
      </trkpt>
      <trkpt lat="45.66929" lon="6.56566">
        <ele>1706.289</ele>
        <time>2012-01-25T10:15:10Z</time>
      </trkpt>
      <trkpt lat="45.66936" lon="6.56578">
        <ele>1706.705</ele>
        <time>2012-01-25T10:15:20Z</time>
      </trkpt>
      <trkpt lat="45.66943" lon="6.56584">
        <ele>1706.205</ele>
        <time>2012-01-25T10:15:30Z</time>
      </trkpt>
      <trkpt lat="45.66947" lon="6.56586">
        <ele>1706.164</ele>
        <time>2012-01-25T10:15:40Z</time>
      </trkpt>
      <trkpt lat="45.66948" lon="6.56585">
        <ele>1706.086</ele>
        <time>2012-01-25T10:15:50Z</time>
      </trkpt>
      <trkpt lat="45.66948" lon="6.56586">
        <ele>1706.39</ele>
        <time>2012-01-25T10:16:00Z</time>
      </trkpt>
      <trkpt lat="45.66949" lon="6.56586">
        <ele>1706.186</ele>
        <time>2012-01-25T10:16:10Z</time>
      </trkpt>
      <trkpt lat="45.66949" lon="6.56586">
        <ele>1706.016</ele>
        <time>2012-01-25T10:16:20Z</time>
      </trkpt>
      <trkpt lat="45.66949" lon="6.56586">
        <ele>1706.319</ele>
        <time>2012-01-25T10:16:30Z</time>
      </trkpt>
      <trkpt lat="45.66949" lon="6.56586">
        <ele>1706.597</ele>
        <time>2012-01-25T10:16:40Z</time>
      </trkpt>
      <trkpt lat="45.66949" lon="6.56586">
        <ele>1706.591</ele>
        <time>2012-01-25T10:16:50Z</time>
      </trkpt>
      <trkpt lat="45.66949" lon="6.56586">
        <ele>1706.369</ele>
        <time>2012-01-25T10:17:00Z</time>
      </trkpt>
      <trkpt lat="45.66949" lon="6.56586">
        <ele>1706.165</ele>
        <time>2012-01-25T10:17:10Z</time>
      </trkpt>
      <trkpt lat="45.66949" lon="6.56586">
        <ele>1706.038</ele>
        <time>2012-01-25T10:17:20Z</time>
      </trkpt>
      <trkpt lat="45.66949" lon="6.56586">
        <ele>1706.567</ele>
        <time>2012-01-25T10:17:30Z</time>
      </trkpt>
      <trkpt lat="45.66949" lon="6.56586">
        <ele>1706.406</ele>
        <time>2012-01-25T10:17:40Z</time>
      </trkpt>
      <trkpt lat="45.66949" lon="6.56587">
        <ele>1706.8</ele>
        <time>2012-01-25T10:17:50Z</time>
      </trkpt>
      <trkpt lat="45.66953" lon="6.56597">
        <ele>1706.558</ele>
        <time>2012-01-25T10:18:00Z</time>
      </trkpt>
      <trkpt lat="45.66952" lon="6.56601">
        <ele>1706.008</ele>
        <time>2012-01-25T10:18:10Z</time>
      </trkpt>
      <trkpt lat="45.66953" lon="6.56606">
        <ele>1706.314</ele>
        <time>2012-01-25T10:18:20Z</time>
      </trkpt>
      <trkpt lat="45.66961" lon="6.56617">
        <ele>1706.532</ele>
        <time>2012-01-25T10:18:30Z</time>
      </trkpt>
      <trkpt lat="45.66964" lon="6.56627">
        <ele>1706.449</ele>
        <time>2012-01-25T10:18:40Z</time>
      </trkpt>
      <trkpt lat="45.66967" lon="6.56636">
        <ele>1706.479</ele>
        <time>2012-01-25T10:18:50Z</time>
      </trkpt>
      <trkpt lat="45.66968" lon="6.56643">
        <ele>1705.877</ele>
        <time>2012-01-25T10:19:00Z</time>
      </trkpt>
      <trkpt lat="45.66966" lon="6.56653">
        <ele>1705.992</ele>
        <time>2012-01-25T10:19:10Z</time>
      </trkpt>
      <trkpt lat="45.66961" lon="6.56662">
        <ele>1705.943</ele>
        <time>2012-01-25T10:19:20Z</time>
      </trkpt>
      <trkpt lat="45.66955" lon="6.56673">
        <ele>1705.885</ele>
        <time>2012-01-25T10:19:30Z</time>
      </trkpt>
      <trkpt lat="45.6695" lon="6.56682">
        <ele>1705.68</ele>
        <time>2012-01-25T10:19:40Z</time>
      </trkpt>
      <trkpt lat="45.66944" lon="6.56689">
        <ele>1705.432</ele>
        <time>2012-01-25T10:19:50Z</time>
      </trkpt>
      <trkpt lat="45.66933" lon="6.56695">
        <ele>1704.189</ele>
        <time>2012-01-25T10:20:00Z</time>
      </trkpt>
      <trkpt lat="45.66923" lon="6.56695">
        <ele>1704.909</ele>
        <time>2012-01-25T10:20:10Z</time>
      </trkpt>
      <trkpt lat="45.66912" lon="6.56694">
        <ele>1705.73</ele>
        <time>2012-01-25T10:20:20Z</time>
      </trkpt>
      <trkpt lat="45.66905" lon="6.56689">
        <ele>1707.858</ele>
        <time>2012-01-25T10:20:30Z</time>
      </trkpt>
      <trkpt lat="45.66897" lon="6.56683">
        <ele>1709.498</ele>
        <time>2012-01-25T10:20:40Z</time>
      </trkpt>
      <trkpt lat="45.6689" lon="6.56675">
        <ele>1710.972</ele>
        <time>2012-01-25T10:20:50Z</time>
      </trkpt>
      <trkpt lat="45.66884" lon="6.56668">
        <ele>1711.373</ele>
        <time>2012-01-25T10:21:00Z</time>
      </trkpt>
      <trkpt lat="45.66881" lon="6.56665">
        <ele>1711.362</ele>
        <time>2012-01-25T10:21:10Z</time>
      </trkpt>
      <trkpt lat="45.6688" lon="6.56664">
        <ele>1711.412</ele>
        <time>2012-01-25T10:21:20Z</time>
      </trkpt>
      <trkpt lat="45.6688" lon="6.56664">
        <ele>1711.405</ele>
        <time>2012-01-25T10:21:30Z</time>
      </trkpt>
      <trkpt lat="45.66874" lon="6.5666">
        <ele>1711.767</ele>
        <time>2012-01-25T10:21:40Z</time>
      </trkpt>
      <trkpt lat="45.66871" lon="6.56652">
        <ele>1712.479</ele>
        <time>2012-01-25T10:21:50Z</time>
      </trkpt>
      <trkpt lat="45.66869" lon="6.56634">
        <ele>1712.486</ele>
        <time>2012-01-25T10:22:00Z</time>
      </trkpt>
      <trkpt lat="45.6687" lon="6.56626">
        <ele>1712.288</ele>
        <time>2012-01-25T10:22:10Z</time>
      </trkpt>
      <trkpt lat="45.66872" lon="6.56609">
        <ele>1712.545</ele>
        <time>2012-01-25T10:22:20Z</time>
      </trkpt>
      <trkpt lat="45.66871" lon="6.56594">
        <ele>1711.001</ele>
        <time>2012-01-25T10:22:30Z</time>
      </trkpt>
      <trkpt lat="45.66871" lon="6.56579">
        <ele>1710.182</ele>
        <time>2012-01-25T10:22:40Z</time>
      </trkpt>
      <trkpt lat="45.66874" lon="6.56565">
        <ele>1709.274</ele>
        <time>2012-01-25T10:22:50Z</time>
      </trkpt>
      <trkpt lat="45.66875" lon="6.56564">
        <ele>1708.634</ele>
        <time>2012-01-25T10:23:00Z</time>
      </trkpt>
      <trkpt lat="45.66876" lon="6.56564">
        <ele>1708.193</ele>
        <time>2012-01-25T10:23:10Z</time>
      </trkpt>
      <trkpt lat="45.66876" lon="6.56562">
        <ele>1708.661</ele>
        <time>2012-01-25T10:23:20Z</time>
      </trkpt>
      <trkpt lat="45.66876" lon="6.56561">
        <ele>1708.521</ele>
        <time>2012-01-25T10:23:30Z</time>
      </trkpt>
      <trkpt lat="45.66877" lon="6.56562">
        <ele>1708.382</ele>
        <time>2012-01-25T10:23:40Z</time>
      </trkpt>
      <trkpt lat="45.66877" lon="6.56562">
        <ele>1708.523</ele>
        <time>2012-01-25T10:23:50Z</time>
      </trkpt>
      <trkpt lat="45.66877" lon="6.56563">
        <ele>1708.54</ele>
        <time>2012-01-25T10:24:00Z</time>
      </trkpt>
      <trkpt lat="45.66879" lon="6.56574">
        <ele>1708.148</ele>
        <time>2012-01-25T10:24:10Z</time>
      </trkpt>
      <trkpt lat="45.66879" lon="6.56587">
        <ele>1709.224</ele>
        <time>2012-01-25T10:24:20Z</time>
      </trkpt>
      <trkpt lat="45.66877" lon="6.56605">
        <ele>1710.924</ele>
        <time>2012-01-25T10:24:30Z</time>
      </trkpt>
      <trkpt lat="45.66876" lon="6.56624">
        <ele>1711.794</ele>
        <time>2012-01-25T10:24:40Z</time>
      </trkpt>
      <trkpt lat="45.66874" lon="6.56637">
        <ele>1712.219</ele>
        <time>2012-01-25T10:24:50Z</time>
      </trkpt>
      <trkpt lat="45.66877" lon="6.56642">
        <ele>1711.643</ele>
        <time>2012-01-25T10:25:00Z</time>
      </trkpt>
      <trkpt lat="45.66877" lon="6.56642">
        <ele>1711.707</ele>
        <time>2012-01-25T10:25:10Z</time>
      </trkpt>
      <trkpt lat="45.66876" lon="6.56643">
        <ele>1711.651</ele>
        <time>2012-01-25T10:25:20Z</time>
      </trkpt>
      <trkpt lat="45.66876" lon="6.56644">
        <ele>1711.537</ele>
        <time>2012-01-25T10:25:30Z</time>
      </trkpt>
      <trkpt lat="45.66876" lon="6.56644">
        <ele>1711.484</ele>
        <time>2012-01-25T10:25:40Z</time>
      </trkpt>
      <trkpt lat="45.66876" lon="6.56645">
        <ele>1711.39</ele>
        <time>2012-01-25T10:25:50Z</time>
      </trkpt>
      <trkpt lat="45.66876" lon="6.56645">
        <ele>1711.376</ele>
        <time>2012-01-25T10:26:00Z</time>
      </trkpt>
      <trkpt lat="45.66876" lon="6.56645">
        <ele>1711.443</ele>
        <time>2012-01-25T10:26:10Z</time>
      </trkpt>
      <trkpt lat="45.66876" lon="6.56645">
        <ele>1711.499</ele>
        <time>2012-01-25T10:26:20Z</time>
      </trkpt>
      <trkpt lat="45.66876" lon="6.56645">
        <ele>1711.008</ele>
        <time>2012-01-25T10:26:30Z</time>
      </trkpt>
      <trkpt lat="45.66876" lon="6.56645">
        <ele>1711.908</ele>
        <time>2012-01-25T10:26:40Z</time>
      </trkpt>
      <trkpt lat="45.66876" lon="6.56644">
        <ele>1711.412</ele>
        <time>2012-01-25T10:26:50Z</time>
      </trkpt>
      <trkpt lat="45.66875" lon="6.56644">
        <ele>1711.407</ele>
        <time>2012-01-25T10:27:00Z</time>
      </trkpt>
      <trkpt lat="45.66875" lon="6.56646">
        <ele>1711.207</ele>
        <time>2012-01-25T10:27:10Z</time>
      </trkpt>
      <trkpt lat="45.66874" lon="6.56644">
        <ele>1711.187</ele>
        <time>2012-01-25T10:27:20Z</time>
      </trkpt>
      <trkpt lat="45.66874" lon="6.56646">
        <ele>1711.213</ele>
        <time>2012-01-25T10:27:30Z</time>
      </trkpt>
      <trkpt lat="45.66874" lon="6.56647">
        <ele>1711.134</ele>
        <time>2012-01-25T10:27:40Z</time>
      </trkpt>
      <trkpt lat="45.66874" lon="6.56647">
        <ele>1710.693</ele>
        <time>2012-01-25T10:27:50Z</time>
      </trkpt>
      <trkpt lat="45.66875" lon="6.56648">
        <ele>1711.076</ele>
        <time>2012-01-25T10:28:00Z</time>
      </trkpt>
      <trkpt lat="45.66876" lon="6.56648">
        <ele>1710.859</ele>
        <time>2012-01-25T10:28:10Z</time>
      </trkpt>
      <trkpt lat="45.66876" lon="6.56647">
        <ele>1710.676</ele>
        <time>2012-01-25T10:28:20Z</time>
      </trkpt>
      <trkpt lat="45.66876" lon="6.56647">
        <ele>1710.825</ele>
        <time>2012-01-25T10:28:30Z</time>
      </trkpt>
      <trkpt lat="45.66876" lon="6.56647">
        <ele>1710.793</ele>
        <time>2012-01-25T10:28:40Z</time>
      </trkpt>
      <trkpt lat="45.66875" lon="6.56647">
        <ele>1710.894</ele>
        <time>2012-01-25T10:28:50Z</time>
      </trkpt>
      <trkpt lat="45.66874" lon="6.56646">
        <ele>1711.054</ele>
        <time>2012-01-25T10:29:00Z</time>
      </trkpt>
      <trkpt lat="45.66874" lon="6.56645">
        <ele>1710.457</ele>
        <time>2012-01-25T10:29:10Z</time>
      </trkpt>
      <trkpt lat="45.66875" lon="6.56644">
        <ele>1710.899</ele>
        <time>2012-01-25T10:29:20Z</time>
      </trkpt>
      <trkpt lat="45.66875" lon="6.56643">
        <ele>1710.702</ele>
        <time>2012-01-25T10:29:30Z</time>
      </trkpt>
      <trkpt lat="45.66875" lon="6.56643">
        <ele>1710.469</ele>
        <time>2012-01-25T10:29:40Z</time>
      </trkpt>
      <trkpt lat="45.66876" lon="6.56642">
        <ele>1710.172</ele>
        <time>2012-01-25T10:29:50Z</time>
      </trkpt>
      <trkpt lat="45.66876" lon="6.56642">
        <ele>1710.43</ele>
        <time>2012-01-25T10:30:00Z</time>
      </trkpt>
      <trkpt lat="45.66876" lon="6.56642">
        <ele>1710.06</ele>
        <time>2012-01-25T10:30:10Z</time>
      </trkpt>
      <trkpt lat="45.66876" lon="6.56642">
        <ele>1710.604</ele>
        <time>2012-01-25T10:30:20Z</time>
      </trkpt>
      <trkpt lat="45.66876" lon="6.56642">
        <ele>1709.936</ele>
        <time>2012-01-25T10:30:30Z</time>
      </trkpt>
      <trkpt lat="45.66876" lon="6.56642">
        <ele>1709.928</ele>
        <time>2012-01-25T10:30:40Z</time>
      </trkpt>
      <trkpt lat="45.66876" lon="6.56642">
        <ele>1710.264</ele>
        <time>2012-01-25T10:30:50Z</time>
      </trkpt>
      <trkpt lat="45.66876" lon="6.56642">
        <ele>1710.118</ele>
        <time>2012-01-25T10:31:00Z</time>
      </trkpt>
      <trkpt lat="45.66876" lon="6.56643">
        <ele>1710.596</ele>
        <time>2012-01-25T10:31:10Z</time>
      </trkpt>
      <trkpt lat="45.66876" lon="6.56643">
        <ele>1710.293</ele>
        <time>2012-01-25T10:31:20Z</time>
      </trkpt>
      <trkpt lat="45.66875" lon="6.56643">
        <ele>1710.454</ele>
        <time>2012-01-25T10:31:30Z</time>
      </trkpt>
      <trkpt lat="45.66876" lon="6.56643">
        <ele>1710.221</ele>
        <time>2012-01-25T10:31:40Z</time>
      </trkpt>
      <trkpt lat="45.66876" lon="6.56643">
        <ele>1709.991</ele>
        <time>2012-01-25T10:31:50Z</time>
      </trkpt>
      <trkpt lat="45.66876" lon="6.56643">
        <ele>1709.915</ele>
        <time>2012-01-25T10:32:00Z</time>
      </trkpt>
      <trkpt lat="45.66876" lon="6.56643">
        <ele>1709.854</ele>
        <time>2012-01-25T10:32:10Z</time>
      </trkpt>
      <trkpt lat="45.66876" lon="6.56643">
        <ele>1710.247</ele>
        <time>2012-01-25T10:32:20Z</time>
      </trkpt>
      <trkpt lat="45.66876" lon="6.56643">
        <ele>1710.094</ele>
        <time>2012-01-25T10:32:30Z</time>
      </trkpt>
      <trkpt lat="45.66876" lon="6.56643">
        <ele>1709.681</ele>
        <time>2012-01-25T10:32:40Z</time>
      </trkpt>
      <trkpt lat="45.66876" lon="6.56643">
        <ele>1709.811</ele>
        <time>2012-01-25T10:32:50Z</time>
      </trkpt>
      <trkpt lat="45.66876" lon="6.56643">
        <ele>1709.499</ele>
        <time>2012-01-25T10:33:00Z</time>
      </trkpt>
      <trkpt lat="45.66876" lon="6.56643">
        <ele>1710.098</ele>
        <time>2012-01-25T10:33:10Z</time>
      </trkpt>
      <trkpt lat="45.66876" lon="6.56643">
        <ele>1709.571</ele>
        <time>2012-01-25T10:33:20Z</time>
      </trkpt>
      <trkpt lat="45.66876" lon="6.56643">
        <ele>1709.771</ele>
        <time>2012-01-25T10:33:30Z</time>
      </trkpt>
      <trkpt lat="45.66876" lon="6.56643">
        <ele>1709.744</ele>
        <time>2012-01-25T10:33:40Z</time>
      </trkpt>
      <trkpt lat="45.66876" lon="6.56643">
        <ele>1709.407</ele>
        <time>2012-01-25T10:33:50Z</time>
      </trkpt>
      <trkpt lat="45.66876" lon="6.56643">
        <ele>1709.366</ele>
        <time>2012-01-25T10:34:00Z</time>
      </trkpt>
      <trkpt lat="45.66876" lon="6.56643">
        <ele>1709.551</ele>
        <time>2012-01-25T10:34:10Z</time>
      </trkpt>
      <trkpt lat="45.66876" lon="6.56643">
        <ele>1709.107</ele>
        <time>2012-01-25T10:34:20Z</time>
      </trkpt>
      <trkpt lat="45.66876" lon="6.56643">
        <ele>1708.977</ele>
        <time>2012-01-25T10:34:30Z</time>
      </trkpt>
      <trkpt lat="45.66876" lon="6.56643">
        <ele>1708.875</ele>
        <time>2012-01-25T10:34:40Z</time>
      </trkpt>
      <trkpt lat="45.66876" lon="6.56643">
        <ele>1709.171</ele>
        <time>2012-01-25T10:34:50Z</time>
      </trkpt>
      <trkpt lat="45.66876" lon="6.56643">
        <ele>1708.926</ele>
        <time>2012-01-25T10:35:00Z</time>
      </trkpt>
      <trkpt lat="45.66876" lon="6.56643">
        <ele>1709.074</ele>
        <time>2012-01-25T10:35:10Z</time>
      </trkpt>
      <trkpt lat="45.66876" lon="6.56643">
        <ele>1708.781</ele>
        <time>2012-01-25T10:35:20Z</time>
      </trkpt>
      <trkpt lat="45.66876" lon="6.56643">
        <ele>1708.361</ele>
        <time>2012-01-25T10:35:30Z</time>
      </trkpt>
      <trkpt lat="45.66876" lon="6.56643">
        <ele>1708.934</ele>
        <time>2012-01-25T10:35:40Z</time>
      </trkpt>
      <trkpt lat="45.66876" lon="6.56643">
        <ele>1708.29</ele>
        <time>2012-01-25T10:35:50Z</time>
      </trkpt>
      <trkpt lat="45.66876" lon="6.56643">
        <ele>1708.148</ele>
        <time>2012-01-25T10:36:00Z</time>
      </trkpt>
      <trkpt lat="45.66876" lon="6.56643">
        <ele>1708.84</ele>
        <time>2012-01-25T10:36:10Z</time>
      </trkpt>
      <trkpt lat="45.66876" lon="6.56643">
        <ele>1708.443</ele>
        <time>2012-01-25T10:36:20Z</time>
      </trkpt>
      <trkpt lat="45.66876" lon="6.56643">
        <ele>1708.401</ele>
        <time>2012-01-25T10:36:30Z</time>
      </trkpt>
      <trkpt lat="45.66876" lon="6.56643">
        <ele>1708.571</ele>
        <time>2012-01-25T10:36:40Z</time>
      </trkpt>
      <trkpt lat="45.66876" lon="6.56643">
        <ele>1708.093</ele>
        <time>2012-01-25T10:36:50Z</time>
      </trkpt>
      <trkpt lat="45.66876" lon="6.56643">
        <ele>1708.639</ele>
        <time>2012-01-25T10:37:00Z</time>
      </trkpt>
      <trkpt lat="45.66876" lon="6.56643">
        <ele>1708.041</ele>
        <time>2012-01-25T10:37:10Z</time>
      </trkpt>
      <trkpt lat="45.66876" lon="6.56643">
        <ele>1708.273</ele>
        <time>2012-01-25T10:37:20Z</time>
      </trkpt>
      <trkpt lat="45.66876" lon="6.56643">
        <ele>1708.174</ele>
        <time>2012-01-25T10:37:30Z</time>
      </trkpt>
      <trkpt lat="45.66876" lon="6.56643">
        <ele>1708.414</ele>
        <time>2012-01-25T10:37:40Z</time>
      </trkpt>
      <trkpt lat="45.66876" lon="6.56643">
        <ele>1708.324</ele>
        <time>2012-01-25T10:37:50Z</time>
      </trkpt>
      <trkpt lat="45.66876" lon="6.56643">
        <ele>1707.971</ele>
        <time>2012-01-25T10:38:00Z</time>
      </trkpt>
      <trkpt lat="45.66876" lon="6.56643">
        <ele>1708.296</ele>
        <time>2012-01-25T10:38:10Z</time>
      </trkpt>
      <trkpt lat="45.66876" lon="6.56643">
        <ele>1708.438</ele>
        <time>2012-01-25T10:38:20Z</time>
      </trkpt>
      <trkpt lat="45.66876" lon="6.56643">
        <ele>1708.181</ele>
        <time>2012-01-25T10:38:30Z</time>
      </trkpt>
      <trkpt lat="45.66876" lon="6.56643">
        <ele>1708.063</ele>
        <time>2012-01-25T10:38:40Z</time>
      </trkpt>
      <trkpt lat="45.66876" lon="6.56643">
        <ele>1708.108</ele>
        <time>2012-01-25T10:38:50Z</time>
      </trkpt>
      <trkpt lat="45.66876" lon="6.56643">
        <ele>1708.379</ele>
        <time>2012-01-25T10:39:00Z</time>
      </trkpt>
      <trkpt lat="45.66876" lon="6.56643">
        <ele>1708.387</ele>
        <time>2012-01-25T10:39:10Z</time>
      </trkpt>
      <trkpt lat="45.66876" lon="6.56644">
        <ele>1708.158</ele>
        <time>2012-01-25T10:39:20Z</time>
      </trkpt>
      <trkpt lat="45.66876" lon="6.56644">
        <ele>1708.114</ele>
        <time>2012-01-25T10:39:30Z</time>
      </trkpt>
      <trkpt lat="45.66876" lon="6.56644">
        <ele>1708.37</ele>
        <time>2012-01-25T10:39:40Z</time>
      </trkpt>
      <trkpt lat="45.66876" lon="6.56644">
        <ele>1707.905</ele>
        <time>2012-01-25T10:39:50Z</time>
      </trkpt>
      <trkpt lat="45.66876" lon="6.56644">
        <ele>1707.763</ele>
        <time>2012-01-25T10:40:00Z</time>
      </trkpt>
      <trkpt lat="45.66876" lon="6.56644">
        <ele>1707.853</ele>
        <time>2012-01-25T10:40:10Z</time>
      </trkpt>
      <trkpt lat="45.66876" lon="6.56644">
        <ele>1707.83</ele>
        <time>2012-01-25T10:40:20Z</time>
      </trkpt>
      <trkpt lat="45.66876" lon="6.56644">
        <ele>1707.732</ele>
        <time>2012-01-25T10:40:30Z</time>
      </trkpt>
      <trkpt lat="45.66876" lon="6.56644">
        <ele>1707.543</ele>
        <time>2012-01-25T10:40:40Z</time>
      </trkpt>
      <trkpt lat="45.66876" lon="6.56644">
        <ele>1708.116</ele>
        <time>2012-01-25T10:40:50Z</time>
      </trkpt>
      <trkpt lat="45.66876" lon="6.56644">
        <ele>1707.659</ele>
        <time>2012-01-25T10:41:00Z</time>
      </trkpt>
      <trkpt lat="45.66876" lon="6.56644">
        <ele>1708.114</ele>
        <time>2012-01-25T10:41:10Z</time>
      </trkpt>
      <trkpt lat="45.66876" lon="6.56644">
        <ele>1707.616</ele>
        <time>2012-01-25T10:41:20Z</time>
      </trkpt>
      <trkpt lat="45.66876" lon="6.56644">
        <ele>1707.427</ele>
        <time>2012-01-25T10:41:30Z</time>
      </trkpt>
      <trkpt lat="45.66876" lon="6.56644">
        <ele>1707.839</ele>
        <time>2012-01-25T10:41:40Z</time>
      </trkpt>
      <trkpt lat="45.66876" lon="6.56644">
        <ele>1707.962</ele>
        <time>2012-01-25T10:41:50Z</time>
      </trkpt>
      <trkpt lat="45.66876" lon="6.56644">
        <ele>1707.914</ele>
        <time>2012-01-25T10:42:00Z</time>
      </trkpt>
      <trkpt lat="45.66876" lon="6.56644">
        <ele>1707.861</ele>
        <time>2012-01-25T10:42:10Z</time>
      </trkpt>
      <trkpt lat="45.66876" lon="6.56644">
        <ele>1707.575</ele>
        <time>2012-01-25T10:42:20Z</time>
      </trkpt>
      <trkpt lat="45.66876" lon="6.56644">
        <ele>1707.868</ele>
        <time>2012-01-25T10:42:30Z</time>
      </trkpt>
      <trkpt lat="45.66876" lon="6.56644">
        <ele>1708.003</ele>
        <time>2012-01-25T10:42:40Z</time>
      </trkpt>
      <trkpt lat="45.66876" lon="6.56644">
        <ele>1707.987</ele>
        <time>2012-01-25T10:42:50Z</time>
      </trkpt>
      <trkpt lat="45.66876" lon="6.56644">
        <ele>1707.628</ele>
        <time>2012-01-25T10:43:00Z</time>
      </trkpt>
      <trkpt lat="45.66875" lon="6.56644">
        <ele>1707.995</ele>
        <time>2012-01-25T10:43:10Z</time>
      </trkpt>
      <trkpt lat="45.66874" lon="6.56643">
        <ele>1707.916</ele>
        <time>2012-01-25T10:43:20Z</time>
      </trkpt>
      <trkpt lat="45.66873" lon="6.56642">
        <ele>1708.075</ele>
        <time>2012-01-25T10:43:30Z</time>
      </trkpt>
      <trkpt lat="45.66874" lon="6.56643">
        <ele>1707.708</ele>
        <time>2012-01-25T10:43:40Z</time>
      </trkpt>
      <trkpt lat="45.66874" lon="6.56643">
        <ele>1708.033</ele>
        <time>2012-01-25T10:43:50Z</time>
      </trkpt>
      <trkpt lat="45.66875" lon="6.56643">
        <ele>1707.995</ele>
        <time>2012-01-25T10:44:00Z</time>
      </trkpt>
      <trkpt lat="45.66875" lon="6.56643">
        <ele>1707.789</ele>
        <time>2012-01-25T10:44:10Z</time>
      </trkpt>
      <trkpt lat="45.66875" lon="6.56643">
        <ele>1707.612</ele>
        <time>2012-01-25T10:44:20Z</time>
      </trkpt>
      <trkpt lat="45.66875" lon="6.56643">
        <ele>1707.916</ele>
        <time>2012-01-25T10:44:30Z</time>
      </trkpt>
      <trkpt lat="45.66875" lon="6.56644">
        <ele>1708.611</ele>
        <time>2012-01-25T10:44:40Z</time>
      </trkpt>
      <trkpt lat="45.66875" lon="6.56644">
        <ele>1707.863</ele>
        <time>2012-01-25T10:44:50Z</time>
      </trkpt>
      <trkpt lat="45.66875" lon="6.56644">
        <ele>1707.782</ele>
        <time>2012-01-25T10:45:00Z</time>
      </trkpt>
      <trkpt lat="45.66875" lon="6.56644">
        <ele>1707.774</ele>
        <time>2012-01-25T10:45:10Z</time>
      </trkpt>
      <trkpt lat="45.66875" lon="6.56644">
        <ele>1708.022</ele>
        <time>2012-01-25T10:45:20Z</time>
      </trkpt>
      <trkpt lat="45.66875" lon="6.56644">
        <ele>1707.969</ele>
        <time>2012-01-25T10:45:30Z</time>
      </trkpt>
      <trkpt lat="45.66875" lon="6.56644">
        <ele>1708.12</ele>
        <time>2012-01-25T10:45:40Z</time>
      </trkpt>
      <trkpt lat="45.66875" lon="6.56644">
        <ele>1708.133</ele>
        <time>2012-01-25T10:45:50Z</time>
      </trkpt>
      <trkpt lat="45.66875" lon="6.56644">
        <ele>1708.035</ele>
        <time>2012-01-25T10:46:00Z</time>
      </trkpt>
      <trkpt lat="45.66875" lon="6.56644">
        <ele>1708.268</ele>
        <time>2012-01-25T10:46:10Z</time>
      </trkpt>
      <trkpt lat="45.66875" lon="6.56644">
        <ele>1707.927</ele>
        <time>2012-01-25T10:46:20Z</time>
      </trkpt>
      <trkpt lat="45.66875" lon="6.56644">
        <ele>1708.561</ele>
        <time>2012-01-25T10:46:30Z</time>
      </trkpt>
      <trkpt lat="45.66875" lon="6.56644">
        <ele>1707.945</ele>
        <time>2012-01-25T10:46:40Z</time>
      </trkpt>
      <trkpt lat="45.66875" lon="6.56644">
        <ele>1708.252</ele>
        <time>2012-01-25T10:46:50Z</time>
      </trkpt>
      <trkpt lat="45.66875" lon="6.56644">
        <ele>1708.395</ele>
        <time>2012-01-25T10:47:00Z</time>
      </trkpt>
      <trkpt lat="45.66875" lon="6.56644">
        <ele>1708.074</ele>
        <time>2012-01-25T10:47:10Z</time>
      </trkpt>
      <trkpt lat="45.66875" lon="6.56644">
        <ele>1708.01</ele>
        <time>2012-01-25T10:47:20Z</time>
      </trkpt>
      <trkpt lat="45.66875" lon="6.56644">
        <ele>1707.921</ele>
        <time>2012-01-25T10:47:30Z</time>
      </trkpt>
      <trkpt lat="45.66875" lon="6.56644">
        <ele>1708.267</ele>
        <time>2012-01-25T10:47:40Z</time>
      </trkpt>
      <trkpt lat="45.66875" lon="6.56644">
        <ele>1708.044</ele>
        <time>2012-01-25T10:47:50Z</time>
      </trkpt>
      <trkpt lat="45.66875" lon="6.56644">
        <ele>1707.842</ele>
        <time>2012-01-25T10:48:00Z</time>
      </trkpt>
      <trkpt lat="45.66875" lon="6.56644">
        <ele>1708.275</ele>
        <time>2012-01-25T10:48:10Z</time>
      </trkpt>
      <trkpt lat="45.66875" lon="6.56644">
        <ele>1708.092</ele>
        <time>2012-01-25T10:48:20Z</time>
      </trkpt>
      <trkpt lat="45.66875" lon="6.56644">
        <ele>1707.649</ele>
        <time>2012-01-25T10:48:30Z</time>
      </trkpt>
      <trkpt lat="45.66875" lon="6.56644">
        <ele>1707.969</ele>
        <time>2012-01-25T10:48:40Z</time>
      </trkpt>
      <trkpt lat="45.66875" lon="6.56644">
        <ele>1707.826</ele>
        <time>2012-01-25T10:48:50Z</time>
      </trkpt>
      <trkpt lat="45.66875" lon="6.56644">
        <ele>1707.731</ele>
        <time>2012-01-25T10:49:00Z</time>
      </trkpt>
      <trkpt lat="45.66876" lon="6.56644">
        <ele>1707.734</ele>
        <time>2012-01-25T10:49:10Z</time>
      </trkpt>
      <trkpt lat="45.66876" lon="6.56644">
        <ele>1707.768</ele>
        <time>2012-01-25T10:49:20Z</time>
      </trkpt>
      <trkpt lat="45.66875" lon="6.56644">
        <ele>1707.887</ele>
        <time>2012-01-25T10:49:30Z</time>
      </trkpt>
      <trkpt lat="45.66875" lon="6.56644">
        <ele>1708.157</ele>
        <time>2012-01-25T10:49:40Z</time>
      </trkpt>
      <trkpt lat="45.66875" lon="6.56645">
        <ele>1708.02</ele>
        <time>2012-01-25T10:49:50Z</time>
      </trkpt>
      <trkpt lat="45.66875" lon="6.56645">
        <ele>1707.917</ele>
        <time>2012-01-25T10:50:00Z</time>
      </trkpt>
      <trkpt lat="45.66875" lon="6.56645">
        <ele>1707.874</ele>
        <time>2012-01-25T10:50:10Z</time>
      </trkpt>
      <trkpt lat="45.66875" lon="6.56645">
        <ele>1707.721</ele>
        <time>2012-01-25T10:50:20Z</time>
      </trkpt>
      <trkpt lat="45.66875" lon="6.56645">
        <ele>1707.68</ele>
        <time>2012-01-25T10:50:30Z</time>
      </trkpt>
      <trkpt lat="45.66875" lon="6.56645">
        <ele>1708.13</ele>
        <time>2012-01-25T10:50:40Z</time>
      </trkpt>
      <trkpt lat="45.66875" lon="6.56645">
        <ele>1707.842</ele>
        <time>2012-01-25T10:50:50Z</time>
      </trkpt>
      <trkpt lat="45.66875" lon="6.56645">
        <ele>1708.199</ele>
        <time>2012-01-25T10:51:00Z</time>
      </trkpt>
      <trkpt lat="45.66875" lon="6.56645">
        <ele>1708.652</ele>
        <time>2012-01-25T10:51:10Z</time>
      </trkpt>
      <trkpt lat="45.66875" lon="6.56645">
        <ele>1707.914</ele>
        <time>2012-01-25T10:51:20Z</time>
      </trkpt>
      <trkpt lat="45.66875" lon="6.56645">
        <ele>1707.897</ele>
        <time>2012-01-25T10:51:30Z</time>
      </trkpt>
      <trkpt lat="45.66875" lon="6.56645">
        <ele>1707.893</ele>
        <time>2012-01-25T10:51:40Z</time>
      </trkpt>
      <trkpt lat="45.66875" lon="6.56645">
        <ele>1707.754</ele>
        <time>2012-01-25T10:51:50Z</time>
      </trkpt>
      <trkpt lat="45.66876" lon="6.56645">
        <ele>1707.592</ele>
        <time>2012-01-25T10:52:00Z</time>
      </trkpt>
      <trkpt lat="45.66876" lon="6.56645">
        <ele>1707.747</ele>
        <time>2012-01-25T10:52:10Z</time>
      </trkpt>
      <trkpt lat="45.66876" lon="6.56645">
        <ele>1707.728</ele>
        <time>2012-01-25T10:52:20Z</time>
      </trkpt>
      <trkpt lat="45.66876" lon="6.56645">
        <ele>1707.666</ele>
        <time>2012-01-25T10:52:30Z</time>
      </trkpt>
      <trkpt lat="45.66876" lon="6.56645">
        <ele>1707.608</ele>
        <time>2012-01-25T10:52:40Z</time>
      </trkpt>
      <trkpt lat="45.66876" lon="6.56645">
        <ele>1707.44</ele>
        <time>2012-01-25T10:52:50Z</time>
      </trkpt>
      <trkpt lat="45.66876" lon="6.56645">
        <ele>1707.845</ele>
        <time>2012-01-25T10:53:00Z</time>
      </trkpt>
      <trkpt lat="45.66876" lon="6.56645">
        <ele>1707.809</ele>
        <time>2012-01-25T10:53:10Z</time>
      </trkpt>
      <trkpt lat="45.66876" lon="6.56645">
        <ele>1707.411</ele>
        <time>2012-01-25T10:53:20Z</time>
      </trkpt>
      <trkpt lat="45.66876" lon="6.56645">
        <ele>1707.664</ele>
        <time>2012-01-25T10:53:30Z</time>
      </trkpt>
      <trkpt lat="45.66876" lon="6.56645">
        <ele>1707.365</ele>
        <time>2012-01-25T10:53:40Z</time>
      </trkpt>
      <trkpt lat="45.66876" lon="6.56645">
        <ele>1707.701</ele>
        <time>2012-01-25T10:53:50Z</time>
      </trkpt>
      <trkpt lat="45.66876" lon="6.56645">
        <ele>1707.793</ele>
        <time>2012-01-25T10:54:00Z</time>
      </trkpt>
      <trkpt lat="45.66876" lon="6.56645">
        <ele>1708.332</ele>
        <time>2012-01-25T10:54:10Z</time>
      </trkpt>
      <trkpt lat="45.66876" lon="6.56645">
        <ele>1707.754</ele>
        <time>2012-01-25T10:54:20Z</time>
      </trkpt>
      <trkpt lat="45.66876" lon="6.56645">
        <ele>1708.295</ele>
        <time>2012-01-25T10:54:30Z</time>
      </trkpt>
      <trkpt lat="45.66876" lon="6.56645">
        <ele>1708.077</ele>
        <time>2012-01-25T10:54:40Z</time>
      </trkpt>
      <trkpt lat="45.66876" lon="6.56645">
        <ele>1707.812</ele>
        <time>2012-01-25T10:54:50Z</time>
      </trkpt>
      <trkpt lat="45.66876" lon="6.56645">
        <ele>1708.488</ele>
        <time>2012-01-25T10:55:00Z</time>
      </trkpt>
      <trkpt lat="45.66876" lon="6.56645">
        <ele>1708.244</ele>
        <time>2012-01-25T10:55:10Z</time>
      </trkpt>
      <trkpt lat="45.66876" lon="6.56645">
        <ele>1708.448</ele>
        <time>2012-01-25T10:55:20Z</time>
      </trkpt>
      <trkpt lat="45.66876" lon="6.56645">
        <ele>1708.163</ele>
        <time>2012-01-25T10:55:30Z</time>
      </trkpt>
      <trkpt lat="45.66876" lon="6.56645">
        <ele>1708.32</ele>
        <time>2012-01-25T10:55:40Z</time>
      </trkpt>
      <trkpt lat="45.66876" lon="6.56645">
        <ele>1707.534</ele>
        <time>2012-01-25T10:55:50Z</time>
      </trkpt>
      <trkpt lat="45.66876" lon="6.56645">
        <ele>1708.525</ele>
        <time>2012-01-25T10:56:00Z</time>
      </trkpt>
      <trkpt lat="45.66876" lon="6.56645">
        <ele>1707.902</ele>
        <time>2012-01-25T10:56:10Z</time>
      </trkpt>
      <trkpt lat="45.66876" lon="6.56645">
        <ele>1708.265</ele>
        <time>2012-01-25T10:56:20Z</time>
      </trkpt>
      <trkpt lat="45.66876" lon="6.56645">
        <ele>1708.496</ele>
        <time>2012-01-25T10:56:30Z</time>
      </trkpt>
      <trkpt lat="45.66876" lon="6.56645">
        <ele>1708.533</ele>
        <time>2012-01-25T10:56:40Z</time>
      </trkpt>
      <trkpt lat="45.66876" lon="6.56645">
        <ele>1708.452</ele>
        <time>2012-01-25T10:56:50Z</time>
      </trkpt>
      <trkpt lat="45.66876" lon="6.56645">
        <ele>1708.578</ele>
        <time>2012-01-25T10:57:00Z</time>
      </trkpt>
      <trkpt lat="45.66876" lon="6.56645">
        <ele>1708.234</ele>
        <time>2012-01-25T10:57:10Z</time>
      </trkpt>
      <trkpt lat="45.66876" lon="6.56645">
        <ele>1708.152</ele>
        <time>2012-01-25T10:57:20Z</time>
      </trkpt>
      <trkpt lat="45.66876" lon="6.56645">
        <ele>1708.712</ele>
        <time>2012-01-25T10:57:30Z</time>
      </trkpt>
      <trkpt lat="45.66876" lon="6.56645">
        <ele>1708.292</ele>
        <time>2012-01-25T10:57:40Z</time>
      </trkpt>
      <trkpt lat="45.66876" lon="6.56645">
        <ele>1708.661</ele>
        <time>2012-01-25T10:57:50Z</time>
      </trkpt>
      <trkpt lat="45.66876" lon="6.56645">
        <ele>1708.507</ele>
        <time>2012-01-25T10:58:00Z</time>
      </trkpt>
      <trkpt lat="45.66876" lon="6.56645">
        <ele>1708.586</ele>
        <time>2012-01-25T10:58:10Z</time>
      </trkpt>
      <trkpt lat="45.66876" lon="6.56645">
        <ele>1708.34</ele>
        <time>2012-01-25T10:58:20Z</time>
      </trkpt>
      <trkpt lat="45.66876" lon="6.56645">
        <ele>1708.597</ele>
        <time>2012-01-25T10:58:30Z</time>
      </trkpt>
      <trkpt lat="45.66876" lon="6.56645">
        <ele>1708.605</ele>
        <time>2012-01-25T10:58:40Z</time>
      </trkpt>
      <trkpt lat="45.66876" lon="6.56645">
        <ele>1709.128</ele>
        <time>2012-01-25T10:58:50Z</time>
      </trkpt>
      <trkpt lat="45.66876" lon="6.56645">
        <ele>1708.639</ele>
        <time>2012-01-25T10:59:00Z</time>
      </trkpt>
      <trkpt lat="45.66876" lon="6.56645">
        <ele>1708.877</ele>
        <time>2012-01-25T10:59:10Z</time>
      </trkpt>
      <trkpt lat="45.66876" lon="6.56645">
        <ele>1709.057</ele>
        <time>2012-01-25T10:59:20Z</time>
      </trkpt>
      <trkpt lat="45.66876" lon="6.56645">
        <ele>1708.786</ele>
        <time>2012-01-25T10:59:30Z</time>
      </trkpt>
      <trkpt lat="45.66876" lon="6.56645">
        <ele>1709.062</ele>
        <time>2012-01-25T10:59:40Z</time>
      </trkpt>
      <trkpt lat="45.66876" lon="6.56645">
        <ele>1708.958</ele>
        <time>2012-01-25T10:59:50Z</time>
      </trkpt>
      <trkpt lat="45.66876" lon="6.56645">
        <ele>1709.088</ele>
        <time>2012-01-25T11:00:00Z</time>
      </trkpt>
      <trkpt lat="45.66877" lon="6.56645">
        <ele>1708.869</ele>
        <time>2012-01-25T11:00:10Z</time>
      </trkpt>
      <trkpt lat="45.66877" lon="6.56645">
        <ele>1708.215</ele>
        <time>2012-01-25T11:00:20Z</time>
      </trkpt>
      <trkpt lat="45.66877" lon="6.56645">
        <ele>1708.854</ele>
        <time>2012-01-25T11:00:30Z</time>
      </trkpt>
      <trkpt lat="45.66877" lon="6.56645">
        <ele>1708.97</ele>
        <time>2012-01-25T11:00:40Z</time>
      </trkpt>
      <trkpt lat="45.66877" lon="6.56645">
        <ele>1708.948</ele>
        <time>2012-01-25T11:00:50Z</time>
      </trkpt>
      <trkpt lat="45.66877" lon="6.56645">
        <ele>1708.582</ele>
        <time>2012-01-25T11:01:00Z</time>
      </trkpt>
      <trkpt lat="45.66877" lon="6.56645">
        <ele>1708.399</ele>
        <time>2012-01-25T11:01:10Z</time>
      </trkpt>
      <trkpt lat="45.66877" lon="6.56645">
        <ele>1708.538</ele>
        <time>2012-01-25T11:01:20Z</time>
      </trkpt>
      <trkpt lat="45.66877" lon="6.56645">
        <ele>1708.908</ele>
        <time>2012-01-25T11:01:30Z</time>
      </trkpt>
      <trkpt lat="45.66877" lon="6.56645">
        <ele>1709.061</ele>
        <time>2012-01-25T11:01:40Z</time>
      </trkpt>
      <trkpt lat="45.66877" lon="6.56645">
        <ele>1708.75</ele>
        <time>2012-01-25T11:01:50Z</time>
      </trkpt>
      <trkpt lat="45.66877" lon="6.56645">
        <ele>1708.483</ele>
        <time>2012-01-25T11:02:00Z</time>
      </trkpt>
      <trkpt lat="45.66877" lon="6.56645">
        <ele>1708.875</ele>
        <time>2012-01-25T11:02:10Z</time>
      </trkpt>
      <trkpt lat="45.66877" lon="6.56645">
        <ele>1708.807</ele>
        <time>2012-01-25T11:02:20Z</time>
      </trkpt>
      <trkpt lat="45.66877" lon="6.56645">
        <ele>1708.71</ele>
        <time>2012-01-25T11:02:30Z</time>
      </trkpt>
      <trkpt lat="45.66877" lon="6.56645">
        <ele>1709.069</ele>
        <time>2012-01-25T11:02:40Z</time>
      </trkpt>
      <trkpt lat="45.66877" lon="6.56645">
        <ele>1709.064</ele>
        <time>2012-01-25T11:02:50Z</time>
      </trkpt>
      <trkpt lat="45.66877" lon="6.56645">
        <ele>1708.861</ele>
        <time>2012-01-25T11:03:00Z</time>
      </trkpt>
      <trkpt lat="45.66877" lon="6.56645">
        <ele>1708.842</ele>
        <time>2012-01-25T11:03:10Z</time>
      </trkpt>
      <trkpt lat="45.66877" lon="6.56645">
        <ele>1709.306</ele>
        <time>2012-01-25T11:03:20Z</time>
      </trkpt>
      <trkpt lat="45.66877" lon="6.56645">
        <ele>1708.702</ele>
        <time>2012-01-25T11:03:30Z</time>
      </trkpt>
      <trkpt lat="45.66877" lon="6.56645">
        <ele>1708.929</ele>
        <time>2012-01-25T11:03:40Z</time>
      </trkpt>
      <trkpt lat="45.66877" lon="6.56645">
        <ele>1708.891</ele>
        <time>2012-01-25T11:03:50Z</time>
      </trkpt>
      <trkpt lat="45.66877" lon="6.56645">
        <ele>1709.034</ele>
        <time>2012-01-25T11:04:00Z</time>
      </trkpt>
      <trkpt lat="45.66877" lon="6.56645">
        <ele>1708.932</ele>
        <time>2012-01-25T11:04:10Z</time>
      </trkpt>
      <trkpt lat="45.66877" lon="6.56645">
        <ele>1709.119</ele>
        <time>2012-01-25T11:04:20Z</time>
      </trkpt>
      <trkpt lat="45.66877" lon="6.56645">
        <ele>1709.11</ele>
        <time>2012-01-25T11:04:30Z</time>
      </trkpt>
      <trkpt lat="45.66877" lon="6.56645">
        <ele>1708.593</ele>
        <time>2012-01-25T11:04:40Z</time>
      </trkpt>
      <trkpt lat="45.66877" lon="6.56645">
        <ele>1708.799</ele>
        <time>2012-01-25T11:04:50Z</time>
      </trkpt>
      <trkpt lat="45.66877" lon="6.56645">
        <ele>1708.683</ele>
        <time>2012-01-25T11:05:00Z</time>
      </trkpt>
      <trkpt lat="45.66877" lon="6.56646">
        <ele>1709.034</ele>
        <time>2012-01-25T11:05:10Z</time>
      </trkpt>
      <trkpt lat="45.66876" lon="6.56647">
        <ele>1708.963</ele>
        <time>2012-01-25T11:05:20Z</time>
      </trkpt>
      <trkpt lat="45.66876" lon="6.56648">
        <ele>1708.781</ele>
        <time>2012-01-25T11:05:30Z</time>
      </trkpt>
      <trkpt lat="45.66875" lon="6.56648">
        <ele>1708.775</ele>
        <time>2012-01-25T11:05:40Z</time>
      </trkpt>
      <trkpt lat="45.66875" lon="6.56648">
        <ele>1709.077</ele>
        <time>2012-01-25T11:05:50Z</time>
      </trkpt>
      <trkpt lat="45.66875" lon="6.56648">
        <ele>1709.058</ele>
        <time>2012-01-25T11:06:00Z</time>
      </trkpt>
      <trkpt lat="45.66875" lon="6.56647">
        <ele>1708.59</ele>
        <time>2012-01-25T11:06:10Z</time>
      </trkpt>
      <trkpt lat="45.66875" lon="6.56647">
        <ele>1708.9</ele>
        <time>2012-01-25T11:06:20Z</time>
      </trkpt>
      <trkpt lat="45.66875" lon="6.56647">
        <ele>1708.94</ele>
        <time>2012-01-25T11:06:30Z</time>
      </trkpt>
      <trkpt lat="45.66875" lon="6.56647">
        <ele>1708.779</ele>
        <time>2012-01-25T11:06:40Z</time>
      </trkpt>
      <trkpt lat="45.66875" lon="6.56648">
        <ele>1708.488</ele>
        <time>2012-01-25T11:06:50Z</time>
      </trkpt>
      <trkpt lat="45.66875" lon="6.56648">
        <ele>1708.421</ele>
        <time>2012-01-25T11:07:00Z</time>
      </trkpt>
      <trkpt lat="45.66876" lon="6.56647">
        <ele>1708.573</ele>
        <time>2012-01-25T11:07:10Z</time>
      </trkpt>
      <trkpt lat="45.66876" lon="6.56647">
        <ele>1708.575</ele>
        <time>2012-01-25T11:07:20Z</time>
      </trkpt>
      <trkpt lat="45.66876" lon="6.56647">
        <ele>1708.641</ele>
        <time>2012-01-25T11:07:30Z</time>
      </trkpt>
      <trkpt lat="45.66876" lon="6.56647">
        <ele>1708.417</ele>
        <time>2012-01-25T11:07:40Z</time>
      </trkpt>
      <trkpt lat="45.66876" lon="6.56647">
        <ele>1708.784</ele>
        <time>2012-01-25T11:07:50Z</time>
      </trkpt>
      <trkpt lat="45.66876" lon="6.56647">
        <ele>1708.43</ele>
        <time>2012-01-25T11:08:00Z</time>
      </trkpt>
      <trkpt lat="45.66876" lon="6.56647">
        <ele>1709.027</ele>
        <time>2012-01-25T11:08:10Z</time>
      </trkpt>
      <trkpt lat="45.66876" lon="6.56647">
        <ele>1709.062</ele>
        <time>2012-01-25T11:08:20Z</time>
      </trkpt>
      <trkpt lat="45.66876" lon="6.56647">
        <ele>1708.617</ele>
        <time>2012-01-25T11:08:30Z</time>
      </trkpt>
      <trkpt lat="45.66876" lon="6.56647">
        <ele>1709.099</ele>
        <time>2012-01-25T11:08:40Z</time>
      </trkpt>
      <trkpt lat="45.66876" lon="6.56647">
        <ele>1709.011</ele>
        <time>2012-01-25T11:08:50Z</time>
      </trkpt>
      <trkpt lat="45.66876" lon="6.56647">
        <ele>1708.545</ele>
        <time>2012-01-25T11:09:00Z</time>
      </trkpt>
      <trkpt lat="45.66876" lon="6.56646">
        <ele>1708.695</ele>
        <time>2012-01-25T11:09:10Z</time>
      </trkpt>
      <trkpt lat="45.66876" lon="6.56646">
        <ele>1708.83</ele>
        <time>2012-01-25T11:09:20Z</time>
      </trkpt>
      <trkpt lat="45.66876" lon="6.56646">
        <ele>1708.682</ele>
        <time>2012-01-25T11:09:30Z</time>
      </trkpt>
      <trkpt lat="45.66876" lon="6.56646">
        <ele>1708.827</ele>
        <time>2012-01-25T11:09:40Z</time>
      </trkpt>
      <trkpt lat="45.66876" lon="6.56646">
        <ele>1708.568</ele>
        <time>2012-01-25T11:09:50Z</time>
      </trkpt>
      <trkpt lat="45.66876" lon="6.56646">
        <ele>1708.912</ele>
        <time>2012-01-25T11:10:00Z</time>
      </trkpt>
      <trkpt lat="45.66876" lon="6.56646">
        <ele>1708.835</ele>
        <time>2012-01-25T11:10:10Z</time>
      </trkpt>
      <trkpt lat="45.66876" lon="6.56646">
        <ele>1708.5</ele>
        <time>2012-01-25T11:10:20Z</time>
      </trkpt>
      <trkpt lat="45.66876" lon="6.56646">
        <ele>1708.7</ele>
        <time>2012-01-25T11:10:30Z</time>
      </trkpt>
      <trkpt lat="45.66876" lon="6.56646">
        <ele>1708.626</ele>
        <time>2012-01-25T11:10:40Z</time>
      </trkpt>
      <trkpt lat="45.66876" lon="6.56646">
        <ele>1708.707</ele>
        <time>2012-01-25T11:10:50Z</time>
      </trkpt>
      <trkpt lat="45.66876" lon="6.56646">
        <ele>1708.943</ele>
        <time>2012-01-25T11:11:00Z</time>
      </trkpt>
      <trkpt lat="45.66876" lon="6.56646">
        <ele>1708.836</ele>
        <time>2012-01-25T11:11:10Z</time>
      </trkpt>
      <trkpt lat="45.66876" lon="6.56646">
        <ele>1708.767</ele>
        <time>2012-01-25T11:11:20Z</time>
      </trkpt>
      <trkpt lat="45.66876" lon="6.56646">
        <ele>1709.276</ele>
        <time>2012-01-25T11:11:30Z</time>
      </trkpt>
      <trkpt lat="45.66876" lon="6.56646">
        <ele>1709.061</ele>
        <time>2012-01-25T11:11:40Z</time>
      </trkpt>
      <trkpt lat="45.66876" lon="6.56646">
        <ele>1709.405</ele>
        <time>2012-01-25T11:11:50Z</time>
      </trkpt>
      <trkpt lat="45.66876" lon="6.56646">
        <ele>1709.061</ele>
        <time>2012-01-25T11:12:00Z</time>
      </trkpt>
      <trkpt lat="45.66876" lon="6.56646">
        <ele>1709.211</ele>
        <time>2012-01-25T11:12:10Z</time>
      </trkpt>
      <trkpt lat="45.66876" lon="6.56646">
        <ele>1708.987</ele>
        <time>2012-01-25T11:12:20Z</time>
      </trkpt>
      <trkpt lat="45.66876" lon="6.56646">
        <ele>1709.006</ele>
        <time>2012-01-25T11:12:30Z</time>
      </trkpt>
      <trkpt lat="45.66876" lon="6.56646">
        <ele>1708.898</ele>
        <time>2012-01-25T11:12:40Z</time>
      </trkpt>
      <trkpt lat="45.66876" lon="6.56646">
        <ele>1709.34</ele>
        <time>2012-01-25T11:12:50Z</time>
      </trkpt>
      <trkpt lat="45.66876" lon="6.56646">
        <ele>1708.918</ele>
        <time>2012-01-25T11:13:00Z</time>
      </trkpt>
      <trkpt lat="45.66876" lon="6.56646">
        <ele>1708.726</ele>
        <time>2012-01-25T11:13:10Z</time>
      </trkpt>
      <trkpt lat="45.66876" lon="6.56646">
        <ele>1708.942</ele>
        <time>2012-01-25T11:13:20Z</time>
      </trkpt>
      <trkpt lat="45.66876" lon="6.56646">
        <ele>1708.787</ele>
        <time>2012-01-25T11:13:30Z</time>
      </trkpt>
      <trkpt lat="45.66876" lon="6.56646">
        <ele>1708.9</ele>
        <time>2012-01-25T11:13:40Z</time>
      </trkpt>
      <trkpt lat="45.66876" lon="6.56646">
        <ele>1708.936</ele>
        <time>2012-01-25T11:13:50Z</time>
      </trkpt>
      <trkpt lat="45.66876" lon="6.56646">
        <ele>1708.837</ele>
        <time>2012-01-25T11:14:00Z</time>
      </trkpt>
      <trkpt lat="45.66876" lon="6.56646">
        <ele>1708.806</ele>
        <time>2012-01-25T11:14:10Z</time>
      </trkpt>
      <trkpt lat="45.66876" lon="6.56646">
        <ele>1708.613</ele>
        <time>2012-01-25T11:14:20Z</time>
      </trkpt>
      <trkpt lat="45.66876" lon="6.56646">
        <ele>1708.32</ele>
        <time>2012-01-25T11:14:30Z</time>
      </trkpt>
      <trkpt lat="45.66876" lon="6.56646">
        <ele>1708.085</ele>
        <time>2012-01-25T11:14:40Z</time>
      </trkpt>
      <trkpt lat="45.66876" lon="6.56646">
        <ele>1709.233</ele>
        <time>2012-01-25T11:14:50Z</time>
      </trkpt>
      <trkpt lat="45.66876" lon="6.56646">
        <ele>1708.48</ele>
        <time>2012-01-25T11:15:00Z</time>
      </trkpt>
      <trkpt lat="45.66876" lon="6.56645">
        <ele>1709.146</ele>
        <time>2012-01-25T11:15:10Z</time>
      </trkpt>
      <trkpt lat="45.66876" lon="6.56645">
        <ele>1707.846</ele>
        <time>2012-01-25T11:15:20Z</time>
      </trkpt>
      <trkpt lat="45.66876" lon="6.56645">
        <ele>1708.556</ele>
        <time>2012-01-25T11:15:30Z</time>
      </trkpt>
      <trkpt lat="45.66876" lon="6.56645">
        <ele>1708.154</ele>
        <time>2012-01-25T11:15:40Z</time>
      </trkpt>
      <trkpt lat="45.66876" lon="6.56645">
        <ele>1707.671</ele>
        <time>2012-01-25T11:15:50Z</time>
      </trkpt>
      <trkpt lat="45.66876" lon="6.56645">
        <ele>1707.794</ele>
        <time>2012-01-25T11:16:00Z</time>
      </trkpt>
      <trkpt lat="45.66876" lon="6.56644">
        <ele>1706.998</ele>
        <time>2012-01-25T11:16:10Z</time>
      </trkpt>
      <trkpt lat="45.66876" lon="6.56644">
        <ele>1708.602</ele>
        <time>2012-01-25T11:16:20Z</time>
      </trkpt>
      <trkpt lat="45.66876" lon="6.56645">
        <ele>1707.655</ele>
        <time>2012-01-25T11:16:30Z</time>
      </trkpt>
      <trkpt lat="45.66876" lon="6.56645">
        <ele>1708.342</ele>
        <time>2012-01-25T11:16:40Z</time>
      </trkpt>
      <trkpt lat="45.66876" lon="6.56645">
        <ele>1708.197</ele>
        <time>2012-01-25T11:16:50Z</time>
      </trkpt>
      <trkpt lat="45.66876" lon="6.56645">
        <ele>1708.306</ele>
        <time>2012-01-25T11:17:00Z</time>
      </trkpt>
      <trkpt lat="45.66876" lon="6.56644">
        <ele>1708.596</ele>
        <time>2012-01-25T11:17:10Z</time>
      </trkpt>
      <trkpt lat="45.66876" lon="6.56644">
        <ele>1708.201</ele>
        <time>2012-01-25T11:17:20Z</time>
      </trkpt>
      <trkpt lat="45.66876" lon="6.56644">
        <ele>1706.99</ele>
        <time>2012-01-25T11:17:30Z</time>
      </trkpt>
      <trkpt lat="45.66876" lon="6.56645">
        <ele>1708.359</ele>
        <time>2012-01-25T11:17:40Z</time>
      </trkpt>
      <trkpt lat="45.66876" lon="6.56645">
        <ele>1708.228</ele>
        <time>2012-01-25T11:17:50Z</time>
      </trkpt>
      <trkpt lat="45.66876" lon="6.56645">
        <ele>1708.258</ele>
        <time>2012-01-25T11:18:00Z</time>
      </trkpt>
      <trkpt lat="45.66876" lon="6.56645">
        <ele>1709.01</ele>
        <time>2012-01-25T11:18:10Z</time>
      </trkpt>
      <trkpt lat="45.66876" lon="6.56645">
        <ele>1708.606</ele>
        <time>2012-01-25T11:18:20Z</time>
      </trkpt>
      <trkpt lat="45.66876" lon="6.56645">
        <ele>1708.381</ele>
        <time>2012-01-25T11:18:30Z</time>
      </trkpt>
      <trkpt lat="45.66876" lon="6.56645">
        <ele>1708.113</ele>
        <time>2012-01-25T11:18:40Z</time>
      </trkpt>
      <trkpt lat="45.66876" lon="6.56645">
        <ele>1708.164</ele>
        <time>2012-01-25T11:18:50Z</time>
      </trkpt>
      <trkpt lat="45.66876" lon="6.56645">
        <ele>1708.279</ele>
        <time>2012-01-25T11:19:00Z</time>
      </trkpt>
      <trkpt lat="45.66876" lon="6.56645">
        <ele>1708.938</ele>
        <time>2012-01-25T11:19:10Z</time>
      </trkpt>
      <trkpt lat="45.66876" lon="6.56645">
        <ele>1707.821</ele>
        <time>2012-01-25T11:19:20Z</time>
      </trkpt>
      <trkpt lat="45.66876" lon="6.56645">
        <ele>1707.34</ele>
        <time>2012-01-25T11:19:30Z</time>
      </trkpt>
      <trkpt lat="45.66876" lon="6.56645">
        <ele>1708.169</ele>
        <time>2012-01-25T11:19:40Z</time>
      </trkpt>
      <trkpt lat="45.66876" lon="6.56645">
        <ele>1708.011</ele>
        <time>2012-01-25T11:19:50Z</time>
      </trkpt>
      <trkpt lat="45.66874" lon="6.56643">
        <ele>1707.705</ele>
        <time>2012-01-25T11:20:00Z</time>
      </trkpt>
      <trkpt lat="45.66873" lon="6.5664">
        <ele>1705.328</ele>
        <time>2012-01-25T11:20:10Z</time>
      </trkpt>
      <trkpt lat="45.66873" lon="6.56638">
        <ele>1707.988</ele>
        <time>2012-01-25T11:20:20Z</time>
      </trkpt>
      <trkpt lat="45.66873" lon="6.56639">
        <ele>1708.146</ele>
        <time>2012-01-25T11:20:30Z</time>
      </trkpt>
      <trkpt lat="45.66873" lon="6.5664">
        <ele>1708.313</ele>
        <time>2012-01-25T11:20:40Z</time>
      </trkpt>
      <trkpt lat="45.66872" lon="6.56642">
        <ele>1707.864</ele>
        <time>2012-01-25T11:20:50Z</time>
      </trkpt>
      <trkpt lat="45.66871" lon="6.56643">
        <ele>1707.763</ele>
        <time>2012-01-25T11:21:00Z</time>
      </trkpt>
      <trkpt lat="45.66871" lon="6.56643">
        <ele>1707.885</ele>
        <time>2012-01-25T11:21:10Z</time>
      </trkpt>
      <trkpt lat="45.66873" lon="6.56636">
        <ele>1707.762</ele>
        <time>2012-01-25T11:21:20Z</time>
      </trkpt>
      <trkpt lat="45.66874" lon="6.56624">
        <ele>1707.524</ele>
        <time>2012-01-25T11:21:30Z</time>
      </trkpt>
      <trkpt lat="45.66878" lon="6.5661">
        <ele>1706.786</ele>
        <time>2012-01-25T11:21:40Z</time>
      </trkpt>
      <trkpt lat="45.66881" lon="6.56596">
        <ele>1706.394</ele>
        <time>2012-01-25T11:21:50Z</time>
      </trkpt>
      <trkpt lat="45.66884" lon="6.56586">
        <ele>1705.704</ele>
        <time>2012-01-25T11:22:00Z</time>
      </trkpt>
      <trkpt lat="45.66888" lon="6.56574">
        <ele>1704.584</ele>
        <time>2012-01-25T11:22:10Z</time>
      </trkpt>
      <trkpt lat="45.66894" lon="6.56568">
        <ele>1703.657</ele>
        <time>2012-01-25T11:22:20Z</time>
      </trkpt>
      <trkpt lat="45.66903" lon="6.56564">
        <ele>1702.712</ele>
        <time>2012-01-25T11:22:30Z</time>
      </trkpt>
      <trkpt lat="45.66911" lon="6.56562">
        <ele>1702.178</ele>
        <time>2012-01-25T11:22:40Z</time>
      </trkpt>
      <trkpt lat="45.66918" lon="6.56564">
        <ele>1701.573</ele>
        <time>2012-01-25T11:22:50Z</time>
      </trkpt>
      <trkpt lat="45.66928" lon="6.56566">
        <ele>1700.149</ele>
        <time>2012-01-25T11:23:00Z</time>
      </trkpt>
      <trkpt lat="45.66935" lon="6.56569">
        <ele>1699.903</ele>
        <time>2012-01-25T11:23:10Z</time>
      </trkpt>
      <trkpt lat="45.66941" lon="6.56578">
        <ele>1700.304</ele>
        <time>2012-01-25T11:23:20Z</time>
      </trkpt>
      <trkpt lat="45.66952" lon="6.56585">
        <ele>1699.644</ele>
        <time>2012-01-25T11:23:30Z</time>
      </trkpt>
      <trkpt lat="45.66964" lon="6.56587">
        <ele>1698.282</ele>
        <time>2012-01-25T11:23:40Z</time>
      </trkpt>
      <trkpt lat="45.66973" lon="6.56589">
        <ele>1697.531</ele>
        <time>2012-01-25T11:23:50Z</time>
      </trkpt>
      <trkpt lat="45.66979" lon="6.56594">
        <ele>1695.807</ele>
        <time>2012-01-25T11:24:00Z</time>
      </trkpt>
      <trkpt lat="45.66987" lon="6.56599">
        <ele>1694.192</ele>
        <time>2012-01-25T11:24:10Z</time>
      </trkpt>
      <trkpt lat="45.66994" lon="6.56601">
        <ele>1693.058</ele>
        <time>2012-01-25T11:24:20Z</time>
      </trkpt>
      <trkpt lat="45.67002" lon="6.56606">
        <ele>1691.91</ele>
        <time>2012-01-25T11:24:30Z</time>
      </trkpt>
      <trkpt lat="45.67009" lon="6.56612">
        <ele>1690.348</ele>
        <time>2012-01-25T11:24:40Z</time>
      </trkpt>
      <trkpt lat="45.67016" lon="6.5662">
        <ele>1689.033</ele>
        <time>2012-01-25T11:24:50Z</time>
      </trkpt>
      <trkpt lat="45.6702" lon="6.56632">
        <ele>1687.478</ele>
        <time>2012-01-25T11:25:00Z</time>
      </trkpt>
      <trkpt lat="45.67026" lon="6.56645">
        <ele>1685.916</ele>
        <time>2012-01-25T11:25:10Z</time>
      </trkpt>
      <trkpt lat="45.67027" lon="6.56659">
        <ele>1684.808</ele>
        <time>2012-01-25T11:25:20Z</time>
      </trkpt>
      <trkpt lat="45.67024" lon="6.56674">
        <ele>1683.037</ele>
        <time>2012-01-25T11:25:30Z</time>
      </trkpt>
      <trkpt lat="45.67023" lon="6.56691">
        <ele>1681.481</ele>
        <time>2012-01-25T11:25:40Z</time>
      </trkpt>
      <trkpt lat="45.67019" lon="6.56709">
        <ele>1679.7</ele>
        <time>2012-01-25T11:25:50Z</time>
      </trkpt>
      <trkpt lat="45.67022" lon="6.56732">
        <ele>1677.466</ele>
        <time>2012-01-25T11:26:00Z</time>
      </trkpt>
      <trkpt lat="45.67019" lon="6.56746">
        <ele>1676.279</ele>
        <time>2012-01-25T11:26:10Z</time>
      </trkpt>
      <trkpt lat="45.67022" lon="6.56759">
        <ele>1675.453</ele>
        <time>2012-01-25T11:26:20Z</time>
      </trkpt>
      <trkpt lat="45.67019" lon="6.56776">
        <ele>1674.385</ele>
        <time>2012-01-25T11:26:30Z</time>
      </trkpt>
      <trkpt lat="45.67016" lon="6.56787">
        <ele>1673.154</ele>
        <time>2012-01-25T11:26:40Z</time>
      </trkpt>
      <trkpt lat="45.67013" lon="6.568">
        <ele>1671.871</ele>
        <time>2012-01-25T11:26:50Z</time>
      </trkpt>
      <trkpt lat="45.67009" lon="6.56814">
        <ele>1671.596</ele>
        <time>2012-01-25T11:27:00Z</time>
      </trkpt>
      <trkpt lat="45.67002" lon="6.56824">
        <ele>1669.757</ele>
        <time>2012-01-25T11:27:10Z</time>
      </trkpt>
      <trkpt lat="45.66995" lon="6.56837">
        <ele>1667.805</ele>
        <time>2012-01-25T11:27:20Z</time>
      </trkpt>
      <trkpt lat="45.66988" lon="6.56853">
        <ele>1665.099</ele>
        <time>2012-01-25T11:27:30Z</time>
      </trkpt>
      <trkpt lat="45.66981" lon="6.56861">
        <ele>1663.324</ele>
        <time>2012-01-25T11:27:40Z</time>
      </trkpt>
      <trkpt lat="45.66973" lon="6.56868">
        <ele>1661.85</ele>
        <time>2012-01-25T11:27:50Z</time>
      </trkpt>
      <trkpt lat="45.66965" lon="6.56879">
        <ele>1661.335</ele>
        <time>2012-01-25T11:28:00Z</time>
      </trkpt>
      <trkpt lat="45.66956" lon="6.56883">
        <ele>1660.999</ele>
        <time>2012-01-25T11:28:10Z</time>
      </trkpt>
      <trkpt lat="45.66946" lon="6.5689">
        <ele>1660.447</ele>
        <time>2012-01-25T11:28:20Z</time>
      </trkpt>
      <trkpt lat="45.66938" lon="6.56895">
        <ele>1660.715</ele>
        <time>2012-01-25T11:28:30Z</time>
      </trkpt>
      <trkpt lat="45.66928" lon="6.56894">
        <ele>1661.38</ele>
        <time>2012-01-25T11:28:40Z</time>
      </trkpt>
      <trkpt lat="45.6692" lon="6.56898">
        <ele>1661.529</ele>
        <time>2012-01-25T11:28:50Z</time>
      </trkpt>
      <trkpt lat="45.66912" lon="6.56905">
        <ele>1661.791</ele>
        <time>2012-01-25T11:29:00Z</time>
      </trkpt>
      <trkpt lat="45.66904" lon="6.56909">
        <ele>1661.602</ele>
        <time>2012-01-25T11:29:10Z</time>
      </trkpt>
      <trkpt lat="45.66897" lon="6.5692">
        <ele>1661.165</ele>
        <time>2012-01-25T11:29:20Z</time>
      </trkpt>
      <trkpt lat="45.66887" lon="6.56926">
        <ele>1660.81</ele>
        <time>2012-01-25T11:29:30Z</time>
      </trkpt>
      <trkpt lat="45.66879" lon="6.56937">
        <ele>1659.189</ele>
        <time>2012-01-25T11:29:40Z</time>
      </trkpt>
      <trkpt lat="45.66872" lon="6.56945">
        <ele>1658.278</ele>
        <time>2012-01-25T11:29:50Z</time>
      </trkpt>
      <trkpt lat="45.66864" lon="6.56955">
        <ele>1655.955</ele>
        <time>2012-01-25T11:30:00Z</time>
      </trkpt>
      <trkpt lat="45.66858" lon="6.56962">
        <ele>1654.701</ele>
        <time>2012-01-25T11:30:10Z</time>
      </trkpt>
      <trkpt lat="45.66859" lon="6.56957">
        <ele>1653.879</ele>
        <time>2012-01-25T11:30:20Z</time>
      </trkpt>
      <trkpt lat="45.66864" lon="6.56946">
        <ele>1655.374</ele>
        <time>2012-01-25T11:30:30Z</time>
      </trkpt>
      <trkpt lat="45.66862" lon="6.56946">
        <ele>1655.516</ele>
        <time>2012-01-25T11:30:40Z</time>
      </trkpt>
      <trkpt lat="45.66862" lon="6.56946">
        <ele>1656.007</ele>
        <time>2012-01-25T11:30:50Z</time>
      </trkpt>
      <trkpt lat="45.66862" lon="6.56946">
        <ele>1656.266</ele>
        <time>2012-01-25T11:31:00Z</time>
      </trkpt>
      <trkpt lat="45.66864" lon="6.56943">
        <ele>1655.551</ele>
        <time>2012-01-25T11:31:10Z</time>
      </trkpt>
      <trkpt lat="45.66864" lon="6.56943">
        <ele>1655.692</ele>
        <time>2012-01-25T11:31:20Z</time>
      </trkpt>
      <trkpt lat="45.66864" lon="6.56942">
        <ele>1655.283</ele>
        <time>2012-01-25T11:31:30Z</time>
      </trkpt>
      <trkpt lat="45.66864" lon="6.56944">
        <ele>1655.481</ele>
        <time>2012-01-25T11:31:40Z</time>
      </trkpt>
      <trkpt lat="45.66861" lon="6.56957">
        <ele>1654.801</ele>
        <time>2012-01-25T11:31:50Z</time>
      </trkpt>
      <trkpt lat="45.66864" lon="6.56962">
        <ele>1653.796</ele>
        <time>2012-01-25T11:32:00Z</time>
      </trkpt>
      <trkpt lat="45.66862" lon="6.56965">
        <ele>1653.359</ele>
        <time>2012-01-25T11:32:10Z</time>
      </trkpt>
      <trkpt lat="45.66862" lon="6.56965">
        <ele>1653.576</ele>
        <time>2012-01-25T11:32:20Z</time>
      </trkpt>
      <trkpt lat="45.66866" lon="6.56969">
        <ele>1652.973</ele>
        <time>2012-01-25T11:32:30Z</time>
      </trkpt>
      <trkpt lat="45.66875" lon="6.56976">
        <ele>1651.997</ele>
        <time>2012-01-25T11:32:40Z</time>
      </trkpt>
      <trkpt lat="45.66883" lon="6.56977">
        <ele>1651.48</ele>
        <time>2012-01-25T11:32:50Z</time>
      </trkpt>
      <trkpt lat="45.6689" lon="6.56984">
        <ele>1650.12</ele>
        <time>2012-01-25T11:33:00Z</time>
      </trkpt>
      <trkpt lat="45.669" lon="6.56984">
        <ele>1648.817</ele>
        <time>2012-01-25T11:33:10Z</time>
      </trkpt>
      <trkpt lat="45.66911" lon="6.56988">
        <ele>1648.122</ele>
        <time>2012-01-25T11:33:20Z</time>
      </trkpt>
      <trkpt lat="45.66917" lon="6.56988">
        <ele>1646.783</ele>
        <time>2012-01-25T11:33:30Z</time>
      </trkpt>
      <trkpt lat="45.66927" lon="6.56989">
        <ele>1645.917</ele>
        <time>2012-01-25T11:33:40Z</time>
      </trkpt>
      <trkpt lat="45.66936" lon="6.56989">
        <ele>1644.237</ele>
        <time>2012-01-25T11:33:50Z</time>
      </trkpt>
      <trkpt lat="45.66938" lon="6.56982">
        <ele>1644.049</ele>
        <time>2012-01-25T11:34:00Z</time>
      </trkpt>
      <trkpt lat="45.66938" lon="6.56981">
        <ele>1644.215</ele>
        <time>2012-01-25T11:34:10Z</time>
      </trkpt>
      <trkpt lat="45.66937" lon="6.56972">
        <ele>1643.528</ele>
        <time>2012-01-25T11:34:20Z</time>
      </trkpt>
      <trkpt lat="45.66937" lon="6.56959">
        <ele>1644.119</ele>
        <time>2012-01-25T11:34:30Z</time>
      </trkpt>
      <trkpt lat="45.66935" lon="6.5696">
        <ele>1643.643</ele>
        <time>2012-01-25T11:34:40Z</time>
      </trkpt>
      <trkpt lat="45.66935" lon="6.56962">
        <ele>1643.991</ele>
        <time>2012-01-25T11:34:50Z</time>
      </trkpt>
      <trkpt lat="45.66934" lon="6.5697">
        <ele>1643.709</ele>
        <time>2012-01-25T11:35:00Z</time>
      </trkpt>
      <trkpt lat="45.66934" lon="6.56969">
        <ele>1643.816</ele>
        <time>2012-01-25T11:35:10Z</time>
      </trkpt>
      <trkpt lat="45.66934" lon="6.5697">
        <ele>1643.95</ele>
        <time>2012-01-25T11:35:20Z</time>
      </trkpt>
      <trkpt lat="45.66935" lon="6.5697">
        <ele>1643.657</ele>
        <time>2012-01-25T11:35:30Z</time>
      </trkpt>
      <trkpt lat="45.66934" lon="6.56969">
        <ele>1643.547</ele>
        <time>2012-01-25T11:35:40Z</time>
      </trkpt>
      <trkpt lat="45.66934" lon="6.56969">
        <ele>1643.75</ele>
        <time>2012-01-25T11:35:50Z</time>
      </trkpt>
      <trkpt lat="45.66939" lon="6.5697">
        <ele>1643.662</ele>
        <time>2012-01-25T11:36:00Z</time>
      </trkpt>
      <trkpt lat="45.66948" lon="6.56976">
        <ele>1642.659</ele>
        <time>2012-01-25T11:36:10Z</time>
      </trkpt>
      <trkpt lat="45.66954" lon="6.56978">
        <ele>1641.825</ele>
        <time>2012-01-25T11:36:20Z</time>
      </trkpt>
      <trkpt lat="45.66966" lon="6.56983">
        <ele>1640.693</ele>
        <time>2012-01-25T11:36:30Z</time>
      </trkpt>
      <trkpt lat="45.66976" lon="6.56979">
        <ele>1639.177</ele>
        <time>2012-01-25T11:36:40Z</time>
      </trkpt>
      <trkpt lat="45.66984" lon="6.56978">
        <ele>1638.163</ele>
        <time>2012-01-25T11:36:50Z</time>
      </trkpt>
      <trkpt lat="45.66993" lon="6.5698">
        <ele>1637.148</ele>
        <time>2012-01-25T11:37:00Z</time>
      </trkpt>
      <trkpt lat="45.67002" lon="6.56982">
        <ele>1636.166</ele>
        <time>2012-01-25T11:37:10Z</time>
      </trkpt>
      <trkpt lat="45.67012" lon="6.56988">
        <ele>1634.842</ele>
        <time>2012-01-25T11:37:20Z</time>
      </trkpt>
      <trkpt lat="45.67022" lon="6.56987">
        <ele>1633.604</ele>
        <time>2012-01-25T11:37:30Z</time>
      </trkpt>
      <trkpt lat="45.67031" lon="6.56984">
        <ele>1632.808</ele>
        <time>2012-01-25T11:37:40Z</time>
      </trkpt>
      <trkpt lat="45.67037" lon="6.56985">
        <ele>1631.439</ele>
        <time>2012-01-25T11:37:50Z</time>
      </trkpt>
      <trkpt lat="45.67037" lon="6.5699">
        <ele>1630.626</ele>
        <time>2012-01-25T11:38:00Z</time>
      </trkpt>
      <trkpt lat="45.67037" lon="6.56995">
        <ele>1630.881</ele>
        <time>2012-01-25T11:38:10Z</time>
      </trkpt>
      <trkpt lat="45.67038" lon="6.56997">
        <ele>1630.608</ele>
        <time>2012-01-25T11:38:20Z</time>
      </trkpt>
      <trkpt lat="45.67049" lon="6.56988">
        <ele>1629.73</ele>
        <time>2012-01-25T11:38:30Z</time>
      </trkpt>
      <trkpt lat="45.67059" lon="6.5698">
        <ele>1628.513</ele>
        <time>2012-01-25T11:38:40Z</time>
      </trkpt>
      <trkpt lat="45.67067" lon="6.56978">
        <ele>1627.295</ele>
        <time>2012-01-25T11:38:50Z</time>
      </trkpt>
      <trkpt lat="45.67077" lon="6.56975">
        <ele>1625.953</ele>
        <time>2012-01-25T11:39:00Z</time>
      </trkpt>
      <trkpt lat="45.67076" lon="6.56986">
        <ele>1624.048</ele>
        <time>2012-01-25T11:39:10Z</time>
      </trkpt>
      <trkpt lat="45.6707" lon="6.56995">
        <ele>1623.902</ele>
        <time>2012-01-25T11:39:20Z</time>
      </trkpt>
      <trkpt lat="45.67062" lon="6.56997">
        <ele>1623.419</ele>
        <time>2012-01-25T11:39:30Z</time>
      </trkpt>
      <trkpt lat="45.67056" lon="6.57003">
        <ele>1622.88</ele>
        <time>2012-01-25T11:39:40Z</time>
      </trkpt>
      <trkpt lat="45.6705" lon="6.57008">
        <ele>1621.409</ele>
        <time>2012-01-25T11:39:50Z</time>
      </trkpt>
      <trkpt lat="45.67041" lon="6.57016">
        <ele>1620.151</ele>
        <time>2012-01-25T11:40:00Z</time>
      </trkpt>
      <trkpt lat="45.67032" lon="6.57024">
        <ele>1618.657</ele>
        <time>2012-01-25T11:40:10Z</time>
      </trkpt>
      <trkpt lat="45.67022" lon="6.57029">
        <ele>1617.836</ele>
        <time>2012-01-25T11:40:20Z</time>
      </trkpt>
      <trkpt lat="45.67018" lon="6.57039">
        <ele>1616.712</ele>
        <time>2012-01-25T11:40:30Z</time>
      </trkpt>
      <trkpt lat="45.67013" lon="6.57051">
        <ele>1615.293</ele>
        <time>2012-01-25T11:40:40Z</time>
      </trkpt>
      <trkpt lat="45.67006" lon="6.57062">
        <ele>1613.814</ele>
        <time>2012-01-25T11:40:50Z</time>
      </trkpt>
      <trkpt lat="45.66997" lon="6.57068">
        <ele>1612.602</ele>
        <time>2012-01-25T11:41:00Z</time>
      </trkpt>
      <trkpt lat="45.66993" lon="6.5708">
        <ele>1611.759</ele>
        <time>2012-01-25T11:41:10Z</time>
      </trkpt>
      <trkpt lat="45.66986" lon="6.57092">
        <ele>1610.081</ele>
        <time>2012-01-25T11:41:20Z</time>
      </trkpt>
      <trkpt lat="45.66981" lon="6.57098">
        <ele>1609.324</ele>
        <time>2012-01-25T11:41:30Z</time>
      </trkpt>
      <trkpt lat="45.66974" lon="6.57106">
        <ele>1608.032</ele>
        <time>2012-01-25T11:41:40Z</time>
      </trkpt>
      <trkpt lat="45.66967" lon="6.57111">
        <ele>1607.004</ele>
        <time>2012-01-25T11:41:50Z</time>
      </trkpt>
      <trkpt lat="45.66958" lon="6.57119">
        <ele>1606.213</ele>
        <time>2012-01-25T11:42:00Z</time>
      </trkpt>
      <trkpt lat="45.6695" lon="6.57125">
        <ele>1605.189</ele>
        <time>2012-01-25T11:42:10Z</time>
      </trkpt>
      <trkpt lat="45.6694" lon="6.57127">
        <ele>1604.321</ele>
        <time>2012-01-25T11:42:20Z</time>
      </trkpt>
      <trkpt lat="45.66933" lon="6.57129">
        <ele>1602.884</ele>
        <time>2012-01-25T11:42:30Z</time>
      </trkpt>
      <trkpt lat="45.66928" lon="6.57134">
        <ele>1601.732</ele>
        <time>2012-01-25T11:42:40Z</time>
      </trkpt>
      <trkpt lat="45.66927" lon="6.57147">
        <ele>1601.49</ele>
        <time>2012-01-25T11:42:50Z</time>
      </trkpt>
      <trkpt lat="45.66918" lon="6.57149">
        <ele>1600.478</ele>
        <time>2012-01-25T11:43:00Z</time>
      </trkpt>
      <trkpt lat="45.6691" lon="6.57157">
        <ele>1599.883</ele>
        <time>2012-01-25T11:43:10Z</time>
      </trkpt>
      <trkpt lat="45.66904" lon="6.57169">
        <ele>1598.647</ele>
        <time>2012-01-25T11:43:20Z</time>
      </trkpt>
      <trkpt lat="45.66899" lon="6.57178">
        <ele>1596.989</ele>
        <time>2012-01-25T11:43:30Z</time>
      </trkpt>
      <trkpt lat="45.66899" lon="6.57194">
        <ele>1595.361</ele>
        <time>2012-01-25T11:43:40Z</time>
      </trkpt>
      <trkpt lat="45.66903" lon="6.57206">
        <ele>1593.52</ele>
        <time>2012-01-25T11:43:50Z</time>
      </trkpt>
      <trkpt lat="45.66911" lon="6.57207">
        <ele>1592.03</ele>
        <time>2012-01-25T11:44:00Z</time>
      </trkpt>
      <trkpt lat="45.66916" lon="6.57212">
        <ele>1591.037</ele>
        <time>2012-01-25T11:44:10Z</time>
      </trkpt>
      <trkpt lat="45.66926" lon="6.57214">
        <ele>1589.624</ele>
        <time>2012-01-25T11:44:20Z</time>
      </trkpt>
      <trkpt lat="45.66932" lon="6.57204">
        <ele>1588.255</ele>
        <time>2012-01-25T11:44:30Z</time>
      </trkpt>
      <trkpt lat="45.66942" lon="6.57195">
        <ele>1586.665</ele>
        <time>2012-01-25T11:44:40Z</time>
      </trkpt>
      <trkpt lat="45.66955" lon="6.57192">
        <ele>1586.058</ele>
        <time>2012-01-25T11:44:50Z</time>
      </trkpt>
      <trkpt lat="45.66964" lon="6.57194">
        <ele>1584.132</ele>
        <time>2012-01-25T11:45:00Z</time>
      </trkpt>
      <trkpt lat="45.66974" lon="6.57197">
        <ele>1583.665</ele>
        <time>2012-01-25T11:45:10Z</time>
      </trkpt>
      <trkpt lat="45.66984" lon="6.57198">
        <ele>1582.622</ele>
        <time>2012-01-25T11:45:20Z</time>
      </trkpt>
      <trkpt lat="45.66994" lon="6.57191">
        <ele>1582.563</ele>
        <time>2012-01-25T11:45:30Z</time>
      </trkpt>
      <trkpt lat="45.66996" lon="6.5718">
        <ele>1581.366</ele>
        <time>2012-01-25T11:45:40Z</time>
      </trkpt>
      <trkpt lat="45.67003" lon="6.57177">
        <ele>1580.309</ele>
        <time>2012-01-25T11:45:50Z</time>
      </trkpt>
      <trkpt lat="45.67014" lon="6.57173">
        <ele>1579.696</ele>
        <time>2012-01-25T11:46:00Z</time>
      </trkpt>
      <trkpt lat="45.67023" lon="6.57169">
        <ele>1578.391</ele>
        <time>2012-01-25T11:46:10Z</time>
      </trkpt>
      <trkpt lat="45.67034" lon="6.57162">
        <ele>1577.364</ele>
        <time>2012-01-25T11:46:20Z</time>
      </trkpt>
      <trkpt lat="45.67049" lon="6.57163">
        <ele>1577.386</ele>
        <time>2012-01-25T11:46:30Z</time>
      </trkpt>
      <trkpt lat="45.67056" lon="6.57163">
        <ele>1576.241</ele>
        <time>2012-01-25T11:46:40Z</time>
      </trkpt>
      <trkpt lat="45.67062" lon="6.57154">
        <ele>1575.768</ele>
        <time>2012-01-25T11:46:50Z</time>
      </trkpt>
      <trkpt lat="45.6707" lon="6.57149">
        <ele>1575.046</ele>
        <time>2012-01-25T11:47:00Z</time>
      </trkpt>
      <trkpt lat="45.67088" lon="6.57146">
        <ele>1574.344</ele>
        <time>2012-01-25T11:47:10Z</time>
      </trkpt>
      <trkpt lat="45.67103" lon="6.57148">
        <ele>1573.475</ele>
        <time>2012-01-25T11:47:20Z</time>
      </trkpt>
      <trkpt lat="45.67115" lon="6.57148">
        <ele>1572.64</ele>
        <time>2012-01-25T11:47:30Z</time>
      </trkpt>
      <trkpt lat="45.67124" lon="6.57149">
        <ele>1571.647</ele>
        <time>2012-01-25T11:47:40Z</time>
      </trkpt>
      <trkpt lat="45.67128" lon="6.57146">
        <ele>1571.489</ele>
        <time>2012-01-25T11:47:50Z</time>
      </trkpt>
      <trkpt lat="45.67137" lon="6.57142">
        <ele>1570.225</ele>
        <time>2012-01-25T11:48:00Z</time>
      </trkpt>
      <trkpt lat="45.67141" lon="6.5715">
        <ele>1568.048</ele>
        <time>2012-01-25T11:48:10Z</time>
      </trkpt>
      <trkpt lat="45.67141" lon="6.57159">
        <ele>1566.755</ele>
        <time>2012-01-25T11:48:20Z</time>
      </trkpt>
      <trkpt lat="45.6714" lon="6.57161">
        <ele>1566.494</ele>
        <time>2012-01-25T11:48:30Z</time>
      </trkpt>
      <trkpt lat="45.67141" lon="6.5716">
        <ele>1566.717</ele>
        <time>2012-01-25T11:48:40Z</time>
      </trkpt>
      <trkpt lat="45.67142" lon="6.5716">
        <ele>1567.403</ele>
        <time>2012-01-25T11:48:50Z</time>
      </trkpt>
      <trkpt lat="45.67146" lon="6.57154">
        <ele>1567.61</ele>
        <time>2012-01-25T11:49:00Z</time>
      </trkpt>
      <trkpt lat="45.67147" lon="6.5715">
        <ele>1568.103</ele>
        <time>2012-01-25T11:49:10Z</time>
      </trkpt>
      <trkpt lat="45.67145" lon="6.5715">
        <ele>1567.595</ele>
        <time>2012-01-25T11:49:20Z</time>
      </trkpt>
      <trkpt lat="45.67148" lon="6.57149">
        <ele>1567.836</ele>
        <time>2012-01-25T11:49:30Z</time>
      </trkpt>
      <trkpt lat="45.67148" lon="6.57148">
        <ele>1567.676</ele>
        <time>2012-01-25T11:49:40Z</time>
      </trkpt>
      <trkpt lat="45.67148" lon="6.57148">
        <ele>1568.17</ele>
        <time>2012-01-25T11:49:50Z</time>
      </trkpt>
      <trkpt lat="45.67149" lon="6.57149">
        <ele>1567.826</ele>
        <time>2012-01-25T11:50:00Z</time>
      </trkpt>
      <trkpt lat="45.67151" lon="6.5715">
        <ele>1567.65</ele>
        <time>2012-01-25T11:50:10Z</time>
      </trkpt>
      <trkpt lat="45.67154" lon="6.57151">
        <ele>1567.962</ele>
        <time>2012-01-25T11:50:20Z</time>
      </trkpt>
      <trkpt lat="45.67155" lon="6.57152">
        <ele>1567.642</ele>
        <time>2012-01-25T11:50:30Z</time>
      </trkpt>
      <trkpt lat="45.67154" lon="6.57153">
        <ele>1567.867</ele>
        <time>2012-01-25T11:50:40Z</time>
      </trkpt>
      <trkpt lat="45.67154" lon="6.57152">
        <ele>1567.949</ele>
        <time>2012-01-25T11:50:50Z</time>
      </trkpt>
      <trkpt lat="45.67153" lon="6.5715">
        <ele>1568.018</ele>
        <time>2012-01-25T11:51:00Z</time>
      </trkpt>
      <trkpt lat="45.67152" lon="6.57148">
        <ele>1567.946</ele>
        <time>2012-01-25T11:51:10Z</time>
      </trkpt>
      <trkpt lat="45.67152" lon="6.57147">
        <ele>1567.87</ele>
        <time>2012-01-25T11:51:20Z</time>
      </trkpt>
      <trkpt lat="45.67153" lon="6.57147">
        <ele>1567.638</ele>
        <time>2012-01-25T11:51:30Z</time>
      </trkpt>
      <trkpt lat="45.67153" lon="6.57148">
        <ele>1567.964</ele>
        <time>2012-01-25T11:51:40Z</time>
      </trkpt>
      <trkpt lat="45.67153" lon="6.57148">
        <ele>1567.696</ele>
        <time>2012-01-25T11:51:50Z</time>
      </trkpt>
      <trkpt lat="45.67153" lon="6.57148">
        <ele>1567.805</ele>
        <time>2012-01-25T11:52:00Z</time>
      </trkpt>
      <trkpt lat="45.67153" lon="6.57148">
        <ele>1567.641</ele>
        <time>2012-01-25T11:52:10Z</time>
      </trkpt>
      <trkpt lat="45.67153" lon="6.57148">
        <ele>1567.157</ele>
        <time>2012-01-25T11:52:20Z</time>
      </trkpt>
      <trkpt lat="45.67153" lon="6.57148">
        <ele>1567.212</ele>
        <time>2012-01-25T11:52:30Z</time>
      </trkpt>
      <trkpt lat="45.67151" lon="6.57146">
        <ele>1567.193</ele>
        <time>2012-01-25T11:52:40Z</time>
      </trkpt>
      <trkpt lat="45.67148" lon="6.57147">
        <ele>1566.497</ele>
        <time>2012-01-25T11:52:50Z</time>
      </trkpt>
      <trkpt lat="45.67138" lon="6.57153">
        <ele>1565.426</ele>
        <time>2012-01-25T11:53:00Z</time>
      </trkpt>
      <trkpt lat="45.67126" lon="6.57163">
        <ele>1564.561</ele>
        <time>2012-01-25T11:53:10Z</time>
      </trkpt>
      <trkpt lat="45.67115" lon="6.57178">
        <ele>1563.397</ele>
        <time>2012-01-25T11:53:20Z</time>
      </trkpt>
      <trkpt lat="45.6711" lon="6.57187">
        <ele>1562.088</ele>
        <time>2012-01-25T11:53:30Z</time>
      </trkpt>
      <trkpt lat="45.67105" lon="6.57197">
        <ele>1560.148</ele>
        <time>2012-01-25T11:53:40Z</time>
      </trkpt>
      <trkpt lat="45.671" lon="6.57208">
        <ele>1559.308</ele>
        <time>2012-01-25T11:53:50Z</time>
      </trkpt>
      <trkpt lat="45.67095" lon="6.57222">
        <ele>1557.868</ele>
        <time>2012-01-25T11:54:00Z</time>
      </trkpt>
      <trkpt lat="45.67091" lon="6.57239">
        <ele>1556.709</ele>
        <time>2012-01-25T11:54:10Z</time>
      </trkpt>
      <trkpt lat="45.67086" lon="6.57248">
        <ele>1555.111</ele>
        <time>2012-01-25T11:54:20Z</time>
      </trkpt>
      <trkpt lat="45.67083" lon="6.57261">
        <ele>1553.785</ele>
        <time>2012-01-25T11:54:30Z</time>
      </trkpt>
      <trkpt lat="45.67076" lon="6.57274">
        <ele>1552.376</ele>
        <time>2012-01-25T11:54:40Z</time>
      </trkpt>
      <trkpt lat="45.67064" lon="6.5728">
        <ele>1550.834</ele>
        <time>2012-01-25T11:54:50Z</time>
      </trkpt>
      <trkpt lat="45.67058" lon="6.57288">
        <ele>1549.407</ele>
        <time>2012-01-25T11:55:00Z</time>
      </trkpt>
      <trkpt lat="45.67049" lon="6.57299">
        <ele>1547.883</ele>
        <time>2012-01-25T11:55:10Z</time>
      </trkpt>
      <trkpt lat="45.67049" lon="6.57305">
        <ele>1547.253</ele>
        <time>2012-01-25T11:55:20Z</time>
      </trkpt>
      <trkpt lat="45.67059" lon="6.57303">
        <ele>1543.623</ele>
        <time>2012-01-25T11:55:30Z</time>
      </trkpt>
      <trkpt lat="45.67063" lon="6.57313">
        <ele>1541.664</ele>
        <time>2012-01-25T11:55:40Z</time>
      </trkpt>
      <trkpt lat="45.67067" lon="6.57327">
        <ele>1537.149</ele>
        <time>2012-01-25T11:55:50Z</time>
      </trkpt>
      <trkpt lat="45.67069" lon="6.57335">
        <ele>1536.083</ele>
        <time>2012-01-25T11:56:00Z</time>
      </trkpt>
      <trkpt lat="45.67075" lon="6.57326">
        <ele>1535.789</ele>
        <time>2012-01-25T11:56:10Z</time>
      </trkpt>
      <trkpt lat="45.67083" lon="6.57326">
        <ele>1535.439</ele>
        <time>2012-01-25T11:56:20Z</time>
      </trkpt>
      <trkpt lat="45.67089" lon="6.57325">
        <ele>1534.821</ele>
        <time>2012-01-25T11:56:30Z</time>
      </trkpt>
      <trkpt lat="45.67092" lon="6.57317">
        <ele>1534.166</ele>
        <time>2012-01-25T11:56:40Z</time>
      </trkpt>
      <trkpt lat="45.67095" lon="6.57312">
        <ele>1533.276</ele>
        <time>2012-01-25T11:56:50Z</time>
      </trkpt>
      <trkpt lat="45.67102" lon="6.57303">
        <ele>1531.736</ele>
        <time>2012-01-25T11:57:00Z</time>
      </trkpt>
      <trkpt lat="45.67113" lon="6.57296">
        <ele>1530.115</ele>
        <time>2012-01-25T11:57:10Z</time>
      </trkpt>
      <trkpt lat="45.6712" lon="6.57289">
        <ele>1529.184</ele>
        <time>2012-01-25T11:57:20Z</time>
      </trkpt>
      <trkpt lat="45.6713" lon="6.57282">
        <ele>1528.354</ele>
        <time>2012-01-25T11:57:30Z</time>
      </trkpt>
      <trkpt lat="45.67134" lon="6.57289">
        <ele>1527.002</ele>
        <time>2012-01-25T11:57:40Z</time>
      </trkpt>
      <trkpt lat="45.67133" lon="6.57299">
        <ele>1523.195</ele>
        <time>2012-01-25T11:57:50Z</time>
      </trkpt>
      <trkpt lat="45.6713" lon="6.57298">
        <ele>1522.653</ele>
        <time>2012-01-25T11:58:00Z</time>
      </trkpt>
      <trkpt lat="45.67129" lon="6.57297">
        <ele>1522.536</ele>
        <time>2012-01-25T11:58:10Z</time>
      </trkpt>
      <trkpt lat="45.67128" lon="6.57299">
        <ele>1522.39</ele>
        <time>2012-01-25T11:58:20Z</time>
      </trkpt>
      <trkpt lat="45.67128" lon="6.57299">
        <ele>1522.45</ele>
        <time>2012-01-25T11:58:30Z</time>
      </trkpt>
      <trkpt lat="45.67128" lon="6.57299">
        <ele>1522.542</ele>
        <time>2012-01-25T11:58:40Z</time>
      </trkpt>
      <trkpt lat="45.67128" lon="6.57299">
        <ele>1522.195</ele>
        <time>2012-01-25T11:58:50Z</time>
      </trkpt>
      <trkpt lat="45.67128" lon="6.57302">
        <ele>1521.933</ele>
        <time>2012-01-25T11:59:00Z</time>
      </trkpt>
      <trkpt lat="45.67127" lon="6.57302">
        <ele>1522.35</ele>
        <time>2012-01-25T11:59:10Z</time>
      </trkpt>
      <trkpt lat="45.67125" lon="6.57301">
        <ele>1521.81</ele>
        <time>2012-01-25T11:59:20Z</time>
      </trkpt>
      <trkpt lat="45.67127" lon="6.57302">
        <ele>1522.224</ele>
        <time>2012-01-25T11:59:30Z</time>
      </trkpt>
      <trkpt lat="45.67127" lon="6.57302">
        <ele>1522.452</ele>
        <time>2012-01-25T11:59:40Z</time>
      </trkpt>
      <trkpt lat="45.67128" lon="6.57302">
        <ele>1522.209</ele>
        <time>2012-01-25T11:59:50Z</time>
      </trkpt>
      <trkpt lat="45.67127" lon="6.57301">
        <ele>1521.754</ele>
        <time>2012-01-25T12:00:00Z</time>
      </trkpt>
      <trkpt lat="45.67128" lon="6.57302">
        <ele>1522.2</ele>
        <time>2012-01-25T12:00:10Z</time>
      </trkpt>
      <trkpt lat="45.67126" lon="6.57304">
        <ele>1521.533</ele>
        <time>2012-01-25T12:00:20Z</time>
      </trkpt>
      <trkpt lat="45.67125" lon="6.57311">
        <ele>1521.356</ele>
        <time>2012-01-25T12:00:30Z</time>
      </trkpt>
      <trkpt lat="45.67119" lon="6.5732">
        <ele>1520.327</ele>
        <time>2012-01-25T12:00:40Z</time>
      </trkpt>
      <trkpt lat="45.67116" lon="6.57331">
        <ele>1519.908</ele>
        <time>2012-01-25T12:00:50Z</time>
      </trkpt>
      <trkpt lat="45.67117" lon="6.5733">
        <ele>1519.5</ele>
        <time>2012-01-25T12:01:00Z</time>
      </trkpt>
      <trkpt lat="45.67117" lon="6.5733">
        <ele>1519.398</ele>
        <time>2012-01-25T12:01:10Z</time>
      </trkpt>
      <trkpt lat="45.67117" lon="6.5733">
        <ele>1517.994</ele>
        <time>2012-01-25T12:01:20Z</time>
      </trkpt>
      <trkpt lat="45.67115" lon="6.57338">
        <ele>1516.665</ele>
        <time>2012-01-25T12:01:30Z</time>
      </trkpt>
      <trkpt lat="45.67107" lon="6.57358">
        <ele>1515.43</ele>
        <time>2012-01-25T12:01:40Z</time>
      </trkpt>
      <trkpt lat="45.67101" lon="6.57374">
        <ele>1513.938</ele>
        <time>2012-01-25T12:01:50Z</time>
      </trkpt>
      <trkpt lat="45.67094" lon="6.57388">
        <ele>1512.651</ele>
        <time>2012-01-25T12:02:00Z</time>
      </trkpt>
      <trkpt lat="45.67086" lon="6.57399">
        <ele>1511.209</ele>
        <time>2012-01-25T12:02:10Z</time>
      </trkpt>
      <trkpt lat="45.67077" lon="6.57412">
        <ele>1509.539</ele>
        <time>2012-01-25T12:02:20Z</time>
      </trkpt>
      <trkpt lat="45.67068" lon="6.57421">
        <ele>1508.406</ele>
        <time>2012-01-25T12:02:30Z</time>
      </trkpt>
      <trkpt lat="45.67059" lon="6.57428">
        <ele>1507.16</ele>
        <time>2012-01-25T12:02:40Z</time>
      </trkpt>
      <trkpt lat="45.67049" lon="6.57432">
        <ele>1505.585</ele>
        <time>2012-01-25T12:02:50Z</time>
      </trkpt>
      <trkpt lat="45.67038" lon="6.57431">
        <ele>1504.492</ele>
        <time>2012-01-25T12:03:00Z</time>
      </trkpt>
      <trkpt lat="45.67031" lon="6.57428">
        <ele>1502.901</ele>
        <time>2012-01-25T12:03:10Z</time>
      </trkpt>
      <trkpt lat="45.67022" lon="6.57432">
        <ele>1501.864</ele>
        <time>2012-01-25T12:03:20Z</time>
      </trkpt>
      <trkpt lat="45.67013" lon="6.57435">
        <ele>1500.357</ele>
        <time>2012-01-25T12:03:30Z</time>
      </trkpt>
      <trkpt lat="45.67007" lon="6.57444">
        <ele>1498.682</ele>
        <time>2012-01-25T12:03:40Z</time>
      </trkpt>
      <trkpt lat="45.67001" lon="6.57453">
        <ele>1498.033</ele>
        <time>2012-01-25T12:03:50Z</time>
      </trkpt>
      <trkpt lat="45.66992" lon="6.57464">
        <ele>1496.371</ele>
        <time>2012-01-25T12:04:00Z</time>
      </trkpt>
      <trkpt lat="45.66984" lon="6.5747">
        <ele>1495.581</ele>
        <time>2012-01-25T12:04:10Z</time>
      </trkpt>
      <trkpt lat="45.66977" lon="6.57469">
        <ele>1494.693</ele>
        <time>2012-01-25T12:04:20Z</time>
      </trkpt>
      <trkpt lat="45.66975" lon="6.5747">
        <ele>1494.767</ele>
        <time>2012-01-25T12:04:30Z</time>
      </trkpt>
      <trkpt lat="45.66973" lon="6.57472">
        <ele>1494.546</ele>
        <time>2012-01-25T12:04:40Z</time>
      </trkpt>
      <trkpt lat="45.66961" lon="6.57474">
        <ele>1493.845</ele>
        <time>2012-01-25T12:04:50Z</time>
      </trkpt>
      <trkpt lat="45.66951" lon="6.57473">
        <ele>1492.345</ele>
        <time>2012-01-25T12:05:00Z</time>
      </trkpt>
      <trkpt lat="45.66946" lon="6.57469">
        <ele>1491.702</ele>
        <time>2012-01-25T12:05:10Z</time>
      </trkpt>
      <trkpt lat="45.66941" lon="6.5747">
        <ele>1491.083</ele>
        <time>2012-01-25T12:05:20Z</time>
      </trkpt>
      <trkpt lat="45.66941" lon="6.57481">
        <ele>1489.431</ele>
        <time>2012-01-25T12:05:30Z</time>
      </trkpt>
      <trkpt lat="45.66948" lon="6.57483">
        <ele>1486.62</ele>
        <time>2012-01-25T12:05:40Z</time>
      </trkpt>
      <trkpt lat="45.66961" lon="6.57487">
        <ele>1484.566</ele>
        <time>2012-01-25T12:05:50Z</time>
      </trkpt>
      <trkpt lat="45.66969" lon="6.57493">
        <ele>1482.399</ele>
        <time>2012-01-25T12:06:00Z</time>
      </trkpt>
      <trkpt lat="45.66971" lon="6.57496">
        <ele>1481.862</ele>
        <time>2012-01-25T12:06:10Z</time>
      </trkpt>
      <trkpt lat="45.66972" lon="6.57498">
        <ele>1482.259</ele>
        <time>2012-01-25T12:06:20Z</time>
      </trkpt>
      <trkpt lat="45.66974" lon="6.57497">
        <ele>1482.352</ele>
        <time>2012-01-25T12:06:30Z</time>
      </trkpt>
      <trkpt lat="45.66974" lon="6.57496">
        <ele>1481.939</ele>
        <time>2012-01-25T12:06:40Z</time>
      </trkpt>
      <trkpt lat="45.66974" lon="6.57495">
        <ele>1481.637</ele>
        <time>2012-01-25T12:06:50Z</time>
      </trkpt>
      <trkpt lat="45.66983" lon="6.57495">
        <ele>1481.688</ele>
        <time>2012-01-25T12:07:00Z</time>
      </trkpt>
      <trkpt lat="45.66982" lon="6.57492">
        <ele>1481.319</ele>
        <time>2012-01-25T12:07:10Z</time>
      </trkpt>
      <trkpt lat="45.66983" lon="6.57491">
        <ele>1481.48</ele>
        <time>2012-01-25T12:07:20Z</time>
      </trkpt>
      <trkpt lat="45.66984" lon="6.57491">
        <ele>1481.494</ele>
        <time>2012-01-25T12:07:30Z</time>
      </trkpt>
      <trkpt lat="45.66984" lon="6.57491">
        <ele>1481.592</ele>
        <time>2012-01-25T12:07:40Z</time>
      </trkpt>
      <trkpt lat="45.66984" lon="6.57491">
        <ele>1481.34</ele>
        <time>2012-01-25T12:07:50Z</time>
      </trkpt>
      <trkpt lat="45.66983" lon="6.57491">
        <ele>1481.247</ele>
        <time>2012-01-25T12:08:00Z</time>
      </trkpt>
      <trkpt lat="45.66983" lon="6.57492">
        <ele>1480.577</ele>
        <time>2012-01-25T12:08:10Z</time>
      </trkpt>
      <trkpt lat="45.66986" lon="6.57494">
        <ele>1480.549</ele>
        <time>2012-01-25T12:08:20Z</time>
      </trkpt>
      <trkpt lat="45.66995" lon="6.57498">
        <ele>1479.881</ele>
        <time>2012-01-25T12:08:30Z</time>
      </trkpt>
      <trkpt lat="45.67006" lon="6.57507">
        <ele>1478.826</ele>
        <time>2012-01-25T12:08:40Z</time>
      </trkpt>
      <trkpt lat="45.67018" lon="6.57508">
        <ele>1477.762</ele>
        <time>2012-01-25T12:08:50Z</time>
      </trkpt>
      <trkpt lat="45.67027" lon="6.57507">
        <ele>1476.938</ele>
        <time>2012-01-25T12:09:00Z</time>
      </trkpt>
      <trkpt lat="45.67032" lon="6.575">
        <ele>1476.315</ele>
        <time>2012-01-25T12:09:10Z</time>
      </trkpt>
      <trkpt lat="45.67043" lon="6.57494">
        <ele>1475.378</ele>
        <time>2012-01-25T12:09:20Z</time>
      </trkpt>
      <trkpt lat="45.67053" lon="6.57493">
        <ele>1474.476</ele>
        <time>2012-01-25T12:09:30Z</time>
      </trkpt>
      <trkpt lat="45.67061" lon="6.57496">
        <ele>1473.952</ele>
        <time>2012-01-25T12:09:40Z</time>
      </trkpt>
      <trkpt lat="45.67072" lon="6.575">
        <ele>1474.573</ele>
        <time>2012-01-25T12:09:50Z</time>
      </trkpt>
      <trkpt lat="45.67082" lon="6.57499">
        <ele>1473.249</ele>
        <time>2012-01-25T12:10:00Z</time>
      </trkpt>
      <trkpt lat="45.6709" lon="6.57493">
        <ele>1472.541</ele>
        <time>2012-01-25T12:10:10Z</time>
      </trkpt>
      <trkpt lat="45.67097" lon="6.57488">
        <ele>1470.676</ele>
        <time>2012-01-25T12:10:20Z</time>
      </trkpt>
      <trkpt lat="45.67101" lon="6.57485">
        <ele>1470.712</ele>
        <time>2012-01-25T12:10:30Z</time>
      </trkpt>
      <trkpt lat="45.67103" lon="6.57485">
        <ele>1470.529</ele>
        <time>2012-01-25T12:10:40Z</time>
      </trkpt>
      <trkpt lat="45.67104" lon="6.57485">
        <ele>1470.339</ele>
        <time>2012-01-25T12:10:50Z</time>
      </trkpt>
      <trkpt lat="45.67105" lon="6.57484">
        <ele>1470</ele>
        <time>2012-01-25T12:11:00Z</time>
      </trkpt>
      <trkpt lat="45.67108" lon="6.57481">
        <ele>1469.138</ele>
        <time>2012-01-25T12:11:10Z</time>
      </trkpt>
      <trkpt lat="45.67114" lon="6.57471">
        <ele>1467.239</ele>
        <time>2012-01-25T12:11:20Z</time>
      </trkpt>
      <trkpt lat="45.67115" lon="6.57467">
        <ele>1466.601</ele>
        <time>2012-01-25T12:11:30Z</time>
      </trkpt>
      <trkpt lat="45.67118" lon="6.57465">
        <ele>1466.277</ele>
        <time>2012-01-25T12:11:40Z</time>
      </trkpt>
      <trkpt lat="45.67124" lon="6.57458">
        <ele>1464.547</ele>
        <time>2012-01-25T12:11:50Z</time>
      </trkpt>
      <trkpt lat="45.67132" lon="6.57454">
        <ele>1463.246</ele>
        <time>2012-01-25T12:12:00Z</time>
      </trkpt>
      <trkpt lat="45.67141" lon="6.57448">
        <ele>1461.836</ele>
        <time>2012-01-25T12:12:10Z</time>
      </trkpt>
      <trkpt lat="45.67152" lon="6.57441">
        <ele>1459.88</ele>
        <time>2012-01-25T12:12:20Z</time>
      </trkpt>
      <trkpt lat="45.67162" lon="6.57437">
        <ele>1458.343</ele>
        <time>2012-01-25T12:12:30Z</time>
      </trkpt>
      <trkpt lat="45.6717" lon="6.57432">
        <ele>1457.368</ele>
        <time>2012-01-25T12:12:40Z</time>
      </trkpt>
      <trkpt lat="45.6718" lon="6.57426">
        <ele>1455.345</ele>
        <time>2012-01-25T12:12:50Z</time>
      </trkpt>
      <trkpt lat="45.67186" lon="6.57417">
        <ele>1453.897</ele>
        <time>2012-01-25T12:13:00Z</time>
      </trkpt>
      <trkpt lat="45.67192" lon="6.57407">
        <ele>1451.859</ele>
        <time>2012-01-25T12:13:10Z</time>
      </trkpt>
      <trkpt lat="45.67199" lon="6.57398">
        <ele>1450.193</ele>
        <time>2012-01-25T12:13:20Z</time>
      </trkpt>
      <trkpt lat="45.67201" lon="6.57385">
        <ele>1448.248</ele>
        <time>2012-01-25T12:13:30Z</time>
      </trkpt>
      <trkpt lat="45.67211" lon="6.57379">
        <ele>1446.64</ele>
        <time>2012-01-25T12:13:40Z</time>
      </trkpt>
      <trkpt lat="45.67218" lon="6.57377">
        <ele>1446.14</ele>
        <time>2012-01-25T12:13:50Z</time>
      </trkpt>
      <trkpt lat="45.67221" lon="6.57373">
        <ele>1445.031</ele>
        <time>2012-01-25T12:14:00Z</time>
      </trkpt>
      <trkpt lat="45.67225" lon="6.57371">
        <ele>1443.882</ele>
        <time>2012-01-25T12:14:10Z</time>
      </trkpt>
      <trkpt lat="45.67231" lon="6.57373">
        <ele>1442.415</ele>
        <time>2012-01-25T12:14:20Z</time>
      </trkpt>
      <trkpt lat="45.67238" lon="6.57359">
        <ele>1440.9</ele>
        <time>2012-01-25T12:14:30Z</time>
      </trkpt>
      <trkpt lat="45.67246" lon="6.5735">
        <ele>1438.648</ele>
        <time>2012-01-25T12:14:40Z</time>
      </trkpt>
      <trkpt lat="45.67255" lon="6.57339">
        <ele>1437.201</ele>
        <time>2012-01-25T12:14:50Z</time>
      </trkpt>
      <trkpt lat="45.67259" lon="6.57328">
        <ele>1436.151</ele>
        <time>2012-01-25T12:15:00Z</time>
      </trkpt>
      <trkpt lat="45.67267" lon="6.57318">
        <ele>1434.725</ele>
        <time>2012-01-25T12:15:10Z</time>
      </trkpt>
      <trkpt lat="45.67275" lon="6.57308">
        <ele>1433.416</ele>
        <time>2012-01-25T12:15:20Z</time>
      </trkpt>
      <trkpt lat="45.67281" lon="6.57294">
        <ele>1431.393</ele>
        <time>2012-01-25T12:15:30Z</time>
      </trkpt>
      <trkpt lat="45.67287" lon="6.57282">
        <ele>1430.301</ele>
        <time>2012-01-25T12:15:40Z</time>
      </trkpt>
      <trkpt lat="45.67295" lon="6.57273">
        <ele>1428.862</ele>
        <time>2012-01-25T12:15:50Z</time>
      </trkpt>
      <trkpt lat="45.67304" lon="6.57264">
        <ele>1427.438</ele>
        <time>2012-01-25T12:16:00Z</time>
      </trkpt>
      <trkpt lat="45.67311" lon="6.57254">
        <ele>1425.66</ele>
        <time>2012-01-25T12:16:10Z</time>
      </trkpt>
      <trkpt lat="45.67315" lon="6.57243">
        <ele>1423.758</ele>
        <time>2012-01-25T12:16:20Z</time>
      </trkpt>
      <trkpt lat="45.6732" lon="6.57233">
        <ele>1422.384</ele>
        <time>2012-01-25T12:16:30Z</time>
      </trkpt>
      <trkpt lat="45.67326" lon="6.57223">
        <ele>1421.137</ele>
        <time>2012-01-25T12:16:40Z</time>
      </trkpt>
      <trkpt lat="45.67335" lon="6.57215">
        <ele>1419.776</ele>
        <time>2012-01-25T12:16:50Z</time>
      </trkpt>
      <trkpt lat="45.67344" lon="6.57202">
        <ele>1418.16</ele>
        <time>2012-01-25T12:17:00Z</time>
      </trkpt>
      <trkpt lat="45.6735" lon="6.57192">
        <ele>1416.876</ele>
        <time>2012-01-25T12:17:10Z</time>
      </trkpt>
      <trkpt lat="45.67358" lon="6.57181">
        <ele>1416.175</ele>
        <time>2012-01-25T12:17:20Z</time>
      </trkpt>
      <trkpt lat="45.67364" lon="6.57171">
        <ele>1414.541</ele>
        <time>2012-01-25T12:17:30Z</time>
      </trkpt>
      <trkpt lat="45.67374" lon="6.57161">
        <ele>1413.296</ele>
        <time>2012-01-25T12:17:40Z</time>
      </trkpt>
      <trkpt lat="45.67384" lon="6.57151">
        <ele>1412.462</ele>
        <time>2012-01-25T12:17:50Z</time>
      </trkpt>
      <trkpt lat="45.67388" lon="6.57138">
        <ele>1411.363</ele>
        <time>2012-01-25T12:18:00Z</time>
      </trkpt>
      <trkpt lat="45.67389" lon="6.57125">
        <ele>1410.759</ele>
        <time>2012-01-25T12:18:10Z</time>
      </trkpt>
      <trkpt lat="45.67397" lon="6.57114">
        <ele>1408.724</ele>
        <time>2012-01-25T12:18:20Z</time>
      </trkpt>
      <trkpt lat="45.67403" lon="6.57124">
        <ele>1407.514</ele>
        <time>2012-01-25T12:18:30Z</time>
      </trkpt>
      <trkpt lat="45.67399" lon="6.57137">
        <ele>1406.832</ele>
        <time>2012-01-25T12:18:40Z</time>
      </trkpt>
      <trkpt lat="45.67399" lon="6.57135">
        <ele>1406.421</ele>
        <time>2012-01-25T12:18:50Z</time>
      </trkpt>
      <trkpt lat="45.67399" lon="6.57135">
        <ele>1406.819</ele>
        <time>2012-01-25T12:19:00Z</time>
      </trkpt>
      <trkpt lat="45.67398" lon="6.57142">
        <ele>1406.074</ele>
        <time>2012-01-25T12:19:10Z</time>
      </trkpt>
      <trkpt lat="45.67397" lon="6.57149">
        <ele>1405.333</ele>
        <time>2012-01-25T12:19:20Z</time>
      </trkpt>
      <trkpt lat="45.67397" lon="6.57155">
        <ele>1405.183</ele>
        <time>2012-01-25T12:19:30Z</time>
      </trkpt>
      <trkpt lat="45.67397" lon="6.57155">
        <ele>1405.031</ele>
        <time>2012-01-25T12:19:40Z</time>
      </trkpt>
      <trkpt lat="45.67397" lon="6.57158">
        <ele>1404.647</ele>
        <time>2012-01-25T12:19:50Z</time>
      </trkpt>
      <trkpt lat="45.67397" lon="6.5716">
        <ele>1404.427</ele>
        <time>2012-01-25T12:20:00Z</time>
      </trkpt>
      <trkpt lat="45.67396" lon="6.5716">
        <ele>1404.579</ele>
        <time>2012-01-25T12:20:10Z</time>
      </trkpt>
      <trkpt lat="45.67397" lon="6.57157">
        <ele>1404.076</ele>
        <time>2012-01-25T12:20:20Z</time>
      </trkpt>
      <trkpt lat="45.67397" lon="6.57155">
        <ele>1404.273</ele>
        <time>2012-01-25T12:20:30Z</time>
      </trkpt>
      <trkpt lat="45.67391" lon="6.57163">
        <ele>1404.137</ele>
        <time>2012-01-25T12:20:40Z</time>
      </trkpt>
      <trkpt lat="45.67385" lon="6.57177">
        <ele>1402.232</ele>
        <time>2012-01-25T12:20:50Z</time>
      </trkpt>
      <trkpt lat="45.67381" lon="6.57188">
        <ele>1401.053</ele>
        <time>2012-01-25T12:21:00Z</time>
      </trkpt>
      <trkpt lat="45.67377" lon="6.57198">
        <ele>1399.777</ele>
        <time>2012-01-25T12:21:10Z</time>
      </trkpt>
      <trkpt lat="45.67373" lon="6.57213">
        <ele>1398.563</ele>
        <time>2012-01-25T12:21:20Z</time>
      </trkpt>
      <trkpt lat="45.67368" lon="6.57223">
        <ele>1397.403</ele>
        <time>2012-01-25T12:21:30Z</time>
      </trkpt>
      <trkpt lat="45.67365" lon="6.57234">
        <ele>1396.363</ele>
        <time>2012-01-25T12:21:40Z</time>
      </trkpt>
      <trkpt lat="45.67361" lon="6.57247">
        <ele>1394.343</ele>
        <time>2012-01-25T12:21:50Z</time>
      </trkpt>
      <trkpt lat="45.67357" lon="6.57259">
        <ele>1393.035</ele>
        <time>2012-01-25T12:22:00Z</time>
      </trkpt>
      <trkpt lat="45.67354" lon="6.57276">
        <ele>1392.173</ele>
        <time>2012-01-25T12:22:10Z</time>
      </trkpt>
      <trkpt lat="45.67352" lon="6.57289">
        <ele>1391.17</ele>
        <time>2012-01-25T12:22:20Z</time>
      </trkpt>
      <trkpt lat="45.67346" lon="6.57301">
        <ele>1389.798</ele>
        <time>2012-01-25T12:22:30Z</time>
      </trkpt>
      <trkpt lat="45.67344" lon="6.57315">
        <ele>1388.549</ele>
        <time>2012-01-25T12:22:40Z</time>
      </trkpt>
      <trkpt lat="45.67343" lon="6.57328">
        <ele>1387.443</ele>
        <time>2012-01-25T12:22:50Z</time>
      </trkpt>
      <trkpt lat="45.67339" lon="6.57344">
        <ele>1386.08</ele>
        <time>2012-01-25T12:23:00Z</time>
      </trkpt>
      <trkpt lat="45.67334" lon="6.57356">
        <ele>1384.316</ele>
        <time>2012-01-25T12:23:10Z</time>
      </trkpt>
      <trkpt lat="45.67327" lon="6.57367">
        <ele>1382.884</ele>
        <time>2012-01-25T12:23:20Z</time>
      </trkpt>
      <trkpt lat="45.67323" lon="6.57379">
        <ele>1382.381</ele>
        <time>2012-01-25T12:23:30Z</time>
      </trkpt>
      <trkpt lat="45.67318" lon="6.57389">
        <ele>1380.303</ele>
        <time>2012-01-25T12:23:40Z</time>
      </trkpt>
      <trkpt lat="45.67314" lon="6.57403">
        <ele>1379.088</ele>
        <time>2012-01-25T12:23:50Z</time>
      </trkpt>
      <trkpt lat="45.67312" lon="6.57418">
        <ele>1377.187</ele>
        <time>2012-01-25T12:24:00Z</time>
      </trkpt>
      <trkpt lat="45.67306" lon="6.57427">
        <ele>1376.092</ele>
        <time>2012-01-25T12:24:10Z</time>
      </trkpt>
      <trkpt lat="45.67302" lon="6.57436">
        <ele>1374.558</ele>
        <time>2012-01-25T12:24:20Z</time>
      </trkpt>
      <trkpt lat="45.67296" lon="6.57445">
        <ele>1373.04</ele>
        <time>2012-01-25T12:24:30Z</time>
      </trkpt>
      <trkpt lat="45.67291" lon="6.57455">
        <ele>1371.915</ele>
        <time>2012-01-25T12:24:40Z</time>
      </trkpt>
      <trkpt lat="45.67286" lon="6.5747">
        <ele>1370.177</ele>
        <time>2012-01-25T12:24:50Z</time>
      </trkpt>
      <trkpt lat="45.67279" lon="6.57484">
        <ele>1368.813</ele>
        <time>2012-01-25T12:25:00Z</time>
      </trkpt>
      <trkpt lat="45.67273" lon="6.5749">
        <ele>1366.902</ele>
        <time>2012-01-25T12:25:10Z</time>
      </trkpt>
      <trkpt lat="45.67268" lon="6.57506">
        <ele>1365.776</ele>
        <time>2012-01-25T12:25:20Z</time>
      </trkpt>
      <trkpt lat="45.6726" lon="6.57516">
        <ele>1364.152</ele>
        <time>2012-01-25T12:25:30Z</time>
      </trkpt>
      <trkpt lat="45.67253" lon="6.57524">
        <ele>1362.628</ele>
        <time>2012-01-25T12:25:40Z</time>
      </trkpt>
      <trkpt lat="45.67247" lon="6.57534">
        <ele>1361.24</ele>
        <time>2012-01-25T12:25:50Z</time>
      </trkpt>
      <trkpt lat="45.67243" lon="6.57547">
        <ele>1359.592</ele>
        <time>2012-01-25T12:26:00Z</time>
      </trkpt>
      <trkpt lat="45.67235" lon="6.5756">
        <ele>1358.582</ele>
        <time>2012-01-25T12:26:10Z</time>
      </trkpt>
      <trkpt lat="45.67226" lon="6.57576">
        <ele>1357.1</ele>
        <time>2012-01-25T12:26:20Z</time>
      </trkpt>
      <trkpt lat="45.67218" lon="6.57588">
        <ele>1355.723</ele>
        <time>2012-01-25T12:26:30Z</time>
      </trkpt>
      <trkpt lat="45.6721" lon="6.57596">
        <ele>1354.14</ele>
        <time>2012-01-25T12:26:40Z</time>
      </trkpt>
      <trkpt lat="45.67211" lon="6.57602">
        <ele>1352.538</ele>
        <time>2012-01-25T12:26:50Z</time>
      </trkpt>
      <trkpt lat="45.67215" lon="6.57605">
        <ele>1351.157</ele>
        <time>2012-01-25T12:27:00Z</time>
      </trkpt>
      <trkpt lat="45.67224" lon="6.576">
        <ele>1350.242</ele>
        <time>2012-01-25T12:27:10Z</time>
      </trkpt>
      <trkpt lat="45.67229" lon="6.57592">
        <ele>1348.295</ele>
        <time>2012-01-25T12:27:20Z</time>
      </trkpt>
      <trkpt lat="45.67237" lon="6.57583">
        <ele>1347.542</ele>
        <time>2012-01-25T12:27:30Z</time>
      </trkpt>
      <trkpt lat="45.67248" lon="6.57578">
        <ele>1345.975</ele>
        <time>2012-01-25T12:27:40Z</time>
      </trkpt>
      <trkpt lat="45.67259" lon="6.57571">
        <ele>1344.178</ele>
        <time>2012-01-25T12:27:50Z</time>
      </trkpt>
      <trkpt lat="45.67268" lon="6.57565">
        <ele>1342.934</ele>
        <time>2012-01-25T12:28:00Z</time>
      </trkpt>
      <trkpt lat="45.67277" lon="6.57561">
        <ele>1341.221</ele>
        <time>2012-01-25T12:28:10Z</time>
      </trkpt>
      <trkpt lat="45.67289" lon="6.57557">
        <ele>1339.633</ele>
        <time>2012-01-25T12:28:20Z</time>
      </trkpt>
      <trkpt lat="45.67299" lon="6.57551">
        <ele>1338.019</ele>
        <time>2012-01-25T12:28:30Z</time>
      </trkpt>
      <trkpt lat="45.67306" lon="6.57546">
        <ele>1336.708</ele>
        <time>2012-01-25T12:28:40Z</time>
      </trkpt>
      <trkpt lat="45.67317" lon="6.57541">
        <ele>1335.501</ele>
        <time>2012-01-25T12:28:50Z</time>
      </trkpt>
      <trkpt lat="45.67323" lon="6.57541">
        <ele>1334.354</ele>
        <time>2012-01-25T12:29:00Z</time>
      </trkpt>
      <trkpt lat="45.67331" lon="6.5754">
        <ele>1332.79</ele>
        <time>2012-01-25T12:29:10Z</time>
      </trkpt>
      <trkpt lat="45.6734" lon="6.5754">
        <ele>1331.362</ele>
        <time>2012-01-25T12:29:20Z</time>
      </trkpt>
      <trkpt lat="45.6735" lon="6.57532">
        <ele>1329.811</ele>
        <time>2012-01-25T12:29:30Z</time>
      </trkpt>
      <trkpt lat="45.67355" lon="6.57525">
        <ele>1328.484</ele>
        <time>2012-01-25T12:29:40Z</time>
      </trkpt>
      <trkpt lat="45.6736" lon="6.57513">
        <ele>1326.954</ele>
        <time>2012-01-25T12:29:50Z</time>
      </trkpt>
      <trkpt lat="45.67364" lon="6.57501">
        <ele>1325.078</ele>
        <time>2012-01-25T12:30:00Z</time>
      </trkpt>
      <trkpt lat="45.67368" lon="6.57489">
        <ele>1323.915</ele>
        <time>2012-01-25T12:30:10Z</time>
      </trkpt>
      <trkpt lat="45.67376" lon="6.57484">
        <ele>1322.848</ele>
        <time>2012-01-25T12:30:20Z</time>
      </trkpt>
      <trkpt lat="45.67381" lon="6.57482">
        <ele>1322.854</ele>
        <time>2012-01-25T12:30:30Z</time>
      </trkpt>
      <trkpt lat="45.67384" lon="6.57481">
        <ele>1322.634</ele>
        <time>2012-01-25T12:30:40Z</time>
      </trkpt>
      <trkpt lat="45.67384" lon="6.5748">
        <ele>1322.792</ele>
        <time>2012-01-25T12:30:50Z</time>
      </trkpt>
      <trkpt lat="45.67384" lon="6.57481">
        <ele>1322.903</ele>
        <time>2012-01-25T12:31:00Z</time>
      </trkpt>
      <trkpt lat="45.67383" lon="6.57481">
        <ele>1322.971</ele>
        <time>2012-01-25T12:31:10Z</time>
      </trkpt>
      <trkpt lat="45.67383" lon="6.57481">
        <ele>1322.531</ele>
        <time>2012-01-25T12:31:20Z</time>
      </trkpt>
      <trkpt lat="45.67386" lon="6.57471">
        <ele>1320.993</ele>
        <time>2012-01-25T12:31:30Z</time>
      </trkpt>
      <trkpt lat="45.67391" lon="6.57458">
        <ele>1319.163</ele>
        <time>2012-01-25T12:31:40Z</time>
      </trkpt>
      <trkpt lat="45.67399" lon="6.57448">
        <ele>1317.62</ele>
        <time>2012-01-25T12:31:50Z</time>
      </trkpt>
      <trkpt lat="45.67405" lon="6.57435">
        <ele>1316.038</ele>
        <time>2012-01-25T12:32:00Z</time>
      </trkpt>
      <trkpt lat="45.67411" lon="6.57423">
        <ele>1314.676</ele>
        <time>2012-01-25T12:32:10Z</time>
      </trkpt>
      <trkpt lat="45.67419" lon="6.57414">
        <ele>1312.277</ele>
        <time>2012-01-25T12:32:20Z</time>
      </trkpt>
      <trkpt lat="45.67427" lon="6.57402">
        <ele>1311.201</ele>
        <time>2012-01-25T12:32:30Z</time>
      </trkpt>
      <trkpt lat="45.67434" lon="6.57393">
        <ele>1310.016</ele>
        <time>2012-01-25T12:32:40Z</time>
      </trkpt>
      <trkpt lat="45.67443" lon="6.57386">
        <ele>1308.266</ele>
        <time>2012-01-25T12:32:50Z</time>
      </trkpt>
      <trkpt lat="45.6745" lon="6.57375">
        <ele>1306.489</ele>
        <time>2012-01-25T12:33:00Z</time>
      </trkpt>
      <trkpt lat="45.67455" lon="6.57362">
        <ele>1304.86</ele>
        <time>2012-01-25T12:33:10Z</time>
      </trkpt>
      <trkpt lat="45.67462" lon="6.57348">
        <ele>1303.224</ele>
        <time>2012-01-25T12:33:20Z</time>
      </trkpt>
      <trkpt lat="45.67472" lon="6.5734">
        <ele>1301.637</ele>
        <time>2012-01-25T12:33:30Z</time>
      </trkpt>
      <trkpt lat="45.67478" lon="6.5733">
        <ele>1299.878</ele>
        <time>2012-01-25T12:33:40Z</time>
      </trkpt>
      <trkpt lat="45.67484" lon="6.57318">
        <ele>1298.243</ele>
        <time>2012-01-25T12:33:50Z</time>
      </trkpt>
      <trkpt lat="45.67489" lon="6.5731">
        <ele>1297.321</ele>
        <time>2012-01-25T12:34:00Z</time>
      </trkpt>
      <trkpt lat="45.67496" lon="6.57301">
        <ele>1296.237</ele>
        <time>2012-01-25T12:34:10Z</time>
      </trkpt>
      <trkpt lat="45.67501" lon="6.57289">
        <ele>1294.214</ele>
        <time>2012-01-25T12:34:20Z</time>
      </trkpt>
      <trkpt lat="45.67507" lon="6.57279">
        <ele>1292.747</ele>
        <time>2012-01-25T12:34:30Z</time>
      </trkpt>
      <trkpt lat="45.67513" lon="6.57269">
        <ele>1291.196</ele>
        <time>2012-01-25T12:34:40Z</time>
      </trkpt>
      <trkpt lat="45.67518" lon="6.57255">
        <ele>1290.416</ele>
        <time>2012-01-25T12:34:50Z</time>
      </trkpt>
      <trkpt lat="45.67526" lon="6.57242">
        <ele>1288.576</ele>
        <time>2012-01-25T12:35:00Z</time>
      </trkpt>
      <trkpt lat="45.67533" lon="6.57232">
        <ele>1287.255</ele>
        <time>2012-01-25T12:35:10Z</time>
      </trkpt>
      <trkpt lat="45.67539" lon="6.57222">
        <ele>1286.031</ele>
        <time>2012-01-25T12:35:20Z</time>
      </trkpt>
      <trkpt lat="45.67545" lon="6.57212">
        <ele>1284.175</ele>
        <time>2012-01-25T12:35:30Z</time>
      </trkpt>
      <trkpt lat="45.67552" lon="6.57205">
        <ele>1283.051</ele>
        <time>2012-01-25T12:35:40Z</time>
      </trkpt>
      <trkpt lat="45.67558" lon="6.57193">
        <ele>1282.193</ele>
        <time>2012-01-25T12:35:50Z</time>
      </trkpt>
      <trkpt lat="45.67564" lon="6.57183">
        <ele>1281.679</ele>
        <time>2012-01-25T12:36:00Z</time>
      </trkpt>
      <trkpt lat="45.67569" lon="6.57173">
        <ele>1280.307</ele>
        <time>2012-01-25T12:36:10Z</time>
      </trkpt>
      <trkpt lat="45.67574" lon="6.57159">
        <ele>1279.202</ele>
        <time>2012-01-25T12:36:20Z</time>
      </trkpt>
      <trkpt lat="45.67581" lon="6.57156">
        <ele>1278.083</ele>
        <time>2012-01-25T12:36:30Z</time>
      </trkpt>
      <trkpt lat="45.67577" lon="6.57149">
        <ele>1278.95</ele>
        <time>2012-01-25T12:36:40Z</time>
      </trkpt>
      <trkpt lat="45.67578" lon="6.57151">
        <ele>1279.282</ele>
        <time>2012-01-25T12:36:50Z</time>
      </trkpt>
      <trkpt lat="45.67578" lon="6.57151">
        <ele>1279.147</ele>
        <time>2012-01-25T12:37:00Z</time>
      </trkpt>
      <trkpt lat="45.67583" lon="6.57154">
        <ele>1278.825</ele>
        <time>2012-01-25T12:37:10Z</time>
      </trkpt>
      <trkpt lat="45.67583" lon="6.57154">
        <ele>1279.576</ele>
        <time>2012-01-25T12:37:20Z</time>
      </trkpt>
      <trkpt lat="45.67583" lon="6.57154">
        <ele>1279.444</ele>
        <time>2012-01-25T12:37:30Z</time>
      </trkpt>
      <trkpt lat="45.67583" lon="6.57154">
        <ele>1279.49</ele>
        <time>2012-01-25T12:37:40Z</time>
      </trkpt>
      <trkpt lat="45.67583" lon="6.57154">
        <ele>1279.534</ele>
        <time>2012-01-25T12:37:50Z</time>
      </trkpt>
      <trkpt lat="45.67583" lon="6.57154">
        <ele>1279.948</ele>
        <time>2012-01-25T12:38:00Z</time>
      </trkpt>
      <trkpt lat="45.67583" lon="6.57155">
        <ele>1279.806</ele>
        <time>2012-01-25T12:38:10Z</time>
      </trkpt>
      <trkpt lat="45.67583" lon="6.57155">
        <ele>1279.874</ele>
        <time>2012-01-25T12:38:20Z</time>
      </trkpt>
      <trkpt lat="45.67584" lon="6.57154">
        <ele>1279.867</ele>
        <time>2012-01-25T12:38:30Z</time>
      </trkpt>
      <trkpt lat="45.67584" lon="6.57154">
        <ele>1280.103</ele>
        <time>2012-01-25T12:38:40Z</time>
      </trkpt>
      <trkpt lat="45.67584" lon="6.57153">
        <ele>1279.894</ele>
        <time>2012-01-25T12:38:50Z</time>
      </trkpt>
      <trkpt lat="45.67585" lon="6.57152">
        <ele>1280.119</ele>
        <time>2012-01-25T12:39:00Z</time>
      </trkpt>
      <trkpt lat="45.67585" lon="6.57152">
        <ele>1279.523</ele>
        <time>2012-01-25T12:39:10Z</time>
      </trkpt>
      <trkpt lat="45.67585" lon="6.57152">
        <ele>1280.009</ele>
        <time>2012-01-25T12:39:20Z</time>
      </trkpt>
      <trkpt lat="45.67585" lon="6.57152">
        <ele>1280.113</ele>
        <time>2012-01-25T12:39:30Z</time>
      </trkpt>
      <trkpt lat="45.67585" lon="6.57152">
        <ele>1280.324</ele>
        <time>2012-01-25T12:39:40Z</time>
      </trkpt>
      <trkpt lat="45.67585" lon="6.57152">
        <ele>1281.32</ele>
        <time>2012-01-25T12:39:50Z</time>
      </trkpt>
      <trkpt lat="45.67585" lon="6.57152">
        <ele>1280.914</ele>
        <time>2012-01-25T12:40:00Z</time>
      </trkpt>
      <trkpt lat="45.67586" lon="6.57153">
        <ele>1280.908</ele>
        <time>2012-01-25T12:40:10Z</time>
      </trkpt>
      <trkpt lat="45.67585" lon="6.57155">
        <ele>1280.293</ele>
        <time>2012-01-25T12:40:20Z</time>
      </trkpt>
      <trkpt lat="45.67585" lon="6.57156">
        <ele>1280.308</ele>
        <time>2012-01-25T12:40:30Z</time>
      </trkpt>
      <trkpt lat="45.67585" lon="6.57157">
        <ele>1279.458</ele>
        <time>2012-01-25T12:40:40Z</time>
      </trkpt>
      <trkpt lat="45.67585" lon="6.57157">
        <ele>1281.323</ele>
        <time>2012-01-25T12:40:50Z</time>
      </trkpt>
      <trkpt lat="45.67585" lon="6.57157">
        <ele>1280.986</ele>
        <time>2012-01-25T12:41:00Z</time>
      </trkpt>
      <trkpt lat="45.67586" lon="6.57157">
        <ele>1280.604</ele>
        <time>2012-01-25T12:41:10Z</time>
      </trkpt>
      <trkpt lat="45.67585" lon="6.57157">
        <ele>1280.98</ele>
        <time>2012-01-25T12:41:20Z</time>
      </trkpt>
      <trkpt lat="45.67585" lon="6.57158">
        <ele>1281.335</ele>
        <time>2012-01-25T12:41:30Z</time>
      </trkpt>
      <trkpt lat="45.67585" lon="6.57158">
        <ele>1281.231</ele>
        <time>2012-01-25T12:41:40Z</time>
      </trkpt>
      <trkpt lat="45.67586" lon="6.57158">
        <ele>1281.064</ele>
        <time>2012-01-25T12:41:50Z</time>
      </trkpt>
      <trkpt lat="45.67586" lon="6.57159">
        <ele>1281.577</ele>
        <time>2012-01-25T12:42:00Z</time>
      </trkpt>
      <trkpt lat="45.67586" lon="6.57159">
        <ele>1281.304</ele>
        <time>2012-01-25T12:42:10Z</time>
      </trkpt>
      <trkpt lat="45.67586" lon="6.57159">
        <ele>1280.738</ele>
        <time>2012-01-25T12:42:20Z</time>
      </trkpt>
      <trkpt lat="45.67586" lon="6.57159">
        <ele>1280.914</ele>
        <time>2012-01-25T12:42:30Z</time>
      </trkpt>
      <trkpt lat="45.67586" lon="6.57159">
        <ele>1280.866</ele>
        <time>2012-01-25T12:42:40Z</time>
      </trkpt>
      <trkpt lat="45.67586" lon="6.57159">
        <ele>1282.317</ele>
        <time>2012-01-25T12:42:50Z</time>
      </trkpt>
      <trkpt lat="45.67585" lon="6.5716">
        <ele>1281.865</ele>
        <time>2012-01-25T12:43:00Z</time>
      </trkpt>
      <trkpt lat="45.67585" lon="6.5716">
        <ele>1281.669</ele>
        <time>2012-01-25T12:43:10Z</time>
      </trkpt>
      <trkpt lat="45.67586" lon="6.5716">
        <ele>1281.786</ele>
        <time>2012-01-25T12:43:20Z</time>
      </trkpt>
      <trkpt lat="45.67586" lon="6.5716">
        <ele>1281.452</ele>
        <time>2012-01-25T12:43:30Z</time>
      </trkpt>
      <trkpt lat="45.67585" lon="6.5716">
        <ele>1282.857</ele>
        <time>2012-01-25T12:43:40Z</time>
      </trkpt>
      <trkpt lat="45.67584" lon="6.5716">
        <ele>1281.681</ele>
        <time>2012-01-25T12:43:50Z</time>
      </trkpt>
      <trkpt lat="45.67587" lon="6.57167">
        <ele>1282.057</ele>
        <time>2012-01-25T12:44:00Z</time>
      </trkpt>
      <trkpt lat="45.67584" lon="6.57174">
        <ele>1280.775</ele>
        <time>2012-01-25T12:44:10Z</time>
      </trkpt>
      <trkpt lat="45.67578" lon="6.57177">
        <ele>1280.825</ele>
        <time>2012-01-25T12:44:20Z</time>
      </trkpt>
      <trkpt lat="45.67577" lon="6.57174">
        <ele>1280.316</ele>
        <time>2012-01-25T12:44:30Z</time>
      </trkpt>
      <trkpt lat="45.67575" lon="6.57174">
        <ele>1280.447</ele>
        <time>2012-01-25T12:44:40Z</time>
      </trkpt>
      <trkpt lat="45.67574" lon="6.57186">
        <ele>1279.318</ele>
        <time>2012-01-25T12:44:50Z</time>
      </trkpt>
      <trkpt lat="45.67573" lon="6.57199">
        <ele>1278.415</ele>
        <time>2012-01-25T12:45:00Z</time>
      </trkpt>
      <trkpt lat="45.6757" lon="6.57218">
        <ele>1277.46</ele>
        <time>2012-01-25T12:45:10Z</time>
      </trkpt>
      <trkpt lat="45.6757" lon="6.57229">
        <ele>1276.506</ele>
        <time>2012-01-25T12:45:20Z</time>
      </trkpt>
      <trkpt lat="45.67572" lon="6.5724">
        <ele>1275.14</ele>
        <time>2012-01-25T12:45:30Z</time>
      </trkpt>
      <trkpt lat="45.67575" lon="6.5725">
        <ele>1274.192</ele>
        <time>2012-01-25T12:45:40Z</time>
      </trkpt>
      <trkpt lat="45.67575" lon="6.57259">
        <ele>1272.697</ele>
        <time>2012-01-25T12:45:50Z</time>
      </trkpt>
      <trkpt lat="45.67571" lon="6.57272">
        <ele>1271.527</ele>
        <time>2012-01-25T12:46:00Z</time>
      </trkpt>
      <trkpt lat="45.6757" lon="6.57286">
        <ele>1270.355</ele>
        <time>2012-01-25T12:46:10Z</time>
      </trkpt>
      <trkpt lat="45.67569" lon="6.57303">
        <ele>1269.23</ele>
        <time>2012-01-25T12:46:20Z</time>
      </trkpt>
      <trkpt lat="45.67572" lon="6.57299">
        <ele>1267.249</ele>
        <time>2012-01-25T12:46:30Z</time>
      </trkpt>
      <trkpt lat="45.67574" lon="6.57292">
        <ele>1266.291</ele>
        <time>2012-01-25T12:46:40Z</time>
      </trkpt>
      <trkpt lat="45.67574" lon="6.57284">
        <ele>1265.571</ele>
        <time>2012-01-25T12:46:50Z</time>
      </trkpt>
      <trkpt lat="45.67572" lon="6.57271">
        <ele>1264.188</ele>
        <time>2012-01-25T12:47:00Z</time>
      </trkpt>
      <trkpt lat="45.6758" lon="6.57265">
        <ele>1263.492</ele>
        <time>2012-01-25T12:47:10Z</time>
      </trkpt>
      <trkpt lat="45.67592" lon="6.57258">
        <ele>1262.149</ele>
        <time>2012-01-25T12:47:20Z</time>
      </trkpt>
      <trkpt lat="45.676" lon="6.57251">
        <ele>1260.742</ele>
        <time>2012-01-25T12:47:30Z</time>
      </trkpt>
      <trkpt lat="45.67609" lon="6.57243">
        <ele>1259.601</ele>
        <time>2012-01-25T12:47:40Z</time>
      </trkpt>
      <trkpt lat="45.67619" lon="6.57234">
        <ele>1258.783</ele>
        <time>2012-01-25T12:47:50Z</time>
      </trkpt>
      <trkpt lat="45.67625" lon="6.57221">
        <ele>1258.117</ele>
        <time>2012-01-25T12:48:00Z</time>
      </trkpt>
      <trkpt lat="45.67626" lon="6.57209">
        <ele>1257.51</ele>
        <time>2012-01-25T12:48:10Z</time>
      </trkpt>
      <trkpt lat="45.67623" lon="6.57197">
        <ele>1255.681</ele>
        <time>2012-01-25T12:48:20Z</time>
      </trkpt>
      <trkpt lat="45.67624" lon="6.57179">
        <ele>1254.292</ele>
        <time>2012-01-25T12:48:30Z</time>
      </trkpt>
      <trkpt lat="45.67625" lon="6.57163">
        <ele>1252.64</ele>
        <time>2012-01-25T12:48:40Z</time>
      </trkpt>
      <trkpt lat="45.67628" lon="6.57151">
        <ele>1251.321</ele>
        <time>2012-01-25T12:48:50Z</time>
      </trkpt>
      <trkpt lat="45.67643" lon="6.57153">
        <ele>1249.866</ele>
        <time>2012-01-25T12:49:00Z</time>
      </trkpt>
      <trkpt lat="45.67655" lon="6.57159">
        <ele>1247.893</ele>
        <time>2012-01-25T12:49:10Z</time>
      </trkpt>
      <trkpt lat="45.67667" lon="6.57167">
        <ele>1246.066</ele>
        <time>2012-01-25T12:49:20Z</time>
      </trkpt>
      <trkpt lat="45.67679" lon="6.57166">
        <ele>1244.722</ele>
        <time>2012-01-25T12:49:30Z</time>
      </trkpt>
      <trkpt lat="45.67687" lon="6.57171">
        <ele>1242.646</ele>
        <time>2012-01-25T12:49:40Z</time>
      </trkpt>
      <trkpt lat="45.67701" lon="6.57175">
        <ele>1240.973</ele>
        <time>2012-01-25T12:49:50Z</time>
      </trkpt>
      <trkpt lat="45.6771" lon="6.5718">
        <ele>1239.231</ele>
        <time>2012-01-25T12:50:00Z</time>
      </trkpt>
      <trkpt lat="45.67716" lon="6.57184">
        <ele>1237.696</ele>
        <time>2012-01-25T12:50:10Z</time>
      </trkpt>
      <trkpt lat="45.67723" lon="6.57187">
        <ele>1237</ele>
        <time>2012-01-25T12:50:20Z</time>
      </trkpt>
      <trkpt lat="45.67725" lon="6.5719">
        <ele>1236.657</ele>
        <time>2012-01-25T12:50:30Z</time>
      </trkpt>
      <trkpt lat="45.67724" lon="6.5719">
        <ele>1236.579</ele>
        <time>2012-01-25T12:50:40Z</time>
      </trkpt>
      <trkpt lat="45.67724" lon="6.5719">
        <ele>1235.634</ele>
        <time>2012-01-25T12:50:50Z</time>
      </trkpt>
      <trkpt lat="45.67724" lon="6.57191">
        <ele>1236.178</ele>
        <time>2012-01-25T12:51:00Z</time>
      </trkpt>
      <trkpt lat="45.67724" lon="6.5719">
        <ele>1235.552</ele>
        <time>2012-01-25T12:51:10Z</time>
      </trkpt>
      <trkpt lat="45.67726" lon="6.57191">
        <ele>1235.934</ele>
        <time>2012-01-25T12:51:20Z</time>
      </trkpt>
      <trkpt lat="45.67724" lon="6.57188">
        <ele>1236.306</ele>
        <time>2012-01-25T12:51:30Z</time>
      </trkpt>
      <trkpt lat="45.67724" lon="6.57188">
        <ele>1235.853</ele>
        <time>2012-01-25T12:51:40Z</time>
      </trkpt>
      <trkpt lat="45.67724" lon="6.57188">
        <ele>1235.761</ele>
        <time>2012-01-25T12:51:50Z</time>
      </trkpt>
      <trkpt lat="45.67723" lon="6.57187">
        <ele>1235.949</ele>
        <time>2012-01-25T12:52:00Z</time>
      </trkpt>
      <trkpt lat="45.67723" lon="6.57187">
        <ele>1235.882</ele>
        <time>2012-01-25T12:52:10Z</time>
      </trkpt>
      <trkpt lat="45.67725" lon="6.57189">
        <ele>1235.241</ele>
        <time>2012-01-25T12:52:20Z</time>
      </trkpt>
      <trkpt lat="45.67725" lon="6.57189">
        <ele>1235.346</ele>
        <time>2012-01-25T12:52:30Z</time>
      </trkpt>
      <trkpt lat="45.67725" lon="6.57189">
        <ele>1235.45</ele>
        <time>2012-01-25T12:52:40Z</time>
      </trkpt>
      <trkpt lat="45.67725" lon="6.57189">
        <ele>1235.323</ele>
        <time>2012-01-25T12:52:50Z</time>
      </trkpt>
      <trkpt lat="45.67725" lon="6.57189">
        <ele>1235.486</ele>
        <time>2012-01-25T12:53:00Z</time>
      </trkpt>
      <trkpt lat="45.67725" lon="6.57189">
        <ele>1235.488</ele>
        <time>2012-01-25T12:53:10Z</time>
      </trkpt>
      <trkpt lat="45.67725" lon="6.57189">
        <ele>1235.078</ele>
        <time>2012-01-25T12:53:20Z</time>
      </trkpt>
      <trkpt lat="45.67725" lon="6.57189">
        <ele>1235.17</ele>
        <time>2012-01-25T12:53:30Z</time>
      </trkpt>
      <trkpt lat="45.67725" lon="6.57189">
        <ele>1235.421</ele>
        <time>2012-01-25T12:53:40Z</time>
      </trkpt>
      <trkpt lat="45.67725" lon="6.57189">
        <ele>1235.252</ele>
        <time>2012-01-25T12:53:50Z</time>
      </trkpt>
      <trkpt lat="45.67721" lon="6.57186">
        <ele>1235.821</ele>
        <time>2012-01-25T12:54:00Z</time>
      </trkpt>
      <trkpt lat="45.67717" lon="6.57183">
        <ele>1236.326</ele>
        <time>2012-01-25T12:54:10Z</time>
      </trkpt>
      <trkpt lat="45.67718" lon="6.57184">
        <ele>1236.041</ele>
        <time>2012-01-25T12:54:20Z</time>
      </trkpt>
      <trkpt lat="45.67721" lon="6.57186">
        <ele>1235.627</ele>
        <time>2012-01-25T12:54:30Z</time>
      </trkpt>
      <trkpt lat="45.6772" lon="6.57186">
        <ele>1235.73</ele>
        <time>2012-01-25T12:54:40Z</time>
      </trkpt>
      <trkpt lat="45.6772" lon="6.57187">
        <ele>1235.648</ele>
        <time>2012-01-25T12:54:50Z</time>
      </trkpt>
      <trkpt lat="45.6772" lon="6.57187">
        <ele>1235.613</ele>
        <time>2012-01-25T12:55:00Z</time>
      </trkpt>
      <trkpt lat="45.6772" lon="6.57187">
        <ele>1235.471</ele>
        <time>2012-01-25T12:55:10Z</time>
      </trkpt>
      <trkpt lat="45.6772" lon="6.57187">
        <ele>1235.569</ele>
        <time>2012-01-25T12:55:20Z</time>
      </trkpt>
      <trkpt lat="45.6772" lon="6.57187">
        <ele>1235.944</ele>
        <time>2012-01-25T12:55:30Z</time>
      </trkpt>
      <trkpt lat="45.6772" lon="6.57187">
        <ele>1235.427</ele>
        <time>2012-01-25T12:55:40Z</time>
      </trkpt>
      <trkpt lat="45.6772" lon="6.57187">
        <ele>1235.539</ele>
        <time>2012-01-25T12:55:50Z</time>
      </trkpt>
      <trkpt lat="45.6772" lon="6.57187">
        <ele>1235.359</ele>
        <time>2012-01-25T12:56:00Z</time>
      </trkpt>
      <trkpt lat="45.67721" lon="6.57188">
        <ele>1235.362</ele>
        <time>2012-01-25T12:56:10Z</time>
      </trkpt>
      <trkpt lat="45.6773" lon="6.57187">
        <ele>1234.644</ele>
        <time>2012-01-25T12:56:20Z</time>
      </trkpt>
      <trkpt lat="45.6773" lon="6.57187">
        <ele>1234.577</ele>
        <time>2012-01-25T12:56:30Z</time>
      </trkpt>
      <trkpt lat="45.6773" lon="6.57187">
        <ele>1234.588</ele>
        <time>2012-01-25T12:56:40Z</time>
      </trkpt>
      <trkpt lat="45.67727" lon="6.57184">
        <ele>1234.896</ele>
        <time>2012-01-25T12:56:50Z</time>
      </trkpt>
      <trkpt lat="45.67728" lon="6.57185">
        <ele>1234.758</ele>
        <time>2012-01-25T12:57:00Z</time>
      </trkpt>
      <trkpt lat="45.67728" lon="6.57185">
        <ele>1234.833</ele>
        <time>2012-01-25T12:57:10Z</time>
      </trkpt>
      <trkpt lat="45.67728" lon="6.57184">
        <ele>1234.93</ele>
        <time>2012-01-25T12:57:20Z</time>
      </trkpt>
      <trkpt lat="45.67728" lon="6.57184">
        <ele>1234.884</ele>
        <time>2012-01-25T12:57:30Z</time>
      </trkpt>
      <trkpt lat="45.67728" lon="6.57184">
        <ele>1235.065</ele>
        <time>2012-01-25T12:57:40Z</time>
      </trkpt>
      <trkpt lat="45.67728" lon="6.57184">
        <ele>1235.11</ele>
        <time>2012-01-25T12:57:50Z</time>
      </trkpt>
      <trkpt lat="45.67728" lon="6.57184">
        <ele>1234.958</ele>
        <time>2012-01-25T12:58:00Z</time>
      </trkpt>
      <trkpt lat="45.67728" lon="6.57184">
        <ele>1234.917</ele>
        <time>2012-01-25T12:58:10Z</time>
      </trkpt>
      <trkpt lat="45.67728" lon="6.57184">
        <ele>1235.067</ele>
        <time>2012-01-25T12:58:20Z</time>
      </trkpt>
      <trkpt lat="45.67728" lon="6.57184">
        <ele>1235.481</ele>
        <time>2012-01-25T12:58:30Z</time>
      </trkpt>
      <trkpt lat="45.67728" lon="6.57184">
        <ele>1235.097</ele>
        <time>2012-01-25T12:58:40Z</time>
      </trkpt>
      <trkpt lat="45.67728" lon="6.57184">
        <ele>1234.982</ele>
        <time>2012-01-25T12:58:50Z</time>
      </trkpt>
      <trkpt lat="45.67727" lon="6.57185">
        <ele>1234.788</ele>
        <time>2012-01-25T12:59:00Z</time>
      </trkpt>
      <trkpt lat="45.67728" lon="6.57188">
        <ele>1234.895</ele>
        <time>2012-01-25T12:59:10Z</time>
      </trkpt>
      <trkpt lat="45.67728" lon="6.57188">
        <ele>1234.883</ele>
        <time>2012-01-25T12:59:20Z</time>
      </trkpt>
      <trkpt lat="45.67731" lon="6.5719">
        <ele>1234.439</ele>
        <time>2012-01-25T12:59:30Z</time>
      </trkpt>
      <trkpt lat="45.67738" lon="6.57188">
        <ele>1233.39</ele>
        <time>2012-01-25T12:59:40Z</time>
      </trkpt>
      <trkpt lat="45.67744" lon="6.57182">
        <ele>1233.043</ele>
        <time>2012-01-25T12:59:50Z</time>
      </trkpt>
      <trkpt lat="45.67752" lon="6.57172">
        <ele>1232.07</ele>
        <time>2012-01-25T13:00:00Z</time>
      </trkpt>
      <trkpt lat="45.67761" lon="6.57165">
        <ele>1230.82</ele>
        <time>2012-01-25T13:00:10Z</time>
      </trkpt>
      <trkpt lat="45.67769" lon="6.5716">
        <ele>1229.582</ele>
        <time>2012-01-25T13:00:20Z</time>
      </trkpt>
      <trkpt lat="45.6778" lon="6.57156">
        <ele>1228.3</ele>
        <time>2012-01-25T13:00:30Z</time>
      </trkpt>
      <trkpt lat="45.67791" lon="6.57154">
        <ele>1227.032</ele>
        <time>2012-01-25T13:00:40Z</time>
      </trkpt>
      <trkpt lat="45.67802" lon="6.57157">
        <ele>1225.657</ele>
        <time>2012-01-25T13:00:50Z</time>
      </trkpt>
      <trkpt lat="45.67809" lon="6.57162">
        <ele>1224.24</ele>
        <time>2012-01-25T13:01:00Z</time>
      </trkpt>
      <trkpt lat="45.67819" lon="6.57169">
        <ele>1223.127</ele>
        <time>2012-01-25T13:01:10Z</time>
      </trkpt>
      <trkpt lat="45.67827" lon="6.5718">
        <ele>1221.799</ele>
        <time>2012-01-25T13:01:20Z</time>
      </trkpt>
      <trkpt lat="45.6784" lon="6.57185">
        <ele>1220.001</ele>
        <time>2012-01-25T13:01:30Z</time>
      </trkpt>
      <trkpt lat="45.67851" lon="6.57184">
        <ele>1218.712</ele>
        <time>2012-01-25T13:01:40Z</time>
      </trkpt>
      <trkpt lat="45.67862" lon="6.57179">
        <ele>1217.219</ele>
        <time>2012-01-25T13:01:50Z</time>
      </trkpt>
      <trkpt lat="45.67874" lon="6.57174">
        <ele>1215.512</ele>
        <time>2012-01-25T13:02:00Z</time>
      </trkpt>
      <trkpt lat="45.67884" lon="6.57171">
        <ele>1214.392</ele>
        <time>2012-01-25T13:02:10Z</time>
      </trkpt>
      <trkpt lat="45.67893" lon="6.57164">
        <ele>1213.298</ele>
        <time>2012-01-25T13:02:20Z</time>
      </trkpt>
      <trkpt lat="45.67902" lon="6.57155">
        <ele>1212.201</ele>
        <time>2012-01-25T13:02:30Z</time>
      </trkpt>
      <trkpt lat="45.67912" lon="6.57145">
        <ele>1210.727</ele>
        <time>2012-01-25T13:02:40Z</time>
      </trkpt>
      <trkpt lat="45.67922" lon="6.5714">
        <ele>1209.464</ele>
        <time>2012-01-25T13:02:50Z</time>
      </trkpt>
      <trkpt lat="45.67934" lon="6.57139">
        <ele>1208.798</ele>
        <time>2012-01-25T13:03:00Z</time>
      </trkpt>
      <trkpt lat="45.67946" lon="6.57141">
        <ele>1207.812</ele>
        <time>2012-01-25T13:03:10Z</time>
      </trkpt>
      <trkpt lat="45.67955" lon="6.57138">
        <ele>1206.37</ele>
        <time>2012-01-25T13:03:20Z</time>
      </trkpt>
      <trkpt lat="45.67966" lon="6.57131">
        <ele>1204.74</ele>
        <time>2012-01-25T13:03:30Z</time>
      </trkpt>
      <trkpt lat="45.67977" lon="6.57128">
        <ele>1203.199</ele>
        <time>2012-01-25T13:03:40Z</time>
      </trkpt>
      <trkpt lat="45.67988" lon="6.57124">
        <ele>1202.121</ele>
        <time>2012-01-25T13:03:50Z</time>
      </trkpt>
      <trkpt lat="45.68" lon="6.5712">
        <ele>1201.241</ele>
        <time>2012-01-25T13:04:00Z</time>
      </trkpt>
      <trkpt lat="45.68009" lon="6.57121">
        <ele>1199.36</ele>
        <time>2012-01-25T13:04:10Z</time>
      </trkpt>
      <trkpt lat="45.68013" lon="6.57122">
        <ele>1198.385</ele>
        <time>2012-01-25T13:04:20Z</time>
      </trkpt>
      <trkpt lat="45.68023" lon="6.57126">
        <ele>1196.868</ele>
        <time>2012-01-25T13:04:30Z</time>
      </trkpt>
      <trkpt lat="45.68034" lon="6.57127">
        <ele>1195.539</ele>
        <time>2012-01-25T13:04:40Z</time>
      </trkpt>
      <trkpt lat="45.68045" lon="6.57119">
        <ele>1193.774</ele>
        <time>2012-01-25T13:04:50Z</time>
      </trkpt>
      <trkpt lat="45.68052" lon="6.57106">
        <ele>1192.55</ele>
        <time>2012-01-25T13:05:00Z</time>
      </trkpt>
      <trkpt lat="45.68056" lon="6.57092">
        <ele>1190.92</ele>
        <time>2012-01-25T13:05:10Z</time>
      </trkpt>
      <trkpt lat="45.68058" lon="6.57077">
        <ele>1189.446</ele>
        <time>2012-01-25T13:05:20Z</time>
      </trkpt>
      <trkpt lat="45.68062" lon="6.57062">
        <ele>1187.971</ele>
        <time>2012-01-25T13:05:30Z</time>
      </trkpt>
      <trkpt lat="45.68067" lon="6.57048">
        <ele>1186.362</ele>
        <time>2012-01-25T13:05:40Z</time>
      </trkpt>
      <trkpt lat="45.68074" lon="6.57035">
        <ele>1184.859</ele>
        <time>2012-01-25T13:05:50Z</time>
      </trkpt>
      <trkpt lat="45.68084" lon="6.57026">
        <ele>1183.646</ele>
        <time>2012-01-25T13:06:00Z</time>
      </trkpt>
      <trkpt lat="45.68097" lon="6.57023">
        <ele>1182.404</ele>
        <time>2012-01-25T13:06:10Z</time>
      </trkpt>
      <trkpt lat="45.68105" lon="6.57022">
        <ele>1181.292</ele>
        <time>2012-01-25T13:06:20Z</time>
      </trkpt>
      <trkpt lat="45.68116" lon="6.57021">
        <ele>1180.425</ele>
        <time>2012-01-25T13:06:30Z</time>
      </trkpt>
      <trkpt lat="45.68126" lon="6.57019">
        <ele>1178.95</ele>
        <time>2012-01-25T13:06:40Z</time>
      </trkpt>
      <trkpt lat="45.68134" lon="6.57009">
        <ele>1178.026</ele>
        <time>2012-01-25T13:06:50Z</time>
      </trkpt>
      <trkpt lat="45.6814" lon="6.56996">
        <ele>1176.926</ele>
        <time>2012-01-25T13:07:00Z</time>
      </trkpt>
      <trkpt lat="45.68142" lon="6.56979">
        <ele>1176.142</ele>
        <time>2012-01-25T13:07:10Z</time>
      </trkpt>
      <trkpt lat="45.68144" lon="6.56967">
        <ele>1175.323</ele>
        <time>2012-01-25T13:07:20Z</time>
      </trkpt>
      <trkpt lat="45.68145" lon="6.56964">
        <ele>1175.323</ele>
        <time>2012-01-25T13:07:30Z</time>
      </trkpt>
      <trkpt lat="45.68145" lon="6.56958">
        <ele>1175.201</ele>
        <time>2012-01-25T13:07:40Z</time>
      </trkpt>
      <trkpt lat="45.68146" lon="6.56957">
        <ele>1175.098</ele>
        <time>2012-01-25T13:07:50Z</time>
      </trkpt>
      <trkpt lat="45.68152" lon="6.56961">
        <ele>1174.464</ele>
        <time>2012-01-25T13:08:00Z</time>
      </trkpt>
      <trkpt lat="45.68154" lon="6.56975">
        <ele>1173.539</ele>
        <time>2012-01-25T13:08:10Z</time>
      </trkpt>
      <trkpt lat="45.68154" lon="6.56991">
        <ele>1172.886</ele>
        <time>2012-01-25T13:08:20Z</time>
      </trkpt>
      <trkpt lat="45.68156" lon="6.57005">
        <ele>1171.955</ele>
        <time>2012-01-25T13:08:30Z</time>
      </trkpt>
      <trkpt lat="45.68156" lon="6.5702">
        <ele>1171.304</ele>
        <time>2012-01-25T13:08:40Z</time>
      </trkpt>
      <trkpt lat="45.68154" lon="6.57036">
        <ele>1169.873</ele>
        <time>2012-01-25T13:08:50Z</time>
      </trkpt>
      <trkpt lat="45.68144" lon="6.57047">
        <ele>1168.938</ele>
        <time>2012-01-25T13:09:00Z</time>
      </trkpt>
      <trkpt lat="45.6814" lon="6.57062">
        <ele>1168.183</ele>
        <time>2012-01-25T13:09:10Z</time>
      </trkpt>
      <trkpt lat="45.68135" lon="6.57076">
        <ele>1166.913</ele>
        <time>2012-01-25T13:09:20Z</time>
      </trkpt>
      <trkpt lat="45.68132" lon="6.57077">
        <ele>1166.191</ele>
        <time>2012-01-25T13:09:30Z</time>
      </trkpt>
      <trkpt lat="45.68132" lon="6.57077">
        <ele>1166.221</ele>
        <time>2012-01-25T13:09:40Z</time>
      </trkpt>
      <trkpt lat="45.68132" lon="6.57077">
        <ele>1166.375</ele>
        <time>2012-01-25T13:09:50Z</time>
      </trkpt>
      <trkpt lat="45.68132" lon="6.57077">
        <ele>1166.211</ele>
        <time>2012-01-25T13:10:00Z</time>
      </trkpt>
      <trkpt lat="45.68129" lon="6.57091">
        <ele>1165.611</ele>
        <time>2012-01-25T13:10:10Z</time>
      </trkpt>
      <trkpt lat="45.68129" lon="6.57105">
        <ele>1164.353</ele>
        <time>2012-01-25T13:10:20Z</time>
      </trkpt>
      <trkpt lat="45.68136" lon="6.57101">
        <ele>1162.965</ele>
        <time>2012-01-25T13:10:30Z</time>
      </trkpt>
      <trkpt lat="45.68141" lon="6.57094">
        <ele>1162.463</ele>
        <time>2012-01-25T13:10:40Z</time>
      </trkpt>
      <trkpt lat="45.68151" lon="6.57086">
        <ele>1161.718</ele>
        <time>2012-01-25T13:10:50Z</time>
      </trkpt>
      <trkpt lat="45.68161" lon="6.57079">
        <ele>1160.555</ele>
        <time>2012-01-25T13:11:00Z</time>
      </trkpt>
      <trkpt lat="45.6817" lon="6.57072">
        <ele>1159.031</ele>
        <time>2012-01-25T13:11:10Z</time>
      </trkpt>
      <trkpt lat="45.68177" lon="6.5706">
        <ele>1158.151</ele>
        <time>2012-01-25T13:11:20Z</time>
      </trkpt>
      <trkpt lat="45.68185" lon="6.57049">
        <ele>1156.935</ele>
        <time>2012-01-25T13:11:30Z</time>
      </trkpt>
      <trkpt lat="45.68193" lon="6.57037">
        <ele>1156.764</ele>
        <time>2012-01-25T13:11:40Z</time>
      </trkpt>
      <trkpt lat="45.68197" lon="6.57021">
        <ele>1155.654</ele>
        <time>2012-01-25T13:11:50Z</time>
      </trkpt>
      <trkpt lat="45.68201" lon="6.57">
        <ele>1155.295</ele>
        <time>2012-01-25T13:12:00Z</time>
      </trkpt>
      <trkpt lat="45.68203" lon="6.56985">
        <ele>1154.367</ele>
        <time>2012-01-25T13:12:10Z</time>
      </trkpt>
      <trkpt lat="45.68207" lon="6.56971">
        <ele>1153.387</ele>
        <time>2012-01-25T13:12:20Z</time>
      </trkpt>
      <trkpt lat="45.68211" lon="6.56956">
        <ele>1152.584</ele>
        <time>2012-01-25T13:12:30Z</time>
      </trkpt>
      <trkpt lat="45.68211" lon="6.5694">
        <ele>1151.513</ele>
        <time>2012-01-25T13:12:40Z</time>
      </trkpt>
      <trkpt lat="45.68211" lon="6.56927">
        <ele>1150.586</ele>
        <time>2012-01-25T13:12:50Z</time>
      </trkpt>
      <trkpt lat="45.68221" lon="6.5693">
        <ele>1149.822</ele>
        <time>2012-01-25T13:13:00Z</time>
      </trkpt>
      <trkpt lat="45.68224" lon="6.56946">
        <ele>1149.164</ele>
        <time>2012-01-25T13:13:10Z</time>
      </trkpt>
      <trkpt lat="45.6823" lon="6.56957">
        <ele>1148.103</ele>
        <time>2012-01-25T13:13:20Z</time>
      </trkpt>
      <trkpt lat="45.68233" lon="6.56973">
        <ele>1146.661</ele>
        <time>2012-01-25T13:13:30Z</time>
      </trkpt>
      <trkpt lat="45.68235" lon="6.56988">
        <ele>1145.485</ele>
        <time>2012-01-25T13:13:40Z</time>
      </trkpt>
      <trkpt lat="45.68237" lon="6.57001">
        <ele>1144.123</ele>
        <time>2012-01-25T13:13:50Z</time>
      </trkpt>
      <trkpt lat="45.68241" lon="6.57015">
        <ele>1143.422</ele>
        <time>2012-01-25T13:14:00Z</time>
      </trkpt>
      <trkpt lat="45.68243" lon="6.57031">
        <ele>1142.098</ele>
        <time>2012-01-25T13:14:10Z</time>
      </trkpt>
      <trkpt lat="45.68246" lon="6.57048">
        <ele>1140.874</ele>
        <time>2012-01-25T13:14:20Z</time>
      </trkpt>
      <trkpt lat="45.68247" lon="6.57062">
        <ele>1139.701</ele>
        <time>2012-01-25T13:14:30Z</time>
      </trkpt>
      <trkpt lat="45.68248" lon="6.57076">
        <ele>1138.682</ele>
        <time>2012-01-25T13:14:40Z</time>
      </trkpt>
      <trkpt lat="45.68249" lon="6.5709">
        <ele>1137.123</ele>
        <time>2012-01-25T13:14:50Z</time>
      </trkpt>
      <trkpt lat="45.68247" lon="6.57107">
        <ele>1135.702</ele>
        <time>2012-01-25T13:15:00Z</time>
      </trkpt>
      <trkpt lat="45.68246" lon="6.57121">
        <ele>1134.812</ele>
        <time>2012-01-25T13:15:10Z</time>
      </trkpt>
      <trkpt lat="45.68248" lon="6.57137">
        <ele>1133.709</ele>
        <time>2012-01-25T13:15:20Z</time>
      </trkpt>
      <trkpt lat="45.68246" lon="6.57144">
        <ele>1132.461</ele>
        <time>2012-01-25T13:15:30Z</time>
      </trkpt>
      <trkpt lat="45.68241" lon="6.57155">
        <ele>1132.219</ele>
        <time>2012-01-25T13:15:40Z</time>
      </trkpt>
      <trkpt lat="45.68233" lon="6.57167">
        <ele>1131.142</ele>
        <time>2012-01-25T13:15:50Z</time>
      </trkpt>
      <trkpt lat="45.68227" lon="6.57178">
        <ele>1130.121</ele>
        <time>2012-01-25T13:16:00Z</time>
      </trkpt>
      <trkpt lat="45.68217" lon="6.57187">
        <ele>1129.671</ele>
        <time>2012-01-25T13:16:10Z</time>
      </trkpt>
      <trkpt lat="45.68208" lon="6.57192">
        <ele>1128.068</ele>
        <time>2012-01-25T13:16:20Z</time>
      </trkpt>
      <trkpt lat="45.68198" lon="6.572">
        <ele>1126.848</ele>
        <time>2012-01-25T13:16:30Z</time>
      </trkpt>
      <trkpt lat="45.6819" lon="6.57209">
        <ele>1125.799</ele>
        <time>2012-01-25T13:16:40Z</time>
      </trkpt>
      <trkpt lat="45.68181" lon="6.57221">
        <ele>1124.366</ele>
        <time>2012-01-25T13:16:50Z</time>
      </trkpt>
      <trkpt lat="45.68174" lon="6.57234">
        <ele>1123.504</ele>
        <time>2012-01-25T13:17:00Z</time>
      </trkpt>
      <trkpt lat="45.68167" lon="6.57246">
        <ele>1121.883</ele>
        <time>2012-01-25T13:17:10Z</time>
      </trkpt>
      <trkpt lat="45.68163" lon="6.57261">
        <ele>1120.721</ele>
        <time>2012-01-25T13:17:20Z</time>
      </trkpt>
      <trkpt lat="45.68156" lon="6.57276">
        <ele>1119.821</ele>
        <time>2012-01-25T13:17:30Z</time>
      </trkpt>
      <trkpt lat="45.68151" lon="6.57289">
        <ele>1118.663</ele>
        <time>2012-01-25T13:17:40Z</time>
      </trkpt>
      <trkpt lat="45.68144" lon="6.57303">
        <ele>1117.521</ele>
        <time>2012-01-25T13:17:50Z</time>
      </trkpt>
      <trkpt lat="45.68135" lon="6.57315">
        <ele>1116.615</ele>
        <time>2012-01-25T13:18:00Z</time>
      </trkpt>
      <trkpt lat="45.68124" lon="6.57328">
        <ele>1115.936</ele>
        <time>2012-01-25T13:18:10Z</time>
      </trkpt>
      <trkpt lat="45.68113" lon="6.57338">
        <ele>1114.479</ele>
        <time>2012-01-25T13:18:20Z</time>
      </trkpt>
      <trkpt lat="45.68103" lon="6.57343">
        <ele>1113.88</ele>
        <time>2012-01-25T13:18:30Z</time>
      </trkpt>
      <trkpt lat="45.68091" lon="6.57345">
        <ele>1113.147</ele>
        <time>2012-01-25T13:18:40Z</time>
      </trkpt>
      <trkpt lat="45.68088" lon="6.57357">
        <ele>1112.439</ele>
        <time>2012-01-25T13:18:50Z</time>
      </trkpt>
      <trkpt lat="45.68098" lon="6.57359">
        <ele>1111.865</ele>
        <time>2012-01-25T13:19:00Z</time>
      </trkpt>
      <trkpt lat="45.68103" lon="6.5735">
        <ele>1110.946</ele>
        <time>2012-01-25T13:19:10Z</time>
      </trkpt>
      <trkpt lat="45.68113" lon="6.57347">
        <ele>1110.259</ele>
        <time>2012-01-25T13:19:20Z</time>
      </trkpt>
      <trkpt lat="45.68123" lon="6.57345">
        <ele>1109.125</ele>
        <time>2012-01-25T13:19:30Z</time>
      </trkpt>
      <trkpt lat="45.68134" lon="6.57341">
        <ele>1108.227</ele>
        <time>2012-01-25T13:19:40Z</time>
      </trkpt>
      <trkpt lat="45.68144" lon="6.57334">
        <ele>1107.469</ele>
        <time>2012-01-25T13:19:50Z</time>
      </trkpt>
      <trkpt lat="45.68155" lon="6.57327">
        <ele>1106.644</ele>
        <time>2012-01-25T13:20:00Z</time>
      </trkpt>
      <trkpt lat="45.68163" lon="6.57314">
        <ele>1105.64</ele>
        <time>2012-01-25T13:20:10Z</time>
      </trkpt>
      <trkpt lat="45.6817" lon="6.57296">
        <ele>1104.044</ele>
        <time>2012-01-25T13:20:20Z</time>
      </trkpt>
      <trkpt lat="45.68176" lon="6.57284">
        <ele>1102.926</ele>
        <time>2012-01-25T13:20:30Z</time>
      </trkpt>
      <trkpt lat="45.68185" lon="6.57274">
        <ele>1101.732</ele>
        <time>2012-01-25T13:20:40Z</time>
      </trkpt>
      <trkpt lat="45.68193" lon="6.57262">
        <ele>1100.871</ele>
        <time>2012-01-25T13:20:50Z</time>
      </trkpt>
      <trkpt lat="45.68201" lon="6.57253">
        <ele>1099.602</ele>
        <time>2012-01-25T13:21:00Z</time>
      </trkpt>
      <trkpt lat="45.68207" lon="6.57254">
        <ele>1098.643</ele>
        <time>2012-01-25T13:21:10Z</time>
      </trkpt>
      <trkpt lat="45.68218" lon="6.5726">
        <ele>1098.112</ele>
        <time>2012-01-25T13:21:20Z</time>
      </trkpt>
      <trkpt lat="45.68232" lon="6.57266">
        <ele>1097.15</ele>
        <time>2012-01-25T13:21:30Z</time>
      </trkpt>
      <trkpt lat="45.68248" lon="6.57261">
        <ele>1096.495</ele>
        <time>2012-01-25T13:21:40Z</time>
      </trkpt>
      <trkpt lat="45.68264" lon="6.57266">
        <ele>1094.762</ele>
        <time>2012-01-25T13:21:50Z</time>
      </trkpt>
      <trkpt lat="45.68274" lon="6.57262">
        <ele>1093.588</ele>
        <time>2012-01-25T13:22:00Z</time>
      </trkpt>
      <trkpt lat="45.6828" lon="6.57263">
        <ele>1093.018</ele>
        <time>2012-01-25T13:22:10Z</time>
      </trkpt>
      <trkpt lat="45.6829" lon="6.57265">
        <ele>1092.304</ele>
        <time>2012-01-25T13:22:20Z</time>
      </trkpt>
      <trkpt lat="45.68299" lon="6.57273">
        <ele>1092.304</ele>
        <time>2012-01-25T13:22:30Z</time>
      </trkpt>
      <trkpt lat="45.68304" lon="6.57269">
        <ele>1091.609</ele>
        <time>2012-01-25T13:22:40Z</time>
      </trkpt>
      <trkpt lat="45.68305" lon="6.57256">
        <ele>1090.558</ele>
        <time>2012-01-25T13:22:50Z</time>
      </trkpt>
      <trkpt lat="45.68308" lon="6.57248">
        <ele>1090.745</ele>
        <time>2012-01-25T13:23:00Z</time>
      </trkpt>
      <trkpt lat="45.68316" lon="6.57242">
        <ele>1089.752</ele>
        <time>2012-01-25T13:23:10Z</time>
      </trkpt>
      <trkpt lat="45.68321" lon="6.57236">
        <ele>1088.991</ele>
        <time>2012-01-25T13:23:20Z</time>
      </trkpt>
      <trkpt lat="45.68331" lon="6.57229">
        <ele>1087.844</ele>
        <time>2012-01-25T13:23:30Z</time>
      </trkpt>
      <trkpt lat="45.68342" lon="6.57214">
        <ele>1086.795</ele>
        <time>2012-01-25T13:23:40Z</time>
      </trkpt>
      <trkpt lat="45.68352" lon="6.57212">
        <ele>1086.208</ele>
        <time>2012-01-25T13:23:50Z</time>
      </trkpt>
      <trkpt lat="45.68361" lon="6.57204">
        <ele>1085.091</ele>
        <time>2012-01-25T13:24:00Z</time>
      </trkpt>
      <trkpt lat="45.6837" lon="6.57197">
        <ele>1083.659</ele>
        <time>2012-01-25T13:24:10Z</time>
      </trkpt>
      <trkpt lat="45.6838" lon="6.5719">
        <ele>1082.673</ele>
        <time>2012-01-25T13:24:20Z</time>
      </trkpt>
      <trkpt lat="45.6839" lon="6.57183">
        <ele>1081.402</ele>
        <time>2012-01-25T13:24:30Z</time>
      </trkpt>
      <trkpt lat="45.68401" lon="6.57175">
        <ele>1080.086</ele>
        <time>2012-01-25T13:24:40Z</time>
      </trkpt>
      <trkpt lat="45.68411" lon="6.57171">
        <ele>1079.082</ele>
        <time>2012-01-25T13:24:50Z</time>
      </trkpt>
      <trkpt lat="45.6842" lon="6.57166">
        <ele>1078.495</ele>
        <time>2012-01-25T13:25:00Z</time>
      </trkpt>
      <trkpt lat="45.68428" lon="6.57159">
        <ele>1077.013</ele>
        <time>2012-01-25T13:25:10Z</time>
      </trkpt>
      <trkpt lat="45.68437" lon="6.57148">
        <ele>1075.745</ele>
        <time>2012-01-25T13:25:20Z</time>
      </trkpt>
      <trkpt lat="45.68445" lon="6.57137">
        <ele>1074.906</ele>
        <time>2012-01-25T13:25:30Z</time>
      </trkpt>
      <trkpt lat="45.68453" lon="6.57127">
        <ele>1074.197</ele>
        <time>2012-01-25T13:25:40Z</time>
      </trkpt>
      <trkpt lat="45.68462" lon="6.57117">
        <ele>1072.765</ele>
        <time>2012-01-25T13:25:50Z</time>
      </trkpt>
      <trkpt lat="45.68473" lon="6.57109">
        <ele>1072.128</ele>
        <time>2012-01-25T13:26:00Z</time>
      </trkpt>
      <trkpt lat="45.68483" lon="6.57107">
        <ele>1070.982</ele>
        <time>2012-01-25T13:26:10Z</time>
      </trkpt>
      <trkpt lat="45.68493" lon="6.57106">
        <ele>1069.61</ele>
        <time>2012-01-25T13:26:20Z</time>
      </trkpt>
      <trkpt lat="45.68502" lon="6.57098">
        <ele>1069.09</ele>
        <time>2012-01-25T13:26:30Z</time>
      </trkpt>
      <trkpt lat="45.6851" lon="6.57091">
        <ele>1067.1</ele>
        <time>2012-01-25T13:26:40Z</time>
      </trkpt>
      <trkpt lat="45.6852" lon="6.57085">
        <ele>1066.58</ele>
        <time>2012-01-25T13:26:50Z</time>
      </trkpt>
      <trkpt lat="45.68528" lon="6.57073">
        <ele>1065.972</ele>
        <time>2012-01-25T13:27:00Z</time>
      </trkpt>
      <trkpt lat="45.68536" lon="6.5706">
        <ele>1064.479</ele>
        <time>2012-01-25T13:27:10Z</time>
      </trkpt>
      <trkpt lat="45.68536" lon="6.57058">
        <ele>1062.938</ele>
        <time>2012-01-25T13:27:20Z</time>
      </trkpt>
      <trkpt lat="45.68529" lon="6.5706">
        <ele>1062.922</ele>
        <time>2012-01-25T13:27:30Z</time>
      </trkpt>
      <trkpt lat="45.68522" lon="6.57061">
        <ele>1062.214</ele>
        <time>2012-01-25T13:27:40Z</time>
      </trkpt>
      <trkpt lat="45.68511" lon="6.57061">
        <ele>1061.667</ele>
        <time>2012-01-25T13:27:50Z</time>
      </trkpt>
      <trkpt lat="45.685" lon="6.57067">
        <ele>1061.238</ele>
        <time>2012-01-25T13:28:00Z</time>
      </trkpt>
      <trkpt lat="45.68489" lon="6.57072">
        <ele>1061.519</ele>
        <time>2012-01-25T13:28:10Z</time>
      </trkpt>
      <trkpt lat="45.68478" lon="6.57076">
        <ele>1061.151</ele>
        <time>2012-01-25T13:28:20Z</time>
      </trkpt>
      <trkpt lat="45.68467" lon="6.57077">
        <ele>1060.938</ele>
        <time>2012-01-25T13:28:30Z</time>
      </trkpt>
      <trkpt lat="45.68457" lon="6.57073">
        <ele>1060.557</ele>
        <time>2012-01-25T13:28:40Z</time>
      </trkpt>
      <trkpt lat="45.68449" lon="6.57063">
        <ele>1060.417</ele>
        <time>2012-01-25T13:28:50Z</time>
      </trkpt>
      <trkpt lat="45.68446" lon="6.57053">
        <ele>1059.863</ele>
        <time>2012-01-25T13:29:00Z</time>
      </trkpt>
      <trkpt lat="45.68451" lon="6.57041">
        <ele>1059.366</ele>
        <time>2012-01-25T13:29:10Z</time>
      </trkpt>
      <trkpt lat="45.68457" lon="6.57029">
        <ele>1058.847</ele>
        <time>2012-01-25T13:29:20Z</time>
      </trkpt>
      <trkpt lat="45.68464" lon="6.57019">
        <ele>1057.826</ele>
        <time>2012-01-25T13:29:30Z</time>
      </trkpt>
      <trkpt lat="45.68471" lon="6.57009">
        <ele>1056.458</ele>
        <time>2012-01-25T13:29:40Z</time>
      </trkpt>
      <trkpt lat="45.68474" lon="6.56998">
        <ele>1055.633</ele>
        <time>2012-01-25T13:29:50Z</time>
      </trkpt>
      <trkpt lat="45.68478" lon="6.56993">
        <ele>1055.127</ele>
        <time>2012-01-25T13:30:00Z</time>
      </trkpt>
      <trkpt lat="45.68476" lon="6.56989">
        <ele>1054.99</ele>
        <time>2012-01-25T13:30:10Z</time>
      </trkpt>
      <trkpt lat="45.68477" lon="6.56983">
        <ele>1055.004</ele>
        <time>2012-01-25T13:30:20Z</time>
      </trkpt>
      <trkpt lat="45.68477" lon="6.56979">
        <ele>1055.367</ele>
        <time>2012-01-25T13:30:30Z</time>
      </trkpt>
      <trkpt lat="45.68477" lon="6.56978">
        <ele>1055.255</ele>
        <time>2012-01-25T13:30:40Z</time>
      </trkpt>
      <trkpt lat="45.68477" lon="6.56978">
        <ele>1055.409</ele>
        <time>2012-01-25T13:30:50Z</time>
      </trkpt>
      <trkpt lat="45.68476" lon="6.56979">
        <ele>1055.589</ele>
        <time>2012-01-25T13:31:00Z</time>
      </trkpt>
      <trkpt lat="45.68476" lon="6.56979">
        <ele>1055.46</ele>
        <time>2012-01-25T13:31:10Z</time>
      </trkpt>
      <trkpt lat="45.68477" lon="6.56981">
        <ele>1055.594</ele>
        <time>2012-01-25T13:31:20Z</time>
      </trkpt>
      <trkpt lat="45.68483" lon="6.56978">
        <ele>1055.269</ele>
        <time>2012-01-25T13:31:30Z</time>
      </trkpt>
      <trkpt lat="45.68484" lon="6.56976">
        <ele>1054.553</ele>
        <time>2012-01-25T13:31:40Z</time>
      </trkpt>
      <trkpt lat="45.68485" lon="6.5698">
        <ele>1054.439</ele>
        <time>2012-01-25T13:31:50Z</time>
      </trkpt>
      <trkpt lat="45.6849" lon="6.56975">
        <ele>1053.574</ele>
        <time>2012-01-25T13:32:00Z</time>
      </trkpt>
      <trkpt lat="45.68493" lon="6.56966">
        <ele>1052.485</ele>
        <time>2012-01-25T13:32:10Z</time>
      </trkpt>
      <trkpt lat="45.68495" lon="6.56961">
        <ele>1052.283</ele>
        <time>2012-01-25T13:32:20Z</time>
      </trkpt>
      <trkpt lat="45.68495" lon="6.56957">
        <ele>1051.657</ele>
        <time>2012-01-25T13:32:30Z</time>
      </trkpt>
      <trkpt lat="45.68496" lon="6.56954">
        <ele>1051.921</ele>
        <time>2012-01-25T13:32:40Z</time>
      </trkpt>
      <trkpt lat="45.68497" lon="6.56952">
        <ele>1051.733</ele>
        <time>2012-01-25T13:32:50Z</time>
      </trkpt>
      <trkpt lat="45.68498" lon="6.56953">
        <ele>1051.497</ele>
        <time>2012-01-25T13:33:00Z</time>
      </trkpt>
      <trkpt lat="45.68502" lon="6.5695">
        <ele>1051.354</ele>
        <time>2012-01-25T13:33:10Z</time>
      </trkpt>
      <trkpt lat="45.68503" lon="6.56945">
        <ele>1051.109</ele>
        <time>2012-01-25T13:33:20Z</time>
      </trkpt>
      <trkpt lat="45.68504" lon="6.56944">
        <ele>1050.82</ele>
        <time>2012-01-25T13:33:30Z</time>
      </trkpt>
      <trkpt lat="45.68513" lon="6.56938">
        <ele>1050.482</ele>
        <time>2012-01-25T13:33:40Z</time>
      </trkpt>
      <trkpt lat="45.68524" lon="6.56943">
        <ele>1049.843</ele>
        <time>2012-01-25T13:33:50Z</time>
      </trkpt>
      <trkpt lat="45.68528" lon="6.56943">
        <ele>1048.529</ele>
        <time>2012-01-25T13:34:00Z</time>
      </trkpt>
      <trkpt lat="45.68532" lon="6.56944">
        <ele>1047.885</ele>
        <time>2012-01-25T13:34:10Z</time>
      </trkpt>
      <trkpt lat="45.68534" lon="6.56946">
        <ele>1047.872</ele>
        <time>2012-01-25T13:34:20Z</time>
      </trkpt>
      <trkpt lat="45.68533" lon="6.56945">
        <ele>1048.232</ele>
        <time>2012-01-25T13:34:30Z</time>
      </trkpt>
      <trkpt lat="45.68533" lon="6.56946">
        <ele>1048.146</ele>
        <time>2012-01-25T13:34:40Z</time>
      </trkpt>
      <trkpt lat="45.68533" lon="6.56947">
        <ele>1048.001</ele>
        <time>2012-01-25T13:34:50Z</time>
      </trkpt>
      <trkpt lat="45.68536" lon="6.56947">
        <ele>1047.802</ele>
        <time>2012-01-25T13:35:00Z</time>
      </trkpt>
      <trkpt lat="45.68539" lon="6.56949">
        <ele>1047.536</ele>
        <time>2012-01-25T13:35:10Z</time>
      </trkpt>
      <trkpt lat="45.68549" lon="6.56954">
        <ele>1047.249</ele>
        <time>2012-01-25T13:35:20Z</time>
      </trkpt>
      <trkpt lat="45.68551" lon="6.56954">
        <ele>1046.986</ele>
        <time>2012-01-25T13:35:30Z</time>
      </trkpt>
      <trkpt lat="45.68557" lon="6.56955">
        <ele>1046.323</ele>
        <time>2012-01-25T13:35:40Z</time>
      </trkpt>
      <trkpt lat="45.68564" lon="6.56954">
        <ele>1045.556</ele>
        <time>2012-01-25T13:35:50Z</time>
      </trkpt>
      <trkpt lat="45.68573" lon="6.56955">
        <ele>1044.489</ele>
        <time>2012-01-25T13:36:00Z</time>
      </trkpt>
      <trkpt lat="45.68578" lon="6.56956">
        <ele>1043.76</ele>
        <time>2012-01-25T13:36:10Z</time>
      </trkpt>
      <trkpt lat="45.68587" lon="6.56948">
        <ele>1043.576</ele>
        <time>2012-01-25T13:36:20Z</time>
      </trkpt>
      <trkpt lat="45.68589" lon="6.56944">
        <ele>1043.153</ele>
        <time>2012-01-25T13:36:30Z</time>
      </trkpt>
      <trkpt lat="45.68588" lon="6.56942">
        <ele>1042.977</ele>
        <time>2012-01-25T13:36:40Z</time>
      </trkpt>
      <trkpt lat="45.68592" lon="6.56935">
        <ele>1042.769</ele>
        <time>2012-01-25T13:36:50Z</time>
      </trkpt>
      <trkpt lat="45.68593" lon="6.56925">
        <ele>1042.236</ele>
        <time>2012-01-25T13:37:00Z</time>
      </trkpt>
      <trkpt lat="45.686" lon="6.56925">
        <ele>1041.438</ele>
        <time>2012-01-25T13:37:10Z</time>
      </trkpt>
      <trkpt lat="45.68607" lon="6.56922">
        <ele>1040.341</ele>
        <time>2012-01-25T13:37:20Z</time>
      </trkpt>
      <trkpt lat="45.68618" lon="6.56912">
        <ele>1039.202</ele>
        <time>2012-01-25T13:37:30Z</time>
      </trkpt>
      <trkpt lat="45.68627" lon="6.56906">
        <ele>1038.198</ele>
        <time>2012-01-25T13:37:40Z</time>
      </trkpt>
      <trkpt lat="45.68629" lon="6.56889">
        <ele>1036.61</ele>
        <time>2012-01-25T13:37:50Z</time>
      </trkpt>
      <trkpt lat="45.68636" lon="6.56874">
        <ele>1035.23</ele>
        <time>2012-01-25T13:38:00Z</time>
      </trkpt>
      <trkpt lat="45.68641" lon="6.56863">
        <ele>1034.864</ele>
        <time>2012-01-25T13:38:10Z</time>
      </trkpt>
      <trkpt lat="45.68644" lon="6.56853">
        <ele>1033.94</ele>
        <time>2012-01-25T13:38:20Z</time>
      </trkpt>
      <trkpt lat="45.68647" lon="6.56845">
        <ele>1033.45</ele>
        <time>2012-01-25T13:38:30Z</time>
      </trkpt>
      <trkpt lat="45.68651" lon="6.56841">
        <ele>1032.773</ele>
        <time>2012-01-25T13:38:40Z</time>
      </trkpt>
      <trkpt lat="45.68651" lon="6.56836">
        <ele>1032.17</ele>
        <time>2012-01-25T13:38:50Z</time>
      </trkpt>
      <trkpt lat="45.68651" lon="6.56834">
        <ele>1031.71</ele>
        <time>2012-01-25T13:39:00Z</time>
      </trkpt>
      <trkpt lat="45.6865" lon="6.56833">
        <ele>1031.884</ele>
        <time>2012-01-25T13:39:10Z</time>
      </trkpt>
      <trkpt lat="45.6865" lon="6.56822">
        <ele>1031.227</ele>
        <time>2012-01-25T13:39:20Z</time>
      </trkpt>
      <trkpt lat="45.6865" lon="6.56818">
        <ele>1030.853</ele>
        <time>2012-01-25T13:39:30Z</time>
      </trkpt>
      <trkpt lat="45.68653" lon="6.56806">
        <ele>1029.813</ele>
        <time>2012-01-25T13:39:40Z</time>
      </trkpt>
      <trkpt lat="45.68655" lon="6.56797">
        <ele>1028.796</ele>
        <time>2012-01-25T13:39:50Z</time>
      </trkpt>
      <trkpt lat="45.68656" lon="6.56792">
        <ele>1028.572</ele>
        <time>2012-01-25T13:40:00Z</time>
      </trkpt>
      <trkpt lat="45.68657" lon="6.56791">
        <ele>1028.688</ele>
        <time>2012-01-25T13:40:10Z</time>
      </trkpt>
      <trkpt lat="45.68659" lon="6.56792">
        <ele>1028.339</ele>
        <time>2012-01-25T13:40:20Z</time>
      </trkpt>
      <trkpt lat="45.68662" lon="6.56795">
        <ele>1029.055</ele>
        <time>2012-01-25T13:40:30Z</time>
      </trkpt>
      <trkpt lat="45.68664" lon="6.56797">
        <ele>1029.036</ele>
        <time>2012-01-25T13:40:40Z</time>
      </trkpt>
      <trkpt lat="45.68665" lon="6.56798">
        <ele>1028.55</ele>
        <time>2012-01-25T13:40:50Z</time>
      </trkpt>
      <trkpt lat="45.68666" lon="6.56796">
        <ele>1028.655</ele>
        <time>2012-01-25T13:41:00Z</time>
      </trkpt>
      <trkpt lat="45.68659" lon="6.5678">
        <ele>1026.943</ele>
        <time>2012-01-25T13:41:10Z</time>
      </trkpt>
      <trkpt lat="45.6866" lon="6.56777">
        <ele>1027.229</ele>
        <time>2012-01-25T13:41:20Z</time>
      </trkpt>
      <trkpt lat="45.68659" lon="6.56778">
        <ele>1026.773</ele>
        <time>2012-01-25T13:41:30Z</time>
      </trkpt>
      <trkpt lat="45.68659" lon="6.56779">
        <ele>1027.166</ele>
        <time>2012-01-25T13:41:40Z</time>
      </trkpt>
      <trkpt lat="45.68654" lon="6.56777">
        <ele>1026.68</ele>
        <time>2012-01-25T13:41:50Z</time>
      </trkpt>
      <trkpt lat="45.68656" lon="6.56773">
        <ele>1026.952</ele>
        <time>2012-01-25T13:42:00Z</time>
      </trkpt>
      <trkpt lat="45.68656" lon="6.56774">
        <ele>1026.781</ele>
        <time>2012-01-25T13:42:10Z</time>
      </trkpt>
      <trkpt lat="45.68656" lon="6.56773">
        <ele>1026.463</ele>
        <time>2012-01-25T13:42:20Z</time>
      </trkpt>
      <trkpt lat="45.68657" lon="6.56761">
        <ele>1026.089</ele>
        <time>2012-01-25T13:42:30Z</time>
      </trkpt>
      <trkpt lat="45.68659" lon="6.56756">
        <ele>1026.091</ele>
        <time>2012-01-25T13:42:40Z</time>
      </trkpt>
      <trkpt lat="45.6866" lon="6.56758">
        <ele>1026.977</ele>
        <time>2012-01-25T13:42:50Z</time>
      </trkpt>
      <trkpt lat="45.68661" lon="6.56755">
        <ele>1026.134</ele>
        <time>2012-01-25T13:43:00Z</time>
      </trkpt>
      <trkpt lat="45.68662" lon="6.56744">
        <ele>1024.859</ele>
        <time>2012-01-25T13:43:10Z</time>
      </trkpt>
      <trkpt lat="45.68663" lon="6.56739">
        <ele>1024.943</ele>
        <time>2012-01-25T13:43:20Z</time>
      </trkpt>
      <trkpt lat="45.68663" lon="6.56738">
        <ele>1024.437</ele>
        <time>2012-01-25T13:43:30Z</time>
      </trkpt>
      <trkpt lat="45.68663" lon="6.56739">
        <ele>1024.476</ele>
        <time>2012-01-25T13:43:40Z</time>
      </trkpt>
      <trkpt lat="45.68663" lon="6.5674">
        <ele>1024.93</ele>
        <time>2012-01-25T13:43:50Z</time>
      </trkpt>
      <trkpt lat="45.68664" lon="6.5674">
        <ele>1024.67</ele>
        <time>2012-01-25T13:44:00Z</time>
      </trkpt>
      <trkpt lat="45.68664" lon="6.5674">
        <ele>1024.852</ele>
        <time>2012-01-25T13:44:10Z</time>
      </trkpt>
      <trkpt lat="45.68664" lon="6.56736">
        <ele>1025.131</ele>
        <time>2012-01-25T13:44:20Z</time>
      </trkpt>
      <trkpt lat="45.68664" lon="6.56736">
        <ele>1025.273</ele>
        <time>2012-01-25T13:44:30Z</time>
      </trkpt>
      <trkpt lat="45.68666" lon="6.56736">
        <ele>1025.009</ele>
        <time>2012-01-25T13:44:40Z</time>
      </trkpt>
      <trkpt lat="45.68669" lon="6.56737">
        <ele>1025.132</ele>
        <time>2012-01-25T13:44:50Z</time>
      </trkpt>
      <trkpt lat="45.68669" lon="6.56738">
        <ele>1024.949</ele>
        <time>2012-01-25T13:45:00Z</time>
      </trkpt>
      <trkpt lat="45.68668" lon="6.56737">
        <ele>1024.499</ele>
        <time>2012-01-25T13:45:10Z</time>
      </trkpt>
      <trkpt lat="45.6867" lon="6.56738">
        <ele>1024.414</ele>
        <time>2012-01-25T13:45:20Z</time>
      </trkpt>
      <trkpt lat="45.68669" lon="6.56739">
        <ele>1024.473</ele>
        <time>2012-01-25T13:45:30Z</time>
      </trkpt>
      <trkpt lat="45.68664" lon="6.56742">
        <ele>1024.883</ele>
        <time>2012-01-25T13:45:40Z</time>
      </trkpt>
      <trkpt lat="45.68668" lon="6.56752">
        <ele>1025.513</ele>
        <time>2012-01-25T13:45:50Z</time>
      </trkpt>
      <trkpt lat="45.68671" lon="6.56751">
        <ele>1025.767</ele>
        <time>2012-01-25T13:46:00Z</time>
      </trkpt>
      <trkpt lat="45.6867" lon="6.56752">
        <ele>1025.319</ele>
        <time>2012-01-25T13:46:10Z</time>
      </trkpt>
      <trkpt lat="45.68671" lon="6.56751">
        <ele>1025.515</ele>
        <time>2012-01-25T13:46:20Z</time>
      </trkpt>
      <trkpt lat="45.68672" lon="6.5675">
        <ele>1025.361</ele>
        <time>2012-01-25T13:46:30Z</time>
      </trkpt>
      <trkpt lat="45.68673" lon="6.56749">
        <ele>1025.32</ele>
        <time>2012-01-25T13:46:40Z</time>
      </trkpt>
      <trkpt lat="45.68673" lon="6.56748">
        <ele>1025.621</ele>
        <time>2012-01-25T13:46:50Z</time>
      </trkpt>
      <trkpt lat="45.68673" lon="6.56747">
        <ele>1025.124</ele>
        <time>2012-01-25T13:47:00Z</time>
      </trkpt>
      <trkpt lat="45.68672" lon="6.56746">
        <ele>1025.679</ele>
        <time>2012-01-25T13:47:10Z</time>
      </trkpt>
      <trkpt lat="45.68672" lon="6.56747">
        <ele>1025.24</ele>
        <time>2012-01-25T13:47:20Z</time>
      </trkpt>
      <trkpt lat="45.68673" lon="6.56748">
        <ele>1025.099</ele>
        <time>2012-01-25T13:47:30Z</time>
      </trkpt>
      <trkpt lat="45.68674" lon="6.56748">
        <ele>1025.403</ele>
        <time>2012-01-25T13:47:40Z</time>
      </trkpt>
      <trkpt lat="45.68675" lon="6.56749">
        <ele>1025.327</ele>
        <time>2012-01-25T13:47:50Z</time>
      </trkpt>
      <trkpt lat="45.68668" lon="6.56751">
        <ele>1025.633</ele>
        <time>2012-01-25T13:48:00Z</time>
      </trkpt>
      <trkpt lat="45.68666" lon="6.56736">
        <ele>1025.333</ele>
        <time>2012-01-25T13:48:10Z</time>
      </trkpt>
      <trkpt lat="45.6867" lon="6.56737">
        <ele>1025.209</ele>
        <time>2012-01-25T13:48:20Z</time>
      </trkpt>
      <trkpt lat="45.68669" lon="6.56737">
        <ele>1026.274</ele>
        <time>2012-01-25T13:48:30Z</time>
      </trkpt>
      <trkpt lat="45.68667" lon="6.56737">
        <ele>1027.887</ele>
        <time>2012-01-25T13:48:40Z</time>
      </trkpt>
      <trkpt lat="45.68666" lon="6.56736">
        <ele>1028.11</ele>
        <time>2012-01-25T13:48:50Z</time>
      </trkpt>
      <trkpt lat="45.68662" lon="6.56731">
        <ele>1027.757</ele>
        <time>2012-01-25T13:49:00Z</time>
      </trkpt>
      <trkpt lat="45.68662" lon="6.56727">
        <ele>1028.401</ele>
        <time>2012-01-25T13:49:10Z</time>
      </trkpt>
      <trkpt lat="45.68661" lon="6.56725">
        <ele>1027.233</ele>
        <time>2012-01-25T13:49:20Z</time>
      </trkpt>
      <trkpt lat="45.68662" lon="6.56723">
        <ele>1027.466</ele>
        <time>2012-01-25T13:49:30Z</time>
      </trkpt>
      <trkpt lat="45.68662" lon="6.56722">
        <ele>1027.59</ele>
        <time>2012-01-25T13:49:40Z</time>
      </trkpt>
      <trkpt lat="45.68662" lon="6.56721">
        <ele>1027.691</ele>
        <time>2012-01-25T13:49:50Z</time>
      </trkpt>
      <trkpt lat="45.68662" lon="6.56723">
        <ele>1027.574</ele>
        <time>2012-01-25T13:50:00Z</time>
      </trkpt>
      <trkpt lat="45.68662" lon="6.56725">
        <ele>1027.646</ele>
        <time>2012-01-25T13:50:10Z</time>
      </trkpt>
      <trkpt lat="45.68664" lon="6.56728">
        <ele>1027.726</ele>
        <time>2012-01-25T13:50:20Z</time>
      </trkpt>
      <trkpt lat="45.68665" lon="6.56729">
        <ele>1028.17</ele>
        <time>2012-01-25T13:50:30Z</time>
      </trkpt>
      <trkpt lat="45.68666" lon="6.56731">
        <ele>1028.212</ele>
        <time>2012-01-25T13:50:40Z</time>
      </trkpt>
      <trkpt lat="45.68667" lon="6.56732">
        <ele>1028.252</ele>
        <time>2012-01-25T13:50:50Z</time>
      </trkpt>
      <trkpt lat="45.68665" lon="6.56733">
        <ele>1028.428</ele>
        <time>2012-01-25T13:51:00Z</time>
      </trkpt>
      <trkpt lat="45.68665" lon="6.56732">
        <ele>1028.32</ele>
        <time>2012-01-25T13:51:10Z</time>
      </trkpt>
      <trkpt lat="45.68665" lon="6.56733">
        <ele>1028.369</ele>
        <time>2012-01-25T13:51:20Z</time>
      </trkpt>
      <trkpt lat="45.68667" lon="6.56732">
        <ele>1028.898</ele>
        <time>2012-01-25T13:51:30Z</time>
      </trkpt>
      <trkpt lat="45.68667" lon="6.56733">
        <ele>1028.407</ele>
        <time>2012-01-25T13:51:40Z</time>
      </trkpt>
      <trkpt lat="45.68667" lon="6.56735">
        <ele>1029.067</ele>
        <time>2012-01-25T13:51:50Z</time>
      </trkpt>
      <trkpt lat="45.68668" lon="6.56737">
        <ele>1028.982</ele>
        <time>2012-01-25T13:52:00Z</time>
      </trkpt>
      <trkpt lat="45.6867" lon="6.56738">
        <ele>1028.887</ele>
        <time>2012-01-25T13:52:10Z</time>
      </trkpt>
      <trkpt lat="45.68669" lon="6.56731">
        <ele>1028.956</ele>
        <time>2012-01-25T13:52:20Z</time>
      </trkpt>
      <trkpt lat="45.6867" lon="6.56731">
        <ele>1028.979</ele>
        <time>2012-01-25T13:52:30Z</time>
      </trkpt>
      <trkpt lat="45.68668" lon="6.56733">
        <ele>1026.847</ele>
        <time>2012-01-25T13:52:40Z</time>
      </trkpt>
      <trkpt lat="45.68668" lon="6.56728">
        <ele>1028.905</ele>
        <time>2012-01-25T13:52:50Z</time>
      </trkpt>
      <trkpt lat="45.68666" lon="6.56726">
        <ele>1028.794</ele>
        <time>2012-01-25T13:53:00Z</time>
      </trkpt>
      <trkpt lat="45.68668" lon="6.56726">
        <ele>1029.067</ele>
        <time>2012-01-25T13:53:10Z</time>
      </trkpt>
      <trkpt lat="45.68669" lon="6.56727">
        <ele>1029.048</ele>
        <time>2012-01-25T13:53:20Z</time>
      </trkpt>
      <trkpt lat="45.6867" lon="6.56728">
        <ele>1029.336</ele>
        <time>2012-01-25T13:53:30Z</time>
      </trkpt>
      <trkpt lat="45.68671" lon="6.56728">
        <ele>1029.297</ele>
        <time>2012-01-25T13:53:40Z</time>
      </trkpt>
      <trkpt lat="45.68671" lon="6.56729">
        <ele>1028.739</ele>
        <time>2012-01-25T13:53:50Z</time>
      </trkpt>
      <trkpt lat="45.6866" lon="6.56721">
        <ele>1029.439</ele>
        <time>2012-01-25T13:54:00Z</time>
      </trkpt>
      <trkpt lat="45.68653" lon="6.56727">
        <ele>1029.341</ele>
        <time>2012-01-25T13:54:10Z</time>
      </trkpt>
      <trkpt lat="45.68654" lon="6.56728">
        <ele>1029.41</ele>
        <time>2012-01-25T13:54:20Z</time>
      </trkpt>
      <trkpt lat="45.68651" lon="6.56727">
        <ele>1029.392</ele>
        <time>2012-01-25T13:54:30Z</time>
      </trkpt>
      <trkpt lat="45.68656" lon="6.56724">
        <ele>1028.583</ele>
        <time>2012-01-25T13:54:40Z</time>
      </trkpt>
      <trkpt lat="45.68658" lon="6.56716">
        <ele>1029.056</ele>
        <time>2012-01-25T13:54:50Z</time>
      </trkpt>
      <trkpt lat="45.68657" lon="6.56716">
        <ele>1029.466</ele>
        <time>2012-01-25T13:55:00Z</time>
      </trkpt>
      <trkpt lat="45.68658" lon="6.56718">
        <ele>1028.966</ele>
        <time>2012-01-25T13:55:10Z</time>
      </trkpt>
      <trkpt lat="45.6866" lon="6.5672">
        <ele>1029.563</ele>
        <time>2012-01-25T13:55:20Z</time>
      </trkpt>
      <trkpt lat="45.68659" lon="6.5672">
        <ele>1029.363</ele>
        <time>2012-01-25T13:55:30Z</time>
      </trkpt>
      <trkpt lat="45.68656" lon="6.56723">
        <ele>1029.463</ele>
        <time>2012-01-25T13:55:40Z</time>
      </trkpt>
      <trkpt lat="45.68657" lon="6.56722">
        <ele>1029.873</ele>
        <time>2012-01-25T13:55:50Z</time>
      </trkpt>
      <trkpt lat="45.68658" lon="6.56722">
        <ele>1029.545</ele>
        <time>2012-01-25T13:56:00Z</time>
      </trkpt>
      <trkpt lat="45.68659" lon="6.56723">
        <ele>1029.553</ele>
        <time>2012-01-25T13:56:10Z</time>
      </trkpt>
      <trkpt lat="45.68659" lon="6.56725">
        <ele>1029.777</ele>
        <time>2012-01-25T13:56:20Z</time>
      </trkpt>
      <trkpt lat="45.6866" lon="6.56729">
        <ele>1029.666</ele>
        <time>2012-01-25T13:56:30Z</time>
      </trkpt>
      <trkpt lat="45.6866" lon="6.56731">
        <ele>1027.624</ele>
        <time>2012-01-25T13:56:40Z</time>
      </trkpt>
      <trkpt lat="45.68661" lon="6.56732">
        <ele>1029.244</ele>
        <time>2012-01-25T13:56:50Z</time>
      </trkpt>
      <trkpt lat="45.68661" lon="6.56734">
        <ele>1029.344</ele>
        <time>2012-01-25T13:57:00Z</time>
      </trkpt>
      <trkpt lat="45.68661" lon="6.56734">
        <ele>1028.76</ele>
        <time>2012-01-25T13:57:10Z</time>
      </trkpt>
      <trkpt lat="45.68661" lon="6.56734">
        <ele>1029.397</ele>
        <time>2012-01-25T13:57:20Z</time>
      </trkpt>
      <trkpt lat="45.68662" lon="6.56735">
        <ele>1029.302</ele>
        <time>2012-01-25T13:57:30Z</time>
      </trkpt>
      <trkpt lat="45.68664" lon="6.56736">
        <ele>1028.842</ele>
        <time>2012-01-25T13:57:40Z</time>
      </trkpt>
      <trkpt lat="45.68664" lon="6.56737">
        <ele>1029.558</ele>
        <time>2012-01-25T13:57:50Z</time>
      </trkpt>
      <trkpt lat="45.68662" lon="6.56737">
        <ele>1029.392</ele>
        <time>2012-01-25T13:58:00Z</time>
      </trkpt>
      <trkpt lat="45.68662" lon="6.56738">
        <ele>1029.278</ele>
        <time>2012-01-25T13:58:10Z</time>
      </trkpt>
      <trkpt lat="45.68662" lon="6.56739">
        <ele>1029.349</ele>
        <time>2012-01-25T13:58:20Z</time>
      </trkpt>
      <trkpt lat="45.68663" lon="6.5674">
        <ele>1029.135</ele>
        <time>2012-01-25T13:58:30Z</time>
      </trkpt>
      <trkpt lat="45.68663" lon="6.56739">
        <ele>1029.27</ele>
        <time>2012-01-25T13:58:40Z</time>
      </trkpt>
      <trkpt lat="45.68664" lon="6.56738">
        <ele>1029.579</ele>
        <time>2012-01-25T13:58:50Z</time>
      </trkpt>
      <trkpt lat="45.68673" lon="6.56736">
        <ele>1029.344</ele>
        <time>2012-01-25T13:59:00Z</time>
      </trkpt>
      <trkpt lat="45.68676" lon="6.56736">
        <ele>1029.503</ele>
        <time>2012-01-25T13:59:10Z</time>
      </trkpt>
      <trkpt lat="45.68675" lon="6.56736">
        <ele>1029.04</ele>
        <time>2012-01-25T13:59:20Z</time>
      </trkpt>
      <trkpt lat="45.68675" lon="6.56739">
        <ele>1029.51</ele>
        <time>2012-01-25T13:59:30Z</time>
      </trkpt>
      <trkpt lat="45.68675" lon="6.56741">
        <ele>1029.55</ele>
        <time>2012-01-25T13:59:40Z</time>
      </trkpt>
      <trkpt lat="45.68676" lon="6.56744">
        <ele>1029.048</ele>
        <time>2012-01-25T13:59:50Z</time>
      </trkpt>
      <trkpt lat="45.68676" lon="6.56746">
        <ele>1029.68</ele>
        <time>2012-01-25T14:00:00Z</time>
      </trkpt>
      <trkpt lat="45.68674" lon="6.56749">
        <ele>1029.466</ele>
        <time>2012-01-25T14:00:10Z</time>
      </trkpt>
      <trkpt lat="45.68672" lon="6.5675">
        <ele>1029.772</ele>
        <time>2012-01-25T14:00:20Z</time>
      </trkpt>
      <trkpt lat="45.68672" lon="6.56751">
        <ele>1029.637</ele>
        <time>2012-01-25T14:00:30Z</time>
      </trkpt>
      <trkpt lat="45.68671" lon="6.56753">
        <ele>1029.88</ele>
        <time>2012-01-25T14:00:40Z</time>
      </trkpt>
      <trkpt lat="45.68672" lon="6.56755">
        <ele>1029.724</ele>
        <time>2012-01-25T14:00:50Z</time>
      </trkpt>
      <trkpt lat="45.68671" lon="6.56756">
        <ele>1029.693</ele>
        <time>2012-01-25T14:01:00Z</time>
      </trkpt>
      <trkpt lat="45.68671" lon="6.56753">
        <ele>1029.22</ele>
        <time>2012-01-25T14:01:10Z</time>
      </trkpt>
      <trkpt lat="45.6867" lon="6.56754">
        <ele>1029.444</ele>
        <time>2012-01-25T14:01:20Z</time>
      </trkpt>
      <trkpt lat="45.6867" lon="6.56756">
        <ele>1029.545</ele>
        <time>2012-01-25T14:01:30Z</time>
      </trkpt>
      <trkpt lat="45.6867" lon="6.56757">
        <ele>1029.336</ele>
        <time>2012-01-25T14:01:40Z</time>
      </trkpt>
      <trkpt lat="45.6867" lon="6.56758">
        <ele>1029.629</ele>
        <time>2012-01-25T14:01:50Z</time>
      </trkpt>
      <trkpt lat="45.6867" lon="6.5676">
        <ele>1029.489</ele>
        <time>2012-01-25T14:02:00Z</time>
      </trkpt>
      <trkpt lat="45.68671" lon="6.56762">
        <ele>1027.88</ele>
        <time>2012-01-25T14:02:10Z</time>
      </trkpt>
      <trkpt lat="45.68671" lon="6.56765">
        <ele>1029.629</ele>
        <time>2012-01-25T14:02:20Z</time>
      </trkpt>
      <trkpt lat="45.68671" lon="6.56767">
        <ele>1027.471</ele>
        <time>2012-01-25T14:02:30Z</time>
      </trkpt>
      <trkpt lat="45.68671" lon="6.56768">
        <ele>1029.777</ele>
        <time>2012-01-25T14:02:40Z</time>
      </trkpt>
      <trkpt lat="45.68671" lon="6.56769">
        <ele>1029.664</ele>
        <time>2012-01-25T14:02:50Z</time>
      </trkpt>
      <trkpt lat="45.6867" lon="6.56769">
        <ele>1029.537</ele>
        <time>2012-01-25T14:03:00Z</time>
      </trkpt>
      <trkpt lat="45.68669" lon="6.56769">
        <ele>1029.954</ele>
        <time>2012-01-25T14:03:10Z</time>
      </trkpt>
      <trkpt lat="45.68667" lon="6.56769">
        <ele>1029.706</ele>
        <time>2012-01-25T14:03:20Z</time>
      </trkpt>
      <trkpt lat="45.68666" lon="6.56769">
        <ele>1029.693</ele>
        <time>2012-01-25T14:03:30Z</time>
      </trkpt>
      <trkpt lat="45.68666" lon="6.5677">
        <ele>1029.526</ele>
        <time>2012-01-25T14:03:40Z</time>
      </trkpt>
      <trkpt lat="45.68666" lon="6.56773">
        <ele>1029.566</ele>
        <time>2012-01-25T14:03:50Z</time>
      </trkpt>
      <trkpt lat="45.68666" lon="6.5677">
        <ele>1029.45</ele>
        <time>2012-01-25T14:04:00Z</time>
      </trkpt>
      <trkpt lat="45.68666" lon="6.56768">
        <ele>1030.108</ele>
        <time>2012-01-25T14:04:10Z</time>
      </trkpt>
      <trkpt lat="45.68666" lon="6.56767">
        <ele>1029.664</ele>
        <time>2012-01-25T14:04:20Z</time>
      </trkpt>
      <trkpt lat="45.68666" lon="6.56766">
        <ele>1029.429</ele>
        <time>2012-01-25T14:04:30Z</time>
      </trkpt>
      <trkpt lat="45.68666" lon="6.56766">
        <ele>1029.566</ele>
        <time>2012-01-25T14:04:40Z</time>
      </trkpt>
      <trkpt lat="45.68665" lon="6.56765">
        <ele>1027.378</ele>
        <time>2012-01-25T14:04:50Z</time>
      </trkpt>
      <trkpt lat="45.68665" lon="6.56764">
        <ele>1030.155</ele>
        <time>2012-01-25T14:05:00Z</time>
      </trkpt>
      <trkpt lat="45.68665" lon="6.56764">
        <ele>1029.989</ele>
        <time>2012-01-25T14:05:10Z</time>
      </trkpt>
      <trkpt lat="45.68665" lon="6.56764">
        <ele>1029.859</ele>
        <time>2012-01-25T14:05:20Z</time>
      </trkpt>
      <trkpt lat="45.68665" lon="6.56765">
        <ele>1029.954</ele>
        <time>2012-01-25T14:05:30Z</time>
      </trkpt>
      <trkpt lat="45.68665" lon="6.56766">
        <ele>1030.124</ele>
        <time>2012-01-25T14:05:40Z</time>
      </trkpt>
      <trkpt lat="45.68665" lon="6.56766">
        <ele>1030.121</ele>
        <time>2012-01-25T14:05:50Z</time>
      </trkpt>
      <trkpt lat="45.68664" lon="6.56766">
        <ele>1030.042</ele>
        <time>2012-01-25T14:06:00Z</time>
      </trkpt>
      <trkpt lat="45.68664" lon="6.56767">
        <ele>1029.865</ele>
        <time>2012-01-25T14:06:10Z</time>
      </trkpt>
      <trkpt lat="45.68664" lon="6.56767">
        <ele>1029.746</ele>
        <time>2012-01-25T14:06:20Z</time>
      </trkpt>
      <trkpt lat="45.68664" lon="6.56767">
        <ele>1029.785</ele>
        <time>2012-01-25T14:06:30Z</time>
      </trkpt>
      <trkpt lat="45.68664" lon="6.56766">
        <ele>1028.015</ele>
        <time>2012-01-25T14:06:40Z</time>
      </trkpt>
      <trkpt lat="45.68664" lon="6.56763">
        <ele>1029.994</ele>
        <time>2012-01-25T14:06:50Z</time>
      </trkpt>
      <trkpt lat="45.68664" lon="6.5676">
        <ele>1029.672</ele>
        <time>2012-01-25T14:07:00Z</time>
      </trkpt>
      <trkpt lat="45.68663" lon="6.56759">
        <ele>1029.933</ele>
        <time>2012-01-25T14:07:10Z</time>
      </trkpt>
      <trkpt lat="45.68663" lon="6.56758">
        <ele>1029.867</ele>
        <time>2012-01-25T14:07:20Z</time>
      </trkpt>
      <trkpt lat="45.68663" lon="6.56759">
        <ele>1029.96</ele>
        <time>2012-01-25T14:07:30Z</time>
      </trkpt>
      <trkpt lat="45.68663" lon="6.5676">
        <ele>1030.055</ele>
        <time>2012-01-25T14:07:40Z</time>
      </trkpt>
      <trkpt lat="45.68663" lon="6.56761">
        <ele>1030.124</ele>
        <time>2012-01-25T14:07:50Z</time>
      </trkpt>
      <trkpt lat="45.68663" lon="6.56763">
        <ele>1030.168</ele>
        <time>2012-01-25T14:08:00Z</time>
      </trkpt>
      <trkpt lat="45.68663" lon="6.56765">
        <ele>1028.224</ele>
        <time>2012-01-25T14:08:10Z</time>
      </trkpt>
      <trkpt lat="45.68662" lon="6.56766">
        <ele>1028.483</ele>
        <time>2012-01-25T14:08:20Z</time>
      </trkpt>
      <trkpt lat="45.6866" lon="6.56767">
        <ele>1030.208</ele>
        <time>2012-01-25T14:08:30Z</time>
      </trkpt>
      <trkpt lat="45.68659" lon="6.56768">
        <ele>1029.92</ele>
        <time>2012-01-25T14:08:40Z</time>
      </trkpt>
      <trkpt lat="45.68657" lon="6.56766">
        <ele>1030.155</ele>
        <time>2012-01-25T14:08:50Z</time>
      </trkpt>
      <trkpt lat="45.68656" lon="6.56766">
        <ele>1030.597</ele>
        <time>2012-01-25T14:09:00Z</time>
      </trkpt>
      <trkpt lat="45.68656" lon="6.56765">
        <ele>1030.287</ele>
        <time>2012-01-25T14:09:10Z</time>
      </trkpt>
      <trkpt lat="45.68656" lon="6.56759">
        <ele>1030.438</ele>
        <time>2012-01-25T14:09:20Z</time>
      </trkpt>
      <trkpt lat="45.68657" lon="6.56739">
        <ele>1030.25</ele>
        <time>2012-01-25T14:09:30Z</time>
      </trkpt>
      <trkpt lat="45.68659" lon="6.56734">
        <ele>1030.229</ele>
        <time>2012-01-25T14:09:40Z</time>
      </trkpt>
      <trkpt lat="45.6866" lon="6.56732">
        <ele>1029.74</ele>
        <time>2012-01-25T14:09:50Z</time>
      </trkpt>
      <trkpt lat="45.68661" lon="6.56731">
        <ele>1030.351</ele>
        <time>2012-01-25T14:10:00Z</time>
      </trkpt>
      <trkpt lat="45.68662" lon="6.56731">
        <ele>1030.068</ele>
        <time>2012-01-25T14:10:10Z</time>
      </trkpt>
      <trkpt lat="45.68664" lon="6.56734">
        <ele>1029.954</ele>
        <time>2012-01-25T14:10:20Z</time>
      </trkpt>
      <trkpt lat="45.68666" lon="6.56735">
        <ele>1030.478</ele>
        <time>2012-01-25T14:10:30Z</time>
      </trkpt>
      <trkpt lat="45.68667" lon="6.56738">
        <ele>1030.277</ele>
        <time>2012-01-25T14:10:40Z</time>
      </trkpt>
      <trkpt lat="45.68667" lon="6.56741">
        <ele>1030.047</ele>
        <time>2012-01-25T14:10:50Z</time>
      </trkpt>
      <trkpt lat="45.68667" lon="6.56744">
        <ele>1030.073</ele>
        <time>2012-01-25T14:11:00Z</time>
      </trkpt>
      <trkpt lat="45.68667" lon="6.56743">
        <ele>1030.248</ele>
        <time>2012-01-25T14:11:10Z</time>
      </trkpt>
      <trkpt lat="45.68666" lon="6.56741">
        <ele>1030.414</ele>
        <time>2012-01-25T14:11:20Z</time>
      </trkpt>
      <trkpt lat="45.68665" lon="6.56739">
        <ele>1030.282</ele>
        <time>2012-01-25T14:11:30Z</time>
      </trkpt>
      <trkpt lat="45.68664" lon="6.5674">
        <ele>1027.745</ele>
        <time>2012-01-25T14:11:40Z</time>
      </trkpt>
      <trkpt lat="45.68665" lon="6.56742">
        <ele>1030.073</ele>
        <time>2012-01-25T14:11:50Z</time>
      </trkpt>
      <trkpt lat="45.68666" lon="6.56745">
        <ele>1030.351</ele>
        <time>2012-01-25T14:12:00Z</time>
      </trkpt>
      <trkpt lat="45.68668" lon="6.56745">
        <ele>1030.155</ele>
        <time>2012-01-25T14:12:10Z</time>
      </trkpt>
      <trkpt lat="45.68669" lon="6.56749">
        <ele>1030.327</ele>
        <time>2012-01-25T14:12:20Z</time>
      </trkpt>
      <trkpt lat="45.6867" lon="6.56747">
        <ele>1030.565</ele>
        <time>2012-01-25T14:12:30Z</time>
      </trkpt>
      <trkpt lat="45.68673" lon="6.56745">
        <ele>1030.649</ele>
        <time>2012-01-25T14:12:40Z</time>
      </trkpt>
      <trkpt lat="45.68675" lon="6.56747">
        <ele>1030.274</ele>
        <time>2012-01-25T14:12:50Z</time>
      </trkpt>
      <trkpt lat="45.68675" lon="6.56744">
        <ele>1030.361</ele>
        <time>2012-01-25T14:13:00Z</time>
      </trkpt>
      <trkpt lat="45.68675" lon="6.56742">
        <ele>1030.771</ele>
        <time>2012-01-25T14:13:10Z</time>
      </trkpt>
      <trkpt lat="45.68676" lon="6.56731">
        <ele>1030.438</ele>
        <time>2012-01-25T14:13:20Z</time>
      </trkpt>
      <trkpt lat="45.68679" lon="6.56722">
        <ele>1030.377</ele>
        <time>2012-01-25T14:13:30Z</time>
      </trkpt>
      <trkpt lat="45.68678" lon="6.56716">
        <ele>1030.282</ele>
        <time>2012-01-25T14:13:40Z</time>
      </trkpt>
      <trkpt lat="45.68678" lon="6.56716">
        <ele>1030.53</ele>
        <time>2012-01-25T14:13:50Z</time>
      </trkpt>
      <trkpt lat="45.68677" lon="6.56718">
        <ele>1030.501</ele>
        <time>2012-01-25T14:14:00Z</time>
      </trkpt>
      <trkpt lat="45.68675" lon="6.56735">
        <ele>1030.361</ele>
        <time>2012-01-25T14:14:10Z</time>
      </trkpt>
      <trkpt lat="45.68675" lon="6.56742">
        <ele>1029.907</ele>
        <time>2012-01-25T14:14:20Z</time>
      </trkpt>
      <trkpt lat="45.68675" lon="6.56743">
        <ele>1030.599</ele>
        <time>2012-01-25T14:14:30Z</time>
      </trkpt>
      <trkpt lat="45.68676" lon="6.56746">
        <ele>1030.53</ele>
        <time>2012-01-25T14:14:40Z</time>
      </trkpt>
      <trkpt lat="45.68675" lon="6.56748">
        <ele>1030.2</ele>
        <time>2012-01-25T14:14:50Z</time>
      </trkpt>
      <trkpt lat="45.68674" lon="6.56748">
        <ele>1030.438</ele>
        <time>2012-01-25T14:15:00Z</time>
      </trkpt>
      <trkpt lat="45.68674" lon="6.56749">
        <ele>1030.174</ele>
        <time>2012-01-25T14:15:10Z</time>
      </trkpt>
      <trkpt lat="45.68673" lon="6.56754">
        <ele>1030.438</ele>
        <time>2012-01-25T14:15:20Z</time>
      </trkpt>
      <trkpt lat="45.68675" lon="6.56761">
        <ele>1030.274</ele>
        <time>2012-01-25T14:15:30Z</time>
      </trkpt>
      <trkpt lat="45.68679" lon="6.56767">
        <ele>1030.478</ele>
        <time>2012-01-25T14:15:40Z</time>
      </trkpt>
      <trkpt lat="45.68678" lon="6.56768">
        <ele>1030.404</ele>
        <time>2012-01-25T14:15:50Z</time>
      </trkpt>
      <trkpt lat="45.68678" lon="6.5676">
        <ele>1030.557</ele>
        <time>2012-01-25T14:16:00Z</time>
      </trkpt>
      <trkpt lat="45.68678" lon="6.56759">
        <ele>1030.364</ele>
        <time>2012-01-25T14:16:10Z</time>
      </trkpt>
      <trkpt lat="45.68677" lon="6.56756">
        <ele>1030.491</ele>
        <time>2012-01-25T14:16:20Z</time>
      </trkpt>
      <trkpt lat="45.68677" lon="6.56756">
        <ele>1030.208</ele>
        <time>2012-01-25T14:16:30Z</time>
      </trkpt>
      <trkpt lat="45.68678" lon="6.56754">
        <ele>1030.522</ele>
        <time>2012-01-25T14:16:40Z</time>
      </trkpt>
      <trkpt lat="45.6868" lon="6.56749">
        <ele>1030.512</ele>
        <time>2012-01-25T14:16:50Z</time>
      </trkpt>
      <trkpt lat="45.68679" lon="6.56749">
        <ele>1030.644</ele>
        <time>2012-01-25T14:17:00Z</time>
      </trkpt>
      <trkpt lat="45.68679" lon="6.5675">
        <ele>1030.517</ele>
        <time>2012-01-25T14:17:10Z</time>
      </trkpt>
      <trkpt lat="45.6868" lon="6.56748">
        <ele>1028.269</ele>
        <time>2012-01-25T14:17:20Z</time>
      </trkpt>
      <trkpt lat="45.68681" lon="6.56747">
        <ele>1027.753</ele>
        <time>2012-01-25T14:17:30Z</time>
      </trkpt>
      <trkpt lat="45.68682" lon="6.56745">
        <ele>1029.947</ele>
        <time>2012-01-25T14:17:40Z</time>
      </trkpt>
      <trkpt lat="45.68684" lon="6.56746">
        <ele>1028.15</ele>
        <time>2012-01-25T14:17:50Z</time>
      </trkpt>
      <trkpt lat="45.68685" lon="6.56747">
        <ele>1028.097</ele>
        <time>2012-01-25T14:18:00Z</time>
      </trkpt>
      <trkpt lat="45.68684" lon="6.5675">
        <ele>1030.438</ele>
        <time>2012-01-25T14:18:10Z</time>
      </trkpt>
      <trkpt lat="45.68682" lon="6.56751">
        <ele>1030.525</ele>
        <time>2012-01-25T14:18:20Z</time>
      </trkpt>
      <trkpt lat="45.68682" lon="6.56752">
        <ele>1030.282</ele>
        <time>2012-01-25T14:18:30Z</time>
      </trkpt>
      <trkpt lat="45.68682" lon="6.56754">
        <ele>1030.47</ele>
        <time>2012-01-25T14:18:40Z</time>
      </trkpt>
      <trkpt lat="45.6868" lon="6.56757">
        <ele>1030.805</ele>
        <time>2012-01-25T14:18:50Z</time>
      </trkpt>
      <trkpt lat="45.68681" lon="6.56761">
        <ele>1030.491</ele>
        <time>2012-01-25T14:19:00Z</time>
      </trkpt>
      <trkpt lat="45.68681" lon="6.56759">
        <ele>1028.018</ele>
        <time>2012-01-25T14:19:10Z</time>
      </trkpt>
      <trkpt lat="45.68681" lon="6.56758">
        <ele>1030.438</ele>
        <time>2012-01-25T14:19:20Z</time>
      </trkpt>
      <trkpt lat="45.68682" lon="6.56755">
        <ele>1030.671</ele>
        <time>2012-01-25T14:19:30Z</time>
      </trkpt>
      <trkpt lat="45.68683" lon="6.56758">
        <ele>1030.649</ele>
        <time>2012-01-25T14:19:40Z</time>
      </trkpt>
      <trkpt lat="45.68683" lon="6.56759">
        <ele>1030.237</ele>
        <time>2012-01-25T14:19:50Z</time>
      </trkpt>
      <trkpt lat="45.68681" lon="6.56761">
        <ele>1030.578</ele>
        <time>2012-01-25T14:20:00Z</time>
      </trkpt>
      <trkpt lat="45.6868" lon="6.56755">
        <ele>1030.517</ele>
        <time>2012-01-25T14:20:10Z</time>
      </trkpt>
      <trkpt lat="45.68676" lon="6.56746">
        <ele>1030.53</ele>
        <time>2012-01-25T14:20:20Z</time>
      </trkpt>
      <trkpt lat="45.68667" lon="6.56736">
        <ele>1030.731</ele>
        <time>2012-01-25T14:20:30Z</time>
      </trkpt>
      <trkpt lat="45.68662" lon="6.56729">
        <ele>1030.47</ele>
        <time>2012-01-25T14:20:40Z</time>
      </trkpt>
      <trkpt lat="45.68661" lon="6.56729">
        <ele>1030.723</ele>
        <time>2012-01-25T14:20:50Z</time>
      </trkpt>
      <trkpt lat="45.68662" lon="6.56731">
        <ele>1031.429</ele>
        <time>2012-01-25T14:21:00Z</time>
      </trkpt>
      <trkpt lat="45.68663" lon="6.56732">
        <ele>1031.363</ele>
        <time>2012-01-25T14:21:10Z</time>
      </trkpt>
      <trkpt lat="45.68663" lon="6.56734">
        <ele>1031.556</ele>
        <time>2012-01-25T14:21:20Z</time>
      </trkpt>
      <trkpt lat="45.68662" lon="6.56735">
        <ele>1031.355</ele>
        <time>2012-01-25T14:21:30Z</time>
      </trkpt>
      <trkpt lat="45.68662" lon="6.56734">
        <ele>1031.521</ele>
        <time>2012-01-25T14:21:40Z</time>
      </trkpt>
      <trkpt lat="45.68664" lon="6.56732">
        <ele>1028.768</ele>
        <time>2012-01-25T14:21:50Z</time>
      </trkpt>
      <trkpt lat="45.68666" lon="6.5674">
        <ele>1026.258</ele>
        <time>2012-01-25T14:22:00Z</time>
      </trkpt>
      <trkpt lat="45.68666" lon="6.56735">
        <ele>1028.792</ele>
        <time>2012-01-25T14:22:10Z</time>
      </trkpt>
      <trkpt lat="45.68664" lon="6.56733">
        <ele>1028.987</ele>
        <time>2012-01-25T14:22:20Z</time>
      </trkpt>
      <trkpt lat="45.68664" lon="6.56734">
        <ele>1028.757</ele>
        <time>2012-01-25T14:22:30Z</time>
      </trkpt>
      <trkpt lat="45.68666" lon="6.56731">
        <ele>1028.533</ele>
        <time>2012-01-25T14:22:40Z</time>
      </trkpt>
      <trkpt lat="45.68664" lon="6.56732">
        <ele>1028.969</ele>
        <time>2012-01-25T14:22:50Z</time>
      </trkpt>
      <trkpt lat="45.68662" lon="6.56734">
        <ele>1028.86</ele>
        <time>2012-01-25T14:23:00Z</time>
      </trkpt>
      <trkpt lat="45.68661" lon="6.56732">
        <ele>1028.765</ele>
        <time>2012-01-25T14:23:10Z</time>
      </trkpt>
      <trkpt lat="45.68662" lon="6.56725">
        <ele>1028.418</ele>
        <time>2012-01-25T14:23:20Z</time>
      </trkpt>
      <trkpt lat="45.68662" lon="6.56718">
        <ele>1028.409</ele>
        <time>2012-01-25T14:23:30Z</time>
      </trkpt>
      <trkpt lat="45.68668" lon="6.56712">
        <ele>1027.371</ele>
        <time>2012-01-25T14:23:40Z</time>
      </trkpt>
      <trkpt lat="45.68672" lon="6.56703">
        <ele>1026.773</ele>
        <time>2012-01-25T14:23:50Z</time>
      </trkpt>
      <trkpt lat="45.68672" lon="6.5669">
        <ele>1025.793</ele>
        <time>2012-01-25T14:24:00Z</time>
      </trkpt>
      <trkpt lat="45.68668" lon="6.56674">
        <ele>1025.066</ele>
        <time>2012-01-25T14:24:10Z</time>
      </trkpt>
      <trkpt lat="45.68669" lon="6.56654">
        <ele>1024.673</ele>
        <time>2012-01-25T14:24:20Z</time>
      </trkpt>
      <trkpt lat="45.68672" lon="6.5664">
        <ele>1023.785</ele>
        <time>2012-01-25T14:24:30Z</time>
      </trkpt>
      <trkpt lat="45.68674" lon="6.56626">
        <ele>1023.321</ele>
        <time>2012-01-25T14:24:40Z</time>
      </trkpt>
      <trkpt lat="45.68673" lon="6.5661">
        <ele>1022.44</ele>
        <time>2012-01-25T14:24:50Z</time>
      </trkpt>
      <trkpt lat="45.68672" lon="6.56594">
        <ele>1021.622</ele>
        <time>2012-01-25T14:25:00Z</time>
      </trkpt>
      <trkpt lat="45.68675" lon="6.56585">
        <ele>1020.737</ele>
        <time>2012-01-25T14:25:10Z</time>
      </trkpt>
      <trkpt lat="45.68674" lon="6.56569">
        <ele>1020.19</ele>
        <time>2012-01-25T14:25:20Z</time>
      </trkpt>
      <trkpt lat="45.68677" lon="6.56564">
        <ele>1018.628</ele>
        <time>2012-01-25T14:25:30Z</time>
      </trkpt>
      <trkpt lat="45.6868" lon="6.56559">
        <ele>1017.634</ele>
        <time>2012-01-25T14:25:40Z</time>
      </trkpt>
      <trkpt lat="45.68683" lon="6.56557">
        <ele>1015.528</ele>
        <time>2012-01-25T14:25:50Z</time>
      </trkpt>
      <trkpt lat="45.68685" lon="6.56544">
        <ele>1013.664</ele>
        <time>2012-01-25T14:26:00Z</time>
      </trkpt>
      <trkpt lat="45.68677" lon="6.5653">
        <ele>1013.517</ele>
        <time>2012-01-25T14:26:10Z</time>
      </trkpt>
      <trkpt lat="45.68675" lon="6.56519">
        <ele>1012.433</ele>
        <time>2012-01-25T14:26:20Z</time>
      </trkpt>
      <trkpt lat="45.68677" lon="6.56507">
        <ele>1010.426</ele>
        <time>2012-01-25T14:26:30Z</time>
      </trkpt>
      <trkpt lat="45.68674" lon="6.56496">
        <ele>1008.98</ele>
        <time>2012-01-25T14:26:40Z</time>
      </trkpt>
      <trkpt lat="45.6868" lon="6.56495">
        <ele>1006.742</ele>
        <time>2012-01-25T14:26:50Z</time>
      </trkpt>
      <trkpt lat="45.68699" lon="6.56501">
        <ele>1004.818</ele>
        <time>2012-01-25T14:27:00Z</time>
      </trkpt>
      <trkpt lat="45.68713" lon="6.56512">
        <ele>1004.61</ele>
        <time>2012-01-25T14:27:10Z</time>
      </trkpt>
      <trkpt lat="45.68721" lon="6.56509">
        <ele>1004.655</ele>
        <time>2012-01-25T14:27:20Z</time>
      </trkpt>
      <trkpt lat="45.6873" lon="6.56513">
        <ele>1005.019</ele>
        <time>2012-01-25T14:27:30Z</time>
      </trkpt>
      <trkpt lat="45.68733" lon="6.56516">
        <ele>1004.776</ele>
        <time>2012-01-25T14:27:40Z</time>
      </trkpt>
      <trkpt lat="45.68738" lon="6.56516">
        <ele>1004.644</ele>
        <time>2012-01-25T14:27:50Z</time>
      </trkpt>
      <trkpt lat="45.68754" lon="6.56536">
        <ele>1004.575</ele>
        <time>2012-01-25T14:28:00Z</time>
      </trkpt>
      <trkpt lat="45.68766" lon="6.56542">
        <ele>1003.458</ele>
        <time>2012-01-25T14:28:10Z</time>
      </trkpt>
      <trkpt lat="45.68775" lon="6.56545">
        <ele>1002.084</ele>
        <time>2012-01-25T14:28:20Z</time>
      </trkpt>
      <trkpt lat="45.68784" lon="6.56545">
        <ele>1000.813</ele>
        <time>2012-01-25T14:28:30Z</time>
      </trkpt>
      <trkpt lat="45.68781" lon="6.56527">
        <ele>999.584</ele>
        <time>2012-01-25T14:28:40Z</time>
      </trkpt>
      <trkpt lat="45.68771" lon="6.56523">
        <ele>998.512</ele>
        <time>2012-01-25T14:28:50Z</time>
      </trkpt>
      <trkpt lat="45.68753" lon="6.56517">
        <ele>997.352</ele>
        <time>2012-01-25T14:29:00Z</time>
      </trkpt>
      <trkpt lat="45.68735" lon="6.56509">
        <ele>996.164</ele>
        <time>2012-01-25T14:29:10Z</time>
      </trkpt>
      <trkpt lat="45.68724" lon="6.56513">
        <ele>995.709</ele>
        <time>2012-01-25T14:29:20Z</time>
      </trkpt>
      <trkpt lat="45.68716" lon="6.56505">
        <ele>995.612</ele>
        <time>2012-01-25T14:29:30Z</time>
      </trkpt>
      <trkpt lat="45.68713" lon="6.56494">
        <ele>995.171</ele>
        <time>2012-01-25T14:29:40Z</time>
      </trkpt>
      <trkpt lat="45.687" lon="6.56465">
        <ele>995.156</ele>
        <time>2012-01-25T14:29:50Z</time>
      </trkpt>
      <trkpt lat="45.68701" lon="6.56453">
        <ele>994.804</ele>
        <time>2012-01-25T14:30:00Z</time>
      </trkpt>
      <trkpt lat="45.68712" lon="6.56445">
        <ele>994.165</ele>
        <time>2012-01-25T14:30:10Z</time>
      </trkpt>
      <trkpt lat="45.68724" lon="6.56439">
        <ele>993.512</ele>
        <time>2012-01-25T14:30:20Z</time>
      </trkpt>
      <trkpt lat="45.68736" lon="6.56434">
        <ele>993.187</ele>
        <time>2012-01-25T14:30:30Z</time>
      </trkpt>
      <trkpt lat="45.68746" lon="6.56423">
        <ele>993.215</ele>
        <time>2012-01-25T14:30:40Z</time>
      </trkpt>
      <trkpt lat="45.68756" lon="6.56418">
        <ele>993.133</ele>
        <time>2012-01-25T14:30:50Z</time>
      </trkpt>
      <trkpt lat="45.68766" lon="6.56411">
        <ele>993.633</ele>
        <time>2012-01-25T14:31:00Z</time>
      </trkpt>
      <trkpt lat="45.68778" lon="6.5641">
        <ele>994.397</ele>
        <time>2012-01-25T14:31:10Z</time>
      </trkpt>
      <trkpt lat="45.68788" lon="6.56401">
        <ele>994.84</ele>
        <time>2012-01-25T14:31:20Z</time>
      </trkpt>
      <trkpt lat="45.68796" lon="6.56391">
        <ele>995.238</ele>
        <time>2012-01-25T14:31:30Z</time>
      </trkpt>
      <trkpt lat="45.68811" lon="6.56389">
        <ele>995.772</ele>
        <time>2012-01-25T14:31:40Z</time>
      </trkpt>
      <trkpt lat="45.68819" lon="6.56383">
        <ele>996.397</ele>
        <time>2012-01-25T14:31:50Z</time>
      </trkpt>
      <trkpt lat="45.68831" lon="6.56379">
        <ele>996.885</ele>
        <time>2012-01-25T14:32:00Z</time>
      </trkpt>
      <trkpt lat="45.68842" lon="6.56372">
        <ele>996.871</ele>
        <time>2012-01-25T14:32:10Z</time>
      </trkpt>
      <trkpt lat="45.68854" lon="6.56366">
        <ele>997.643</ele>
        <time>2012-01-25T14:32:20Z</time>
      </trkpt>
      <trkpt lat="45.68861" lon="6.56357">
        <ele>998.118</ele>
        <time>2012-01-25T14:32:30Z</time>
      </trkpt>
      <trkpt lat="45.68871" lon="6.56352">
        <ele>998.514</ele>
        <time>2012-01-25T14:32:40Z</time>
      </trkpt>
      <trkpt lat="45.68883" lon="6.56352">
        <ele>999.069</ele>
        <time>2012-01-25T14:32:50Z</time>
      </trkpt>
      <trkpt lat="45.68896" lon="6.56352">
        <ele>1000.062</ele>
        <time>2012-01-25T14:33:00Z</time>
      </trkpt>
      <trkpt lat="45.68907" lon="6.56347">
        <ele>1000.778</ele>
        <time>2012-01-25T14:33:10Z</time>
      </trkpt>
      <trkpt lat="45.68915" lon="6.56335">
        <ele>1001.409</ele>
        <time>2012-01-25T14:33:20Z</time>
      </trkpt>
      <trkpt lat="45.68915" lon="6.56318">
        <ele>1001.523</ele>
        <time>2012-01-25T14:33:30Z</time>
      </trkpt>
      <trkpt lat="45.68919" lon="6.56304">
        <ele>1001.901</ele>
        <time>2012-01-25T14:33:40Z</time>
      </trkpt>
      <trkpt lat="45.68921" lon="6.56289">
        <ele>1002.69</ele>
        <time>2012-01-25T14:33:50Z</time>
      </trkpt>
      <trkpt lat="45.6893" lon="6.56276">
        <ele>1003.372</ele>
        <time>2012-01-25T14:34:00Z</time>
      </trkpt>
      <trkpt lat="45.68939" lon="6.56264">
        <ele>1003.984</ele>
        <time>2012-01-25T14:34:10Z</time>
      </trkpt>
      <trkpt lat="45.68951" lon="6.56263">
        <ele>1004.417</ele>
        <time>2012-01-25T14:34:20Z</time>
      </trkpt>
      <trkpt lat="45.68962" lon="6.56268">
        <ele>1005.369</ele>
        <time>2012-01-25T14:34:30Z</time>
      </trkpt>
      <trkpt lat="45.68974" lon="6.56277">
        <ele>1006.246</ele>
        <time>2012-01-25T14:34:40Z</time>
      </trkpt>
      <trkpt lat="45.68985" lon="6.56288">
        <ele>1007.172</ele>
        <time>2012-01-25T14:34:50Z</time>
      </trkpt>
      <trkpt lat="45.68994" lon="6.56292">
        <ele>1007.833</ele>
        <time>2012-01-25T14:35:00Z</time>
      </trkpt>
      <trkpt lat="45.69006" lon="6.56293">
        <ele>1008.484</ele>
        <time>2012-01-25T14:35:10Z</time>
      </trkpt>
      <trkpt lat="45.69017" lon="6.56292">
        <ele>1008.655</ele>
        <time>2012-01-25T14:35:20Z</time>
      </trkpt>
      <trkpt lat="45.69024" lon="6.56283">
        <ele>1009.763</ele>
        <time>2012-01-25T14:35:30Z</time>
      </trkpt>
      <trkpt lat="45.69036" lon="6.56281">
        <ele>1010.42</ele>
        <time>2012-01-25T14:35:40Z</time>
      </trkpt>
      <trkpt lat="45.69047" lon="6.56291">
        <ele>1011.472</ele>
        <time>2012-01-25T14:35:50Z</time>
      </trkpt>
      <trkpt lat="45.69054" lon="6.56286">
        <ele>1010.436</ele>
        <time>2012-01-25T14:36:00Z</time>
      </trkpt>
      <trkpt lat="45.69064" lon="6.56292">
        <ele>1009.555</ele>
        <time>2012-01-25T14:36:10Z</time>
      </trkpt>
      <trkpt lat="45.69077" lon="6.56294">
        <ele>1008.976</ele>
        <time>2012-01-25T14:36:20Z</time>
      </trkpt>
      <trkpt lat="45.69089" lon="6.56297">
        <ele>1008.834</ele>
        <time>2012-01-25T14:36:30Z</time>
      </trkpt>
      <trkpt lat="45.69099" lon="6.56302">
        <ele>1008.102</ele>
        <time>2012-01-25T14:36:40Z</time>
      </trkpt>
      <trkpt lat="45.69112" lon="6.56308">
        <ele>1008.136</ele>
        <time>2012-01-25T14:36:50Z</time>
      </trkpt>
      <trkpt lat="45.69124" lon="6.56315">
        <ele>1007.913</ele>
        <time>2012-01-25T14:37:00Z</time>
      </trkpt>
      <trkpt lat="45.69135" lon="6.56318">
        <ele>1007.174</ele>
        <time>2012-01-25T14:37:10Z</time>
      </trkpt>
      <trkpt lat="45.69144" lon="6.56321">
        <ele>1006.644</ele>
        <time>2012-01-25T14:37:20Z</time>
      </trkpt>
      <trkpt lat="45.69157" lon="6.56327">
        <ele>1005.963</ele>
        <time>2012-01-25T14:37:30Z</time>
      </trkpt>
      <trkpt lat="45.69165" lon="6.56332">
        <ele>1005.28</ele>
        <time>2012-01-25T14:37:40Z</time>
      </trkpt>
      <trkpt lat="45.69176" lon="6.56334">
        <ele>1004.95</ele>
        <time>2012-01-25T14:37:50Z</time>
      </trkpt>
      <trkpt lat="45.6918" lon="6.56334">
        <ele>1004.813</ele>
        <time>2012-01-25T14:38:00Z</time>
      </trkpt>
      <trkpt lat="45.69181" lon="6.56333">
        <ele>1004.461</ele>
        <time>2012-01-25T14:38:10Z</time>
      </trkpt>
      <trkpt lat="45.69182" lon="6.56333">
        <ele>1004.892</ele>
        <time>2012-01-25T14:38:20Z</time>
      </trkpt>
      <trkpt lat="45.69182" lon="6.56334">
        <ele>1004.596</ele>
        <time>2012-01-25T14:38:30Z</time>
      </trkpt>
      <trkpt lat="45.69182" lon="6.56334">
        <ele>1004.395</ele>
        <time>2012-01-25T14:38:40Z</time>
      </trkpt>
      <trkpt lat="45.69182" lon="6.56334">
        <ele>1004.897</ele>
        <time>2012-01-25T14:38:50Z</time>
      </trkpt>
      <trkpt lat="45.69182" lon="6.56334">
        <ele>1003.787</ele>
        <time>2012-01-25T14:39:00Z</time>
      </trkpt>
      <trkpt lat="45.69183" lon="6.56334">
        <ele>1003.873</ele>
        <time>2012-01-25T14:39:10Z</time>
      </trkpt>
      <trkpt lat="45.69185" lon="6.56333">
        <ele>1003.095</ele>
        <time>2012-01-25T14:39:20Z</time>
      </trkpt>
      <trkpt lat="45.69193" lon="6.56335">
        <ele>1002.283</ele>
        <time>2012-01-25T14:39:30Z</time>
      </trkpt>
      <trkpt lat="45.69204" lon="6.56336">
        <ele>1001.724</ele>
        <time>2012-01-25T14:39:40Z</time>
      </trkpt>
      <trkpt lat="45.69211" lon="6.56338">
        <ele>1001.448</ele>
        <time>2012-01-25T14:39:50Z</time>
      </trkpt>
      <trkpt lat="45.69216" lon="6.56342">
        <ele>1000.687</ele>
        <time>2012-01-25T14:40:00Z</time>
      </trkpt>
      <trkpt lat="45.69216" lon="6.56342">
        <ele>1000.432</ele>
        <time>2012-01-25T14:40:10Z</time>
      </trkpt>
      <trkpt lat="45.69217" lon="6.56342">
        <ele>1000.67</ele>
        <time>2012-01-25T14:40:20Z</time>
      </trkpt>
      <trkpt lat="45.69219" lon="6.56341">
        <ele>1000.508</ele>
        <time>2012-01-25T14:40:30Z</time>
      </trkpt>
      <trkpt lat="45.69221" lon="6.56341">
        <ele>1002.013</ele>
        <time>2012-01-25T14:40:40Z</time>
      </trkpt>
      <trkpt lat="45.69223" lon="6.56343">
        <ele>1001.651</ele>
        <time>2012-01-25T14:40:50Z</time>
      </trkpt>
      <trkpt lat="45.69226" lon="6.56343">
        <ele>1001.838</ele>
        <time>2012-01-25T14:41:00Z</time>
      </trkpt>
      <trkpt lat="45.69228" lon="6.56344">
        <ele>1001.82</ele>
        <time>2012-01-25T14:41:10Z</time>
      </trkpt>
    </trkseg>
  </trk>
  <trk>
    <name><![CDATA[ACTIVE LOG154114]]></name>
    <trkseg>
      <trkpt lat="45.69221" lon="6.56342">
        <ele>1001.574</ele>
        <time>2012-01-25T14:41:14Z</time>
      </trkpt>
      <trkpt lat="45.69221" lon="6.56342">
        <ele>1002.092</ele>
        <time>2012-01-25T14:41:23Z</time>
      </trkpt>
      <trkpt lat="45.69221" lon="6.56342">
        <ele>1002.082</ele>
        <time>2012-01-25T14:41:33Z</time>
      </trkpt>
      <trkpt lat="45.69221" lon="6.56342">
        <ele>1001.548</ele>
        <time>2012-01-25T14:41:43Z</time>
      </trkpt>
      <trkpt lat="45.69221" lon="6.56342">
        <ele>1001.799</ele>
        <time>2012-01-25T14:41:52Z</time>
      </trkpt>
      <trkpt lat="45.69221" lon="6.56342">
        <ele>1001.466</ele>
        <time>2012-01-25T14:42:02Z</time>
      </trkpt>
      <trkpt lat="45.69221" lon="6.56342">
        <ele>1001.27</ele>
        <time>2012-01-25T14:42:13Z</time>
      </trkpt>
      <trkpt lat="45.69221" lon="6.56342">
        <ele>1002.06</ele>
        <time>2012-01-25T14:42:23Z</time>
      </trkpt>
      <trkpt lat="45.69221" lon="6.56342">
        <ele>1001.807</ele>
        <time>2012-01-25T14:42:32Z</time>
      </trkpt>
      <trkpt lat="45.69221" lon="6.56342">
        <ele>1001.638</ele>
        <time>2012-01-25T14:42:43Z</time>
      </trkpt>
      <trkpt lat="45.69221" lon="6.56342">
        <ele>1001.455</ele>
        <time>2012-01-25T14:42:53Z</time>
      </trkpt>
      <trkpt lat="45.69221" lon="6.56342">
        <ele>1001.878</ele>
        <time>2012-01-25T14:43:03Z</time>
      </trkpt>
      <trkpt lat="45.69221" lon="6.56342">
        <ele>1002.082</ele>
        <time>2012-01-25T14:43:13Z</time>
      </trkpt>
      <trkpt lat="45.69221" lon="6.56342">
        <ele>1001.831</ele>
        <time>2012-01-25T14:43:22Z</time>
      </trkpt>
      <trkpt lat="45.69221" lon="6.56342">
        <ele>1001.947</ele>
        <time>2012-01-25T14:43:32Z</time>
      </trkpt>
      <trkpt lat="45.69221" lon="6.56342">
        <ele>1001.891</ele>
        <time>2012-01-25T14:43:42Z</time>
      </trkpt>
      <trkpt lat="45.69221" lon="6.56342">
        <ele>1002.208</ele>
        <time>2012-01-25T14:43:53Z</time>
      </trkpt>
      <trkpt lat="45.69221" lon="6.56342">
        <ele>1003.21</ele>
        <time>2012-01-25T14:44:02Z</time>
      </trkpt>
      <trkpt lat="45.69221" lon="6.56342">
        <ele>1008.095</ele>
        <time>2012-01-25T14:44:12Z</time>
      </trkpt>
      <trkpt lat="45.69221" lon="6.56342">
        <ele>1008.344</ele>
        <time>2012-01-25T14:44:22Z</time>
      </trkpt>
    </trkseg>
  </trk>
  <trk>
    <name><![CDATA[ACTIVE LOG154423]]></name>
    <trkseg>
      <trkpt lat="45.69271" lon="6.56333">
        <ele>1008.344</ele>
        <time>2012-01-25T14:44:23Z</time>
      </trkpt>
      <trkpt lat="45.69255" lon="6.5631">
        <ele>1008.994</ele>
        <time>2012-01-25T14:44:33Z</time>
      </trkpt>
      <trkpt lat="45.69249" lon="6.56306">
        <ele>1008.893</ele>
        <time>2012-01-25T14:44:43Z</time>
      </trkpt>
      <trkpt lat="45.69253" lon="6.56301">
        <ele>1009.129</ele>
        <time>2012-01-25T14:44:53Z</time>
      </trkpt>
      <trkpt lat="45.69258" lon="6.56285">
        <ele>1009.015</ele>
        <time>2012-01-25T14:45:03Z</time>
      </trkpt>
      <trkpt lat="45.69259" lon="6.56284">
        <ele>1008.909</ele>
        <time>2012-01-25T14:45:13Z</time>
      </trkpt>
      <trkpt lat="45.69251" lon="6.56297">
        <ele>1008.962</ele>
        <time>2012-01-25T14:45:23Z</time>
      </trkpt>
      <trkpt lat="45.69238" lon="6.56277">
        <ele>1006.851</ele>
        <time>2012-01-25T14:45:33Z</time>
      </trkpt>
      <trkpt lat="45.69238" lon="6.5627">
        <ele>1005.184</ele>
        <time>2012-01-25T14:45:43Z</time>
      </trkpt>
      <trkpt lat="45.69237" lon="6.56263">
        <ele>1005.094</ele>
        <time>2012-01-25T14:45:53Z</time>
      </trkpt>
      <trkpt lat="45.69234" lon="6.56257">
        <ele>1003.804</ele>
        <time>2012-01-25T14:46:03Z</time>
      </trkpt>
      <trkpt lat="45.69231" lon="6.56251">
        <ele>1003.601</ele>
        <time>2012-01-25T14:46:13Z</time>
      </trkpt>
      <trkpt lat="45.69309" lon="6.56289">
        <ele>1004.491</ele>
        <time>2012-01-25T14:46:23Z</time>
      </trkpt>
      <trkpt lat="45.69315" lon="6.56284">
        <ele>1003.701</ele>
        <time>2012-01-25T14:46:33Z</time>
      </trkpt>
      <trkpt lat="45.69293" lon="6.56256">
        <ele>1004.14</ele>
        <time>2012-01-25T14:46:43Z</time>
      </trkpt>
      <trkpt lat="45.69293" lon="6.56255">
        <ele>1003.852</ele>
        <time>2012-01-25T14:46:44Z</time>
      </trkpt>
      <trkpt lat="45.69291" lon="6.56251">
        <ele>1003.984</ele>
        <time>2012-01-25T14:46:53Z</time>
      </trkpt>
      <trkpt lat="45.69292" lon="6.56255">
        <ele>1003.506</ele>
        <time>2012-01-25T14:47:03Z</time>
      </trkpt>
      <trkpt lat="45.69293" lon="6.56255">
        <ele>1004.428</ele>
        <time>2012-01-25T14:47:13Z</time>
      </trkpt>
    </trkseg>
  </trk>
</gpx>